GFSNW_500_spd_000.txt.gz
Wind_Speed
35 34 34 33 31 30 27 26 24 23 21 18 16 13 9 6 6 4 4 5 4 5 6 8 10 13 15 15 16 17 17 20 21 21 22 24 24 26 30 33 35 34 35 31
34 32 31 29 27 26 24 25 23 23 21 17 14 11 9 8 7 6 6 6 6 6 7 9 12 14 15 18 19 19 19 20 22 22 23 25 27 27 30 35 37 37 37 34
33 31 29 26 24 23 22 21 20 20 19 17 12 10 10 8 8 7 6 6 5 4 7 11 14 16 17 19 20 21 22 23 26 27 27 27 27 29 35 39 40 42 33 39
34 30 27 26 24 22 20 20 20 19 17 15 12 10 10 9 8 8 7 5 4 5 10 14 16 20 22 22 24 26 27 28 32 32 32 32 28 32 35 39 38 40 38 39
34 31 29 26 24 21 18 18 19 18 16 14 12 11 11 10 9 8 8 7 8 10 13 16 18 21 23 26 30 33 33 36 36 34 39 39 32 33 38 37 35 37 41 42
35 34 31 29 26 25 21 18 17 17 17 16 14 14 13 12 11 11 11 13 15 16 18 20 21 24 29 31 35 39 43 45 45 39 37 38 28 29 37 38 38 40 43 44
36 36 34 32 28 26 24 22 19 19 19 17 17 16 16 15 16 16 17 18 20 22 25 26 27 29 31 36 37 43 45 47 48 49 43 40 24 32 40 41 42 41 46 46
38 38 36 34 31 29 28 27 24 22 21 20 19 19 19 19 20 21 22 23 25 27 29 30 31 35 39 41 42 43 47 47 47 46 48 46 32 35 40 43 43 45 46 49
39 37 36 35 34 31 30 29 28 27 25 23 22 22 22 22 23 24 25 28 30 32 33 36 39 44 46 48 46 44 46 45 44 44 45 47 37 41 44 47 48 50 52 55
38 39 37 35 35 34 33 31 31 31 30 29 28 27 27 27 28 29 30 32 34 36 38 43 45 49 49 47 44 44 42 40 36 38 42 41 41 44 47 48 53 54 59 62
40 40 39 38 36 36 36 35 35 34 34 33 32 32 32 33 33 34 35 35 37 42 45 46 50 55 53 46 41 40 40 40 35 40 39 38 41 44 48 51 56 59 62 66
43 42 40 39 37 37 36 36 36 36 36 35 36 36 36 36 37 38 37 37 42 47 48 52 57 54 49 42 39 33 35 32 38 41 42 40 46 50 54 58 61 63 65 69
43 43 42 40 38 37 37 37 36 37 37 37 37 37 37 38 39 37 37 39 47 49 54 54 53 51 46 40 39 39 37 36 40 47 43 47 50 52 58 58 63 68 70 73
44 43 42 40 40 40 40 39 38 38 38 39 39 39 40 39 40 39 43 50 51 57 58 56 54 51 47 41 41 43 39 45 48 51 51 55 59 61 62 67 70 73 72 71
44 45 44 44 43 42 41 41 40 39 40 42 40 41 42 42 42 45 49 53 59 59 56 54 50 44 42 45 48 45 44 47 52 55 58 60 64 67 70 75 77 74 73 75
44 47 45 45 44 44 44 43 42 42 43 45 44 43 46 48 49 51 53 58 55 53 49 50 48 44 46 48 49 46 48 53 56 58 61 64 69 72 76 77 76 75 77 79
47 48 48 46 45 44 43 44 44 46 47 48 49 50 51 51 56 55 55 52 49 48 48 48 46 43 46 49 50 50 54 57 61 64 66 70 72 75 76 75 77 80 79 78
57 54 49 49 48 48 48 48 48 49 50 51 56 58 55 54 54 51 49 49 49 50 51 50 47 49 51 54 50 55 59 62 66 68 71 72 72 73 75 78 77 76 77 77
51 58 56 58 59 58 57 55 56 59 57 58 59 54 48 47 47 50 47 48 50 51 51 52 52 55 57 57 57 59 64 68 69 69 71 72 73 74 76 76 77 76 74 73
49 47 56 58 54 45 46 45 47 50 52 52 53 53 52 52 53 53 55 56 55 55 55 55 55 55 58 59 63 67 69 69 71 72 72 72 74 74 75 74 72 72 72 71
53 53 52 52 53 53 52 52 51 52 57 58 56 56 54 55 55 54 58 61 61 61 60 59 60 60 61 64 66 68 69 69 70 72 73 74 73 73 76 76 73 71 71 72
50 53 58 57 55 53 54 53 52 54 55 55 50 50 53 56 57 58 62 61 60 60 60 62 63 63 65 65 67 68 69 71 73 73 72 73 75 75 72 70 71 72 73 73
63 64 61 59 60 62 61 58 56 56 53 53 52 53 54 55 56 56 57 59 60 62 63 63 61 61 63 65 67 69 71 70 70 71 73 73 70 67 68 69 70 72 71 69
57 58 60 62 62 63 62 61 58 56 55 55 56 57 56 55 55 57 58 58 60 61 60 57 60 63 65 66 67 67 67 67 70 70 67 65 65 66 67 68 68 68 66 66
49 53 57 57 56 55 55 53 52 52 53 52 52 54 54 54 55 54 56 58 59 59 58 61 64 65 65 65 64 65 68 69 66 62 62 63 65 66 65 63 63 65 66 63
42 41 40 40 42 42 42 44 44 45 47 48 49 51 53 54 54 55 57 57 56 58 62 64 65 63 63 63 64 65 64 61 60 60 62 63 63 62 61 62 64 64 59 48
42 40 40 39 41 42 43 44 45 47 48 49 51 53 52 54 56 57 56 54 59 63 66 62 61 62 61 60 60 59 58 59 60 61 61 59 59 61 63 63 59 54 44 38

GFSNW_500_spd_003.txt.gz
Wind_Speed
37 41 43 43 41 38 35 33 30 28 25 20 18 16 13 11 8 5 4 4 3 2 2 3 5 8 10 11 12 13 15 16 17 19 20 22 24 26 29 31 32 32 35 29
34 39 40 40 40 38 34 33 29 26 22 18 16 14 14 13 10 8 7 5 4 2 1 3 5 7 10 13 14 16 17 18 21 23 24 25 27 29 30 33 35 35 35 32
33 34 37 39 37 36 33 28 24 22 21 19 16 14 14 12 11 9 6 5 3 1 2 4 7 10 12 13 15 18 21 24 25 27 31 30 32 35 37 39 40 41 33 36
33 33 33 33 32 31 27 25 23 23 21 20 18 15 13 11 10 9 8 5 3 2 3 7 10 13 17 20 24 27 31 32 33 35 36 35 32 34 37 39 39 40 36 36
33 34 33 31 29 27 25 23 22 21 20 19 18 16 14 13 12 10 8 6 6 6 8 11 14 17 19 22 26 33 38 41 43 41 41 38 28 31 34 37 37 37 40 40
34 34 32 30 28 25 21 21 21 21 19 19 19 19 16 14 12 12 11 10 10 11 14 17 19 21 23 24 30 37 42 45 47 43 41 37 29 30 35 36 35 39 42 43
35 35 33 30 27 25 23 21 20 21 21 22 21 19 17 16 15 15 14 15 15 17 19 21 23 25 27 29 34 39 44 47 47 46 43 38 26 33 36 36 35 38 40 41
36 36 34 32 29 27 25 23 21 21 22 22 21 20 18 16 16 16 17 19 20 22 25 25 26 28 30 33 37 42 47 47 46 45 46 42 26 30 32 35 35 38 39 41
37 37 34 33 31 29 27 27 25 23 21 20 19 18 18 18 18 19 20 22 23 26 27 28 29 30 34 36 41 45 44 42 40 42 43 40 32 36 38 40 40 45 44 49
37 36 35 34 33 32 30 29 28 26 25 24 23 23 23 22 22 23 25 27 28 30 31 31 33 35 38 40 44 42 40 41 37 37 38 33 34 37 40 44 48 51 54 58
38 36 36 36 35 35 33 33 32 31 30 29 30 30 29 29 29 30 30 32 33 34 35 36 38 40 42 47 47 43 39 41 35 36 34 35 38 41 45 47 50 53 57 60
41 39 37 36 36 36 36 36 36 35 34 34 35 35 34 34 34 34 35 35 36 37 38 40 43 45 48 53 54 43 37 35 37 40 36 40 42 45 48 50 55 57 61 65
44 41 40 38 37 37 38 38 38 37 37 37 37 37 37 37 37 38 37 38 38 39 41 41 45 49 55 55 51 46 36 33 39 43 39 44 47 50 52 55 60 62 66 71
45 42 42 42 40 39 37 38 38 38 38 39 39 39 39 39 39 38 38 37 38 40 42 46 52 56 57 53 46 45 40 40 42 43 44 48 48 53 57 60 61 66 71 75
44 43 41 42 42 41 40 40 40 40 41 41 39 40 39 39 39 39 38 39 42 43 47 52 57 58 55 51 47 46 44 42 45 49 51 52 55 58 62 67 71 75 76 75
42 43 42 42 42 42 42 41 42 42 42 42 41 41 41 42 40 40 40 41 43 47 52 58 59 56 55 53 52 48 45 47 52 54 56 58 61 64 68 72 75 75 76 77
45 44 44 44 45 46 45 44 43 44 44 43 44 44 40 40 42 42 43 44 48 54 58 56 53 51 53 53 53 49 51 53 56 58 60 63 66 70 73 74 74 74 76 78
46 47 46 44 44 45 44 44 45 44 45 45 47 43 43 40 41 43 45 50 54 55 49 47 49 53 54 55 54 55 56 58 59 60 64 68 71 72 73 72 73 75 75 76
51 50 50 48 46 45 45 45 45 45 44 46 46 44 45 46 49 52 53 54 53 47 48 50 52 54 57 58 60 62 62 61 62 65 68 69 70 69 70 74 75 75 74 74
51 49 50 49 48 44 53 48 46 48 46 53 53 53 55 54 50 50 52 53 52 53 55 57 57 58 59 60 58 58 60 62 65 68 67 66 66 70 72 74 73 74 74 73
47 51 49 44 43 41 45 53 52 55 59 59 59 52 47 48 50 50 52 53 55 58 60 60 61 60 57 56 58 61 63 63 64 65 65 69 72 72 72 73 73 73 71 71
49 50 49 45 47 44 46 47 48 55 57 54 52 52 52 52 50 50 50 53 56 58 58 60 61 59 60 61 62 64 64 64 65 68 70 71 72 73 73 73 72 71 71 70
55 54 54 55 54 56 53 49 50 50 52 50 49 49 49 49 51 53 56 58 58 59 59 58 56 57 60 62 63 63 63 66 68 69 71 72 72 71 71 69 69 71 68 65
51 56 54 53 55 55 52 53 55 54 54 55 55 55 54 54 56 57 57 58 57 58 56 54 55 58 60 62 61 62 63 66 68 69 70 70 71 69 67 68 68 66 62 61
56 60 61 61 59 56 54 55 55 57 59 60 59 59 57 54 55 55 54 54 54 54 53 56 58 59 59 58 60 63 65 67 67 67 67 64 64 65 63 62 61 60 60 61
57 65 62 60 61 62 63 63 63 61 59 59 59 56 53 50 49 49 50 51 51 53 55 57 59 59 59 61 63 65 65 66 66 63 61 62 63 62 59 57 58 59 59 55
47 43 43 45 46 49 50 52 52 50 48 47 46 45 46 48 49 50 50 51 53 56 59 61 60 60 61 62 64 64 65 62 59 58 59 60 58 56 56 57 57 55 51 49

GFSNW_500_spd_006.txt.gz
Wind_Speed
30 37 42 43 42 40 37 36 32 28 26 23 21 19 17 12 10 8 5 4 5 4 3 3 2 2 3 5 6 9 11 13 16 18 21 22 23 26 27 30 33 33 34 30
29 34 39 41 43 42 39 35 33 30 27 25 21 18 14 13 13 11 7 6 5 4 4 4 4 3 5 7 9 11 14 18 20 22 23 26 28 28 30 32 33 32 37 31
29 32 38 40 42 41 39 35 33 31 29 25 18 17 15 15 15 12 9 7 5 6 6 4 2 2 5 7 10 15 20 23 26 29 30 32 31 30 33 33 33 36 30 31
29 30 35 39 39 39 38 36 32 30 26 22 19 19 18 18 16 15 11 9 8 8 7 4 3 5 8 11 15 18 22 25 29 33 34 31 29 30 34 34 34 35 31 30
29 30 31 36 37 35 35 34 32 29 26 23 21 21 20 19 18 16 13 12 11 12 11 8 9 10 12 14 18 22 26 30 34 35 38 32 29 31 32 33 35 35 34 33
27 29 30 31 31 34 33 31 30 28 25 23 23 24 23 21 19 18 16 15 14 13 13 12 14 15 16 18 22 26 31 35 39 41 36 30 27 29 28 26 29 31 33 34
30 30 31 31 31 31 31 30 28 26 25 25 25 25 24 23 21 19 18 16 15 15 16 17 18 19 19 21 24 29 33 39 45 45 40 31 31 29 25 22 24 28 31 32
31 31 32 32 31 31 30 29 28 27 25 25 25 26 25 24 22 20 19 18 17 18 19 20 21 22 22 25 25 31 36 42 48 49 45 33 28 30 26 27 25 29 34 38
33 33 33 32 32 31 31 30 27 26 26 26 26 26 26 25 23 22 21 21 20 21 22 23 24 24 26 28 30 33 39 46 49 49 45 40 34 31 31 32 35 36 38 42
35 34 33 33 34 33 31 30 29 28 26 26 27 27 26 26 24 23 23 22 23 24 26 27 27 28 30 32 33 36 41 49 49 44 41 37 35 37 38 39 42 44 49 51
35 35 35 35 34 34 33 32 32 31 30 29 29 29 29 28 27 27 26 27 28 31 31 31 32 32 34 34 35 38 45 52 47 42 38 38 37 40 42 43 45 48 50 53
37 36 36 36 36 36 35 33 34 33 34 33 33 33 32 32 32 32 32 33 35 36 36 36 37 37 37 37 39 41 45 46 42 43 38 42 42 43 45 49 50 53 56 60
39 38 37 36 37 37 36 35 36 37 36 36 36 36 36 37 37 37 37 38 39 39 38 38 40 39 40 39 45 48 47 44 40 43 40 43 43 44 48 51 55 57 61 65
41 40 40 38 37 37 37 37 38 38 39 39 39 39 39 40 40 40 40 41 41 40 40 41 40 40 41 44 49 50 46 44 43 42 44 45 46 49 52 55 57 61 66 70
41 41 42 42 41 40 39 39 38 39 41 41 40 41 41 42 42 42 42 42 41 41 42 42 42 41 43 50 53 48 43 45 47 47 49 51 54 56 57 59 62 66 71 76
43 41 41 43 43 42 41 41 40 40 41 42 42 41 41 43 43 42 42 42 41 42 43 43 44 42 48 55 54 40 44 47 50 52 56 57 59 59 60 63 68 72 75 77
41 42 41 42 43 44 44 44 41 42 42 42 44 44 42 42 44 43 44 42 41 43 45 46 45 46 53 56 48 45 49 52 55 56 58 59 60 62 64 68 71 74 74 75
44 41 41 41 41 43 45 44 43 42 42 44 47 45 43 41 42 44 43 43 44 44 45 47 49 54 56 52 47 50 52 54 55 57 57 59 62 64 67 70 72 73 74 74
40 44 40 39 41 42 43 44 43 43 44 47 47 46 45 45 44 42 40 41 44 48 51 51 52 53 52 50 53 54 55 55 56 57 60 61 63 65 67 69 71 72 71 72
42 43 43 40 41 41 43 44 46 45 44 46 45 45 47 47 45 43 41 46 50 53 51 51 52 51 50 50 54 54 55 55 57 57 59 61 64 65 67 68 69 71 72 74
48 50 46 42 39 39 45 48 48 49 46 46 48 50 49 45 46 49 54 55 55 53 51 52 53 52 52 54 56 57 57 55 56 58 60 62 64 65 67 68 70 72 73 72
46 48 47 46 47 49 54 52 50 49 48 47 43 45 49 52 53 51 50 50 52 54 54 55 56 55 57 59 59 57 55 56 58 61 63 64 65 67 68 70 71 72 71 70
50 54 51 52 52 52 52 54 53 52 50 46 44 44 45 44 45 48 50 52 53 54 57 59 59 61 61 60 57 56 56 58 61 62 63 64 66 67 69 68 68 69 68 67
54 46 52 56 55 56 55 54 53 51 49 49 50 50 48 47 52 53 53 56 59 62 61 62 61 59 57 56 54 56 58 60 62 62 64 65 66 67 67 65 66 66 64 61
52 51 52 53 54 55 57 58 54 53 53 55 55 50 51 57 58 56 58 62 63 63 62 60 58 56 54 54 55 58 61 61 62 63 63 64 65 65 62 62 62 62 59 58
51 51 49 52 57 59 61 58 57 58 59 60 60 58 58 61 62 61 63 62 58 53 54 54 52 52 53 54 57 60 61 61 61 62 63 63 61 60 60 59 59 56 56 55
57 57 55 53 52 53 56 56 54 53 52 52 54 55 58 60 60 58 54 51 50 51 52 53 53 52 54 58 59 59 59 59 61 62 59 57 58 59 59 57 53 51 50 49

GFSNW_500_spd_009.txt.gz
Wind_Speed
36 43 44 43 41 39 37 35 32 29 27 24 21 20 17 15 13 9 7 4 5 5 5 6 7 6 4 3 2 3 5 7 9 13 16 18 20 23 25 25 27 27 29 24
32 40 44 45 43 40 39 36 33 31 28 25 22 21 19 17 14 11 9 6 5 6 7 7 7 6 5 4 2 2 6 8 13 18 23 27 26 26 27 28 29 26 31 24
30 36 40 43 44 43 40 38 36 33 29 26 24 22 20 17 16 14 11 9 8 9 9 9 8 7 4 2 4 8 11 15 17 21 27 33 33 31 33 33 31 30 26 29
28 32 37 39 41 41 40 39 35 32 29 28 26 24 21 19 18 17 15 13 12 12 12 11 9 8 7 6 9 13 15 18 21 21 28 33 33 33 33 33 33 32 24 25
29 29 34 37 39 40 39 37 35 33 30 29 27 24 22 21 19 18 18 18 17 16 15 13 11 11 10 10 13 16 19 21 24 23 30 35 36 35 33 31 29 29 28 24
30 29 30 33 37 38 38 37 36 35 31 29 27 24 24 23 22 21 22 21 20 19 17 16 15 14 14 15 17 20 23 25 27 28 33 39 40 34 31 29 30 25 27 28
30 29 28 30 33 36 36 36 35 34 31 29 27 27 27 26 25 24 24 24 22 20 19 19 19 18 18 18 21 24 28 31 34 35 38 43 43 36 31 29 26 27 30 34
31 30 28 29 30 32 34 36 34 33 31 30 30 28 29 28 28 28 27 25 25 23 22 22 21 21 20 21 24 28 32 35 38 40 43 45 38 34 29 28 28 29 34 37
31 30 29 30 31 32 33 34 34 33 33 32 32 30 30 30 29 29 28 26 26 26 25 24 24 24 24 26 28 31 35 37 39 42 47 47 42 36 31 33 33 36 36 39
33 32 31 32 32 32 32 32 33 33 34 33 34 33 31 30 30 29 28 28 29 28 27 26 27 28 28 31 33 34 38 39 39 44 48 46 41 37 34 36 38 41 43 48
34 33 33 32 32 33 33 32 33 34 33 33 33 34 33 32 31 30 30 30 29 30 30 30 31 32 33 35 36 38 40 40 41 45 47 49 42 40 37 38 40 43 47 52
36 34 34 34 34 35 35 34 34 34 34 33 33 33 33 33 32 32 33 33 33 34 34 34 35 36 37 39 40 39 37 39 41 48 44 41 42 44 44 44 46 51 55 59
36 36 35 35 35 36 36 36 36 36 36 37 36 35 34 34 35 36 36 36 37 38 39 40 41 42 41 42 42 41 36 39 46 49 40 41 41 43 44 48 52 55 58 60
37 36 37 36 36 37 38 38 37 37 38 40 39 40 39 39 40 40 41 41 42 43 43 44 46 45 45 44 44 44 36 43 50 51 44 44 43 48 50 52 55 56 59 62
39 38 37 38 38 37 37 38 38 39 39 42 40 41 42 42 43 44 44 44 45 46 46 46 46 47 45 47 48 43 38 45 51 51 47 45 50 53 57 57 56 59 62 64
39 39 41 39 39 39 39 39 40 40 40 41 42 42 42 44 44 44 46 47 47 47 46 46 48 46 45 51 49 42 42 49 54 52 51 53 54 55 53 56 59 62 64 66
39 39 39 40 40 41 42 41 38 39 40 41 42 42 42 41 41 42 44 44 45 45 46 48 46 46 49 51 47 44 50 52 52 51 53 54 56 58 58 61 63 65 67 70
37 38 38 40 42 42 44 45 43 42 43 42 46 47 44 40 41 43 44 45 46 47 47 47 46 48 49 51 47 50 51 51 52 53 54 56 57 60 63 64 65 67 69 71
41 39 39 40 41 42 43 44 44 44 45 44 48 46 44 44 43 44 45 46 46 48 48 47 47 49 49 47 47 52 52 52 53 55 57 59 61 63 63 64 66 68 69 69
46 45 46 46 45 44 45 45 45 45 45 46 45 43 45 45 44 44 45 46 47 49 48 49 50 51 51 50 51 53 53 54 55 58 62 64 64 63 63 65 66 67 69 70
40 42 43 39 40 45 48 47 46 45 43 41 38 41 45 43 43 45 45 47 48 49 50 52 55 57 51 50 52 53 55 57 60 63 65 64 62 62 64 64 67 68 70 71
45 44 44 43 45 44 47 49 46 45 44 40 36 39 44 48 49 51 50 46 47 51 52 54 54 51 50 52 53 58 61 62 65 65 64 61 61 62 64 66 68 69 70 70
46 44 49 50 55 54 57 57 52 47 44 42 45 49 48 46 47 45 43 47 52 53 51 50 52 53 55 56 60 62 65 67 66 64 61 60 61 63 66 67 68 69 69 66
50 49 54 57 59 60 61 56 51 51 50 49 50 50 49 49 48 49 49 53 55 55 54 55 56 58 60 62 64 65 64 62 61 59 59 61 63 64 66 67 68 66 64 63
54 54 54 55 61 62 63 59 57 57 57 55 55 55 53 52 52 53 54 57 60 59 57 59 61 63 65 66 64 61 60 60 59 59 61 62 64 65 65 65 63 62 61 61
55 58 53 51 49 51 56 57 50 50 50 51 52 57 59 58 60 61 61 62 63 62 62 63 64 64 62 59 57 57 57 58 60 61 62 63 64 64 62 60 59 60 60 58
54 55 54 47 47 48 53 56 51 49 47 49 53 55 55 57 57 57 56 56 57 58 58 57 53 50 52 55 57 57 58 59 60 61 62 62 61 59 58 58 58 58 57 55

GFSNW_500_spd_012.txt.gz
Wind_Speed
40 44 46 47 43 41 39 37 36 33 28 23 19 18 12 11 11 12 9 4 4 5 7 8 9 8 8 7 6 5 4 3 4 6 8 14 18 20 22 24 25 27 27 20
39 43 45 47 45 42 40 38 35 32 27 24 21 16 15 14 14 13 10 6 5 7 8 9 9 10 7 7 5 2 2 4 8 12 15 21 26 28 32 29 24 23 27 23
38 43 45 46 46 43 41 38 35 33 28 24 22 20 18 18 16 13 12 9 8 9 11 11 11 9 9 6 3 3 5 8 10 13 16 21 25 32 34 34 33 29 22 25
35 41 45 46 46 45 42 39 37 33 29 26 25 22 21 19 16 14 15 13 11 13 13 13 13 12 11 8 8 9 10 11 13 16 20 24 28 35 35 33 30 29 24 26
30 36 42 45 46 45 44 41 37 35 31 30 27 25 23 22 19 17 18 17 16 17 17 17 15 14 13 12 12 13 15 15 16 20 24 27 29 36 38 34 30 29 28 21
29 32 38 41 43 45 46 42 39 37 34 32 29 24 24 22 17 20 21 21 20 21 17 16 17 17 16 16 17 18 19 20 21 24 27 29 31 36 40 36 33 30 29 30
30 30 33 38 40 42 42 40 40 38 35 32 29 26 24 24 22 23 25 24 22 21 23 20 19 20 20 20 20 22 23 25 27 29 31 32 35 37 41 36 33 31 32 36
31 31 31 33 37 39 40 40 39 37 34 34 33 28 27 26 25 28 26 24 25 27 25 24 22 23 23 23 24 25 27 29 32 35 36 36 37 38 39 40 31 34 33 36
32 31 31 32 32 35 38 39 38 36 36 35 33 33 31 28 30 27 28 28 28 28 27 27 26 26 26 27 27 28 31 33 35 38 41 41 40 44 45 39 36 37 34 36
33 32 32 31 31 32 33 35 36 37 38 35 35 36 31 33 32 32 31 31 31 30 29 30 29 29 29 31 31 32 34 37 38 41 43 43 43 44 43 42 41 37 38 40
34 33 32 31 31 32 33 33 34 36 38 37 38 36 36 35 35 33 33 33 32 32 32 32 32 33 33 34 36 36 38 40 41 43 44 45 47 48 47 45 42 44 44 46
35 35 33 32 31 31 32 33 33 34 36 36 37 37 37 37 38 36 32 36 33 35 34 34 35 36 36 37 39 41 44 42 45 45 45 45 48 52 50 48 48 47 49 53
37 34 33 32 32 31 32 32 34 34 34 36 38 36 36 37 37 36 36 35 36 37 36 37 38 39 40 41 42 43 46 42 46 49 45 47 48 50 53 52 52 53 55 56
37 36 35 34 33 33 33 33 34 36 34 36 36 36 37 37 37 37 37 38 38 39 40 41 42 43 44 44 46 48 43 44 43 46 46 51 50 53 55 54 53 56 59 59
37 35 35 35 35 34 34 34 36 36 37 36 35 37 37 38 39 39 40 40 41 42 44 45 46 47 48 48 48 48 40 42 44 46 50 49 53 54 54 53 54 56 59 62
38 36 35 33 33 36 36 37 38 37 37 38 38 37 38 40 40 41 42 44 44 45 47 48 49 48 49 51 51 44 42 43 44 46 51 54 54 56 55 55 57 60 64 65
38 36 36 35 35 36 37 37 35 35 37 38 39 40 41 41 41 41 42 43 44 44 47 48 45 45 50 54 51 40 42 44 47 48 51 54 55 55 55 56 60 64 67 67
35 39 38 36 37 38 41 40 38 38 39 39 40 42 41 37 39 39 40 41 41 44 45 47 47 47 51 55 45 43 42 45 48 52 55 55 55 55 57 59 64 66 67 67
31 34 36 36 37 38 38 40 41 41 44 44 42 41 41 41 40 40 42 43 43 46 48 47 48 50 51 45 45 45 48 49 53 57 55 55 54 57 61 64 67 68 68 68
33 35 35 35 35 36 39 39 40 40 43 46 46 45 46 44 44 42 42 42 44 47 46 46 49 50 47 45 46 45 50 54 54 53 55 55 59 61 65 67 68 68 68 68
39 36 35 35 36 40 43 44 43 41 40 41 41 43 43 43 42 42 42 43 45 47 48 50 50 47 45 45 44 49 55 54 53 55 57 61 64 66 68 67 66 66 66 67
42 41 40 39 41 44 47 46 46 46 45 41 42 42 40 41 42 44 45 44 46 47 48 51 51 49 47 46 50 53 54 56 59 60 62 65 67 67 65 65 64 65 67 69
44 41 40 41 43 46 50 47 43 42 41 38 37 38 40 42 44 47 47 49 52 52 51 49 47 47 50 53 57 58 58 61 64 65 65 66 65 64 63 62 65 68 69 69
50 48 47 47 47 50 50 51 48 47 46 45 47 47 50 49 48 46 50 54 55 54 53 51 52 54 56 58 61 61 60 64 66 66 66 62 60 60 62 65 66 67 68 68
49 53 51 53 52 52 51 54 56 56 53 54 55 56 55 51 53 54 56 57 55 55 54 56 57 59 61 62 63 63 63 65 67 64 59 58 60 63 64 64 65 67 67 67
44 50 54 53 49 48 49 50 54 59 57 52 53 53 56 59 61 63 63 61 59 59 59 60 61 61 58 58 60 62 63 60 57 56 59 61 62 62 63 64 66 67 67 67
50 48 49 52 53 49 43 40 41 42 43 46 50 51 51 54 57 57 57 58 57 55 54 54 53 55 56 55 54 53 53 54 56 57 58 61 63 63 64 64 65 66 65 64

GFSNW_500_spd_015.txt.gz
Wind_Speed
39 45 51 51 49 45 41 41 39 38 34 29 24 20 15 7 9 7 8 5 6 6 8 8 10 11 10 8 8 6 7 6 3 2 3 7 11 14 18 21 21 22 21 12
41 46 51 52 49 45 42 40 40 38 34 29 25 19 10 11 10 8 8 6 6 7 8 9 11 10 11 10 11 9 5 3 1 3 3 8 15 19 23 27 27 22 23 20
42 48 51 52 50 47 44 42 40 38 33 29 24 18 14 12 10 9 9 9 9 8 11 11 12 13 12 12 10 7 4 5 7 7 9 12 16 20 24 29 31 28 24 26
43 47 50 51 51 48 44 42 39 36 33 28 23 20 17 13 11 11 10 12 12 12 11 12 13 13 14 12 9 7 7 9 11 11 13 16 20 22 25 27 31 33 30 29
42 46 49 51 51 48 45 44 41 37 35 31 28 24 20 16 15 13 13 15 17 14 15 13 14 13 14 13 12 11 11 13 15 15 17 19 22 25 28 29 31 33 33 29
41 45 47 50 51 49 47 44 41 39 35 33 30 24 21 22 18 17 15 19 19 14 12 14 15 18 18 18 16 17 17 17 18 19 20 23 25 28 31 33 35 37 37 34
38 43 45 47 49 51 47 44 41 39 36 35 30 26 27 26 19 21 17 18 17 15 19 22 21 22 22 21 19 20 21 22 22 23 24 27 30 31 33 35 37 37 38 37
35 39 42 44 47 47 46 48 45 41 39 37 34 31 31 29 22 22 18 17 21 24 23 24 24 25 25 23 24 23 24 26 27 27 29 31 35 35 35 38 38 37 39 40
33 34 37 41 42 44 45 47 44 42 41 39 37 35 34 30 27 25 21 22 25 25 24 26 28 28 27 28 26 27 28 29 30 32 34 37 39 41 42 42 40 41 39 39
34 32 32 33 37 40 42 42 42 41 40 39 38 39 35 33 31 29 28 27 28 27 28 29 30 30 32 32 29 30 32 33 34 36 38 39 41 46 45 43 44 45 43 43
35 32 31 31 31 33 37 40 42 42 42 41 41 40 37 37 35 33 31 31 31 31 33 32 32 34 34 35 34 33 35 37 37 39 41 43 46 48 47 43 46 48 48 48
36 34 33 30 29 31 33 35 37 39 40 41 42 41 41 40 38 35 35 36 32 35 35 34 36 37 36 35 37 37 39 39 40 41 44 44 49 51 51 49 49 47 50 53
37 35 34 33 31 30 31 34 35 35 35 38 40 40 39 40 41 39 37 37 37 37 35 37 39 39 37 37 37 39 41 43 44 47 47 49 53 53 51 51 50 51 53 54
39 36 35 34 33 33 30 30 32 33 33 35 36 36 36 38 39 38 37 37 38 38 38 39 39 39 40 40 41 43 40 44 45 47 46 51 52 51 53 51 50 52 56 55
41 39 36 34 33 32 32 33 32 32 32 33 32 33 33 35 37 37 37 36 38 38 39 39 40 41 41 43 44 44 40 44 45 45 49 49 49 51 50 50 53 56 56 55
41 39 38 37 36 34 33 33 33 32 32 32 32 32 32 35 36 36 36 36 37 37 37 40 43 41 43 46 47 43 40 38 42 47 46 47 52 50 50 53 56 56 55 55
39 39 38 37 36 35 34 33 32 32 32 33 34 34 35 35 36 35 35 36 36 38 40 42 41 41 45 47 46 40 40 42 47 45 45 49 50 50 53 57 56 55 55 59
36 38 38 37 35 34 33 32 31 32 33 34 36 36 34 33 34 36 35 35 36 39 40 42 41 42 44 48 42 43 42 43 46 46 47 50 52 54 57 57 55 56 60 64
37 32 33 36 37 36 35 34 33 33 35 37 36 36 36 35 34 35 35 36 38 41 42 41 44 46 48 43 43 44 45 45 45 47 49 50 51 57 59 57 59 63 66 70
34 36 35 35 35 36 37 36 35 35 36 39 38 38 39 38 38 39 40 40 42 44 44 46 48 48 43 41 44 46 46 46 48 52 50 51 54 57 59 62 66 68 71 72
35 34 32 29 29 34 36 36 34 34 34 34 32 32 34 35 37 38 40 42 43 45 46 48 47 43 37 40 43 46 48 50 50 49 51 56 59 60 62 64 67 70 71 69
36 35 34 33 32 32 36 34 33 33 33 35 35 32 32 37 39 41 41 43 44 44 45 47 47 45 44 45 47 49 49 48 49 52 57 60 63 63 64 66 68 69 65 63
40 37 37 36 36 37 38 37 36 36 35 35 35 36 33 33 35 38 40 44 46 47 48 49 49 48 49 52 52 52 52 53 55 58 62 65 65 64 65 68 67 62 62 64
39 39 38 40 41 43 41 41 42 43 40 39 40 40 41 41 41 42 45 50 54 56 56 53 51 52 55 58 58 57 57 59 61 64 65 64 63 65 65 61 61 62 65 67
46 46 45 46 45 45 44 44 44 45 45 46 48 47 48 48 48 50 54 55 55 54 55 56 58 60 63 64 61 60 60 62 61 60 60 62 61 59 59 62 64 67 70 70
45 46 45 46 49 50 49 48 46 45 48 49 51 53 55 55 54 52 51 50 51 56 59 60 61 60 55 52 52 54 54 55 57 58 56 56 58 60 62 65 67 67 66 67
43 43 42 42 45 48 52 55 52 47 43 42 45 47 47 49 50 49 51 51 52 53 50 45 43 42 45 48 51 52 52 52 52 55 57 61 63 63 62 62 63 63 62 62

GFSNW_500_spd_018.txt.gz
Wind_Speed
37 37 39 44 50 49 47 46 44 43 40 35 30 26 21 15 9 5 4 3 3 7 7 8 12 14 15 14 13 12 10 10 10 7 4 3 2 4 7 10 15 17 17 21
37 39 41 47 52 49 47 46 45 44 39 35 29 26 20 13 10 5 4 3 4 7 7 12 15 16 17 16 15 14 12 10 6 5 7 6 5 8 11 14 18 20 21 23
37 41 44 50 53 50 48 48 47 44 40 34 31 27 19 12 10 6 5 6 7 8 10 14 16 17 17 15 15 13 12 9 8 7 8 9 11 16 16 18 20 20 22 21
37 43 46 52 55 53 49 48 45 42 39 35 30 24 18 14 10 8 6 7 9 9 11 13 15 16 16 17 16 13 11 10 10 9 11 13 15 17 20 22 24 24 25 27
38 45 49 54 56 54 50 47 46 43 40 36 30 23 19 15 13 10 9 8 9 11 9 12 15 15 15 17 16 15 15 13 13 14 16 16 17 19 22 24 26 28 31 31
39 44 49 55 56 54 51 48 45 43 40 35 32 28 23 19 17 15 12 9 11 14 12 14 18 19 21 22 21 20 19 18 19 19 21 22 21 24 26 28 30 31 33 34
39 44 49 54 55 54 52 48 44 42 40 36 33 29 26 24 20 18 15 13 11 13 18 20 19 21 23 23 23 23 22 23 23 23 25 26 26 27 30 32 31 34 36 37
40 44 48 52 55 54 52 49 45 43 41 39 37 34 34 28 23 20 18 15 13 17 22 24 21 21 25 25 26 27 27 27 28 28 28 29 29 31 35 35 34 38 39 41
39 43 46 50 51 51 52 50 47 44 43 41 39 37 34 30 27 24 23 20 18 20 23 25 25 26 26 28 29 29 31 31 32 32 33 34 33 35 37 39 38 39 40 43
38 41 44 46 48 50 52 49 46 45 43 41 39 37 35 33 29 28 28 27 25 24 25 27 29 30 30 30 30 31 33 35 36 35 37 37 37 38 42 42 41 45 46 47
36 37 39 41 45 47 48 47 46 45 43 42 42 39 37 35 33 33 32 31 29 30 30 31 32 34 34 34 34 33 36 38 37 38 38 39 40 43 44 44 45 48 48 48
35 34 34 37 40 42 43 42 42 43 42 42 42 41 40 39 39 38 38 37 35 36 34 34 35 36 37 37 38 36 37 38 39 38 38 39 43 45 46 44 48 52 50 49
36 33 32 32 33 35 37 37 39 41 41 43 43 44 43 42 41 42 42 42 41 41 39 38 38 38 36 37 38 39 38 40 40 39 37 40 44 46 47 51 55 53 52 53
37 35 33 31 30 30 31 31 33 35 37 38 40 41 43 43 43 43 42 42 40 40 40 39 38 38 40 38 40 41 38 40 41 44 42 46 45 47 52 55 56 53 53 53
38 36 34 33 32 31 30 28 28 30 31 33 33 35 36 37 37 37 38 38 38 37 36 36 36 37 38 39 41 39 34 38 41 42 42 43 45 50 53 53 52 52 53 54
39 38 36 35 33 32 32 33 33 30 29 29 30 31 32 34 35 34 33 32 31 33 33 33 35 34 36 40 39 34 30 34 38 40 41 43 45 49 52 51 52 52 53 54
40 39 38 37 35 34 34 33 31 32 33 33 33 32 32 32 32 32 32 32 32 33 35 36 36 35 38 40 40 31 36 37 39 40 42 45 48 50 50 50 51 51 52 56
38 39 39 38 37 36 35 33 32 32 33 34 36 35 30 30 31 32 31 32 30 34 35 36 35 37 39 43 34 38 39 41 42 44 46 48 50 50 51 52 54 55 57 61
38 37 38 37 36 36 35 35 35 34 34 34 34 31 29 29 30 31 32 33 34 37 38 38 40 42 43 39 41 43 44 44 42 43 45 48 49 51 53 53 53 58 62 65
37 38 39 38 38 36 35 35 35 35 35 36 34 32 33 32 30 31 33 35 37 40 41 43 45 46 43 43 44 44 43 43 42 44 45 47 49 49 49 50 55 61 65 67
39 36 34 33 33 34 35 37 37 37 37 36 34 32 32 30 29 28 31 34 37 38 40 43 45 44 42 42 40 43 45 46 48 49 51 50 50 52 54 57 61 64 67 68
35 37 35 37 36 36 36 36 36 36 34 34 32 28 27 30 32 35 36 36 38 40 39 41 42 41 41 42 45 46 47 48 49 52 52 56 57 57 59 63 65 65 66 68
35 34 34 35 35 38 38 37 35 33 33 32 32 32 32 34 35 37 38 40 40 40 41 43 43 42 45 49 51 52 52 52 52 55 58 60 61 59 59 61 63 63 65 64
39 39 38 39 40 42 43 41 39 38 36 37 39 39 39 38 39 39 40 43 46 49 49 47 48 51 54 54 53 52 54 57 58 59 60 60 59 57 56 59 62 60 61 68
42 42 40 43 44 44 43 42 43 43 44 44 44 45 46 45 45 45 45 47 49 50 53 55 54 52 53 54 56 58 59 59 59 58 57 54 54 57 58 57 61 66 68 67
44 45 42 42 41 42 42 44 46 46 46 47 49 50 51 51 52 53 54 54 54 55 54 52 52 52 55 56 54 50 50 50 49 49 53 54 52 56 61 63 63 63 63 64
42 40 41 39 41 43 45 48 49 50 50 51 51 52 50 49 48 46 44 43 45 47 48 49 49 48 44 40 40 43 47 51 49 50 56 60 61 60 58 58 60 61 61 60

GFSNW_500_spd_021.txt.gz
Wind_Speed
41 41 40 39 40 47 52 48 44 42 40 39 36 30 25 21 15 10 6 5 5 10 11 13 16 17 17 17 18 17 15 15 15 11 9 6 5 5 4 7 10 14 15 15
41 41 42 41 45 49 52 49 46 44 41 39 35 30 24 19 14 9 4 3 7 11 11 14 18 18 19 20 18 16 16 15 14 12 10 9 9 10 10 11 11 12 15 17
41 41 42 42 47 52 54 51 48 45 42 39 34 31 25 17 13 8 6 4 7 9 12 15 17 18 19 19 18 17 17 16 13 12 11 12 13 14 14 15 15 15 19 20
41 41 42 42 50 54 54 52 49 44 43 40 36 31 26 19 15 9 7 4 8 9 10 12 15 17 18 18 18 19 18 16 14 13 14 15 16 17 18 18 19 21 23 22
41 42 41 42 52 56 54 52 49 45 43 41 38 32 25 20 15 9 8 6 6 10 10 12 15 17 18 19 20 21 19 18 17 17 17 19 19 21 24 23 24 25 27 27
41 41 39 44 54 57 54 52 48 46 44 42 39 32 26 22 17 12 11 9 6 11 13 13 17 18 21 21 23 24 23 22 22 22 23 24 22 24 28 28 27 30 32 32
41 38 39 45 54 57 54 50 49 46 44 41 38 33 29 25 20 17 14 11 9 11 15 17 17 19 20 23 23 26 26 27 28 28 29 31 26 28 31 33 30 33 35 36
39 35 39 44 54 57 54 52 49 46 43 41 41 36 32 28 24 19 17 16 13 12 17 20 21 21 21 23 25 27 29 31 33 34 34 36 32 30 34 37 34 36 38 39
36 34 39 44 53 56 55 52 48 46 44 43 41 37 36 33 27 24 22 21 19 17 17 20 22 24 25 25 26 28 32 35 37 38 41 41 36 35 39 41 38 39 41 42
34 32 37 43 49 53 53 54 51 48 45 44 42 39 38 34 30 27 26 25 23 23 22 21 22 25 28 29 29 28 33 37 39 41 43 44 39 40 42 42 42 41 43 44
31 32 37 42 47 50 53 53 51 49 47 44 42 41 39 37 35 33 31 30 29 29 29 28 28 31 31 31 32 33 35 38 38 40 42 44 40 43 44 43 43 45 46 46
28 31 35 40 43 47 49 48 48 48 46 44 42 41 40 39 38 36 36 34 33 34 34 34 35 37 37 36 37 36 38 39 40 40 40 40 43 45 44 45 46 48 46 46
32 30 32 36 39 42 45 47 46 47 46 45 44 43 41 41 40 40 39 38 38 40 40 40 40 41 41 41 41 40 39 40 40 39 37 39 43 45 45 47 48 47 46 52
32 30 30 32 34 36 38 40 42 43 43 44 44 44 43 42 42 42 43 42 43 44 43 43 42 42 43 42 42 43 39 38 38 42 39 43 43 43 45 46 47 48 52 52
34 30 29 29 30 31 32 34 36 37 40 40 41 42 42 42 42 42 42 41 40 39 39 38 39 41 40 42 42 38 33 35 39 39 41 43 43 44 45 46 49 51 51 52
33 33 31 29 28 28 29 29 30 31 33 34 35 36 36 36 36 36 35 34 34 34 33 35 36 33 36 39 38 31 28 34 39 41 42 42 42 43 46 47 49 49 50 52
35 33 31 31 31 30 29 27 27 28 29 29 30 30 31 29 29 30 30 31 31 32 34 34 34 33 37 38 37 26 33 36 37 39 41 41 43 46 47 47 48 49 51 53
38 36 35 34 32 32 30 29 30 31 32 33 34 33 29 29 30 31 31 31 32 33 35 36 35 38 38 39 30 36 38 39 40 42 43 45 47 47 46 45 46 49 52 53
38 38 37 38 37 36 34 34 33 33 33 33 32 30 29 29 29 31 32 33 34 36 36 36 37 40 40 36 37 40 42 43 44 45 44 45 46 47 49 51 53 55 55 55
36 37 39 41 37 37 37 37 36 36 36 36 35 32 31 30 29 30 32 34 37 39 38 39 40 41 39 39 40 42 43 43 43 44 43 42 45 48 49 55 54 52 53 57
42 45 42 37 37 38 37 38 37 36 36 35 34 32 31 30 30 31 34 38 37 39 38 37 36 34 35 38 39 39 40 42 42 44 47 49 50 50 50 52 55 59 61 62
34 34 36 39 38 37 40 42 42 42 41 38 33 30 32 34 35 37 37 36 38 40 40 41 41 40 39 40 41 43 43 44 46 49 50 50 51 50 51 54 57 58 59 60
33 34 35 35 36 38 42 40 40 36 35 34 31 32 34 37 38 39 39 40 41 42 44 46 47 46 47 48 49 50 52 54 56 57 57 55 56 58 59 58 57 56 59 61
35 32 32 36 41 42 41 39 37 37 36 36 35 35 35 35 37 39 41 44 44 47 48 49 49 51 53 54 56 56 58 57 58 58 57 57 59 56 55 57 57 56 56 55
35 37 37 39 39 39 39 39 39 39 39 39 40 41 42 42 43 43 45 47 50 53 54 54 54 55 57 58 59 58 55 55 56 55 53 53 52 52 53 55 56 56 62 65
39 41 41 41 41 42 43 44 45 45 45 46 46 46 47 47 49 50 52 53 54 52 50 50 50 49 49 50 51 52 52 49 49 48 47 49 51 55 56 59 63 64 64 63
44 43 45 44 44 45 47 48 49 48 47 47 48 49 48 51 51 51 49 48 45 41 40 41 44 44 43 43 43 41 42 44 48 53 57 59 59 61 61 61 60 61 63 64

GFSNW_500_spd_024.txt.gz
Wind_Speed
57 53 51 48 45 39 47 49 47 43 41 39 35 30 27 22 19 16 12 9 10 13 13 14 15 15 16 15 16 17 15 16 17 14 14 12 10 9 8 7 9 12 12 11
53 49 48 47 46 42 51 51 48 43 42 40 36 33 27 22 19 12 6 5 7 8 9 13 16 17 16 17 17 19 18 17 17 17 15 12 11 10 12 13 14 15 16 16
50 48 46 47 45 46 56 54 51 47 43 40 37 34 28 23 17 10 6 6 7 9 11 14 17 17 17 18 18 18 18 17 17 16 15 15 14 15 16 17 18 19 21 21
48 46 46 47 44 49 58 57 52 46 44 41 38 35 28 23 16 11 8 7 7 10 11 13 15 16 18 19 19 18 19 19 19 17 16 17 16 18 19 21 22 23 25 26
46 45 45 45 45 51 60 57 51 47 42 40 37 35 29 22 16 12 8 7 5 9 10 12 14 16 18 19 19 20 21 21 21 20 20 21 22 21 22 25 27 28 31 30
43 43 43 44 45 52 60 57 51 46 44 42 40 35 27 23 20 15 11 8 6 8 12 12 14 15 17 18 20 20 22 23 24 25 25 27 26 21 29 30 30 33 34 35
42 42 42 42 45 52 59 57 52 48 45 42 38 35 31 27 23 19 15 10 8 7 12 14 14 15 16 17 20 21 23 26 29 30 30 35 27 29 33 36 37 37 38 40
40 41 40 40 44 52 59 57 52 48 45 41 40 37 32 29 25 22 17 14 13 11 10 14 17 17 16 17 20 22 25 28 32 35 35 38 37 35 37 41 42 41 42 46
38 40 36 38 44 53 58 56 52 49 45 42 40 38 33 31 27 25 22 20 17 16 15 13 13 18 20 22 22 23 26 30 34 37 41 44 42 39 42 45 47 42 46 47
37 35 33 37 44 52 56 54 52 49 46 43 40 38 34 34 31 29 27 25 22 20 19 18 18 18 18 21 23 26 31 34 36 38 42 45 42 43 43 46 46 48 47 48
32 30 31 37 43 50 52 51 52 49 47 43 41 39 36 36 34 33 31 29 28 27 26 25 24 25 25 25 25 27 31 35 36 40 43 45 42 44 44 46 47 48 48 49
30 28 32 37 41 39 34 52 51 49 46 44 41 39 39 38 38 36 35 33 32 32 31 31 31 31 32 32 34 34 36 36 40 41 40 41 43 45 45 46 47 47 48 49
29 25 30 36 40 45 42 45 47 50 47 45 43 41 39 39 38 37 36 36 35 36 37 36 36 37 38 39 40 41 40 41 42 41 38 41 45 46 45 47 47 48 49 50
27 25 28 33 37 42 41 39 42 46 46 45 43 42 40 39 38 38 38 38 40 40 40 41 41 43 43 43 44 44 41 37 35 40 37 41 42 42 43 44 46 47 48 48
26 23 22 25 32 36 44 43 41 41 42 42 41 42 41 41 40 40 41 42 42 43 43 43 43 44 42 42 41 37 31 32 37 40 39 41 39 40 41 42 44 45 47 49
29 26 25 26 27 30 34 37 38 36 37 38 38 38 38 39 40 41 42 41 41 42 40 39 40 35 37 41 40 28 30 37 39 40 40 40 41 42 44 44 45 47 49 50
31 29 27 25 25 25 27 28 28 29 31 32 34 35 35 35 35 34 34 34 33 34 34 34 33 31 35 38 37 28 35 37 37 39 41 42 43 45 46 47 48 49 50 51
29 28 27 26 25 24 23 24 26 27 28 29 30 29 26 27 27 29 29 30 31 32 33 34 33 36 38 38 32 33 36 38 40 42 44 46 47 47 47 47 47 47 50 52
30 29 27 27 27 26 26 26 26 28 29 29 29 28 27 29 28 29 30 31 32 34 34 35 36 37 38 37 36 37 39 41 43 43 44 46 47 47 47 47 50 52 54 54
33 31 30 29 29 28 29 29 30 31 32 32 30 28 28 27 28 29 31 32 34 35 36 37 38 38 40 39 38 38 40 41 44 45 46 46 46 46 47 50 53 56 58 56
36 35 34 33 33 34 35 37 37 36 36 35 34 31 31 29 31 32 35 37 37 39 39 39 39 39 39 39 39 41 43 43 43 45 47 48 50 52 55 57 57 55 55 57
38 37 37 37 38 39 41 43 41 39 37 35 32 31 31 32 32 35 37 38 40 42 42 44 44 41 40 42 45 46 46 47 48 50 52 53 54 56 58 59 55 53 55 59
39 38 37 38 41 45 48 45 38 33 32 32 32 32 34 35 37 38 38 41 43 43 44 45 46 45 45 47 49 50 52 54 57 60 63 64 63 60 56 55 54 52 56 60
27 29 31 33 33 34 34 32 34 36 35 32 32 34 35 34 34 35 36 38 40 43 44 44 45 48 50 53 55 58 60 61 62 59 55 55 54 52 51 50 52 55 60 65
26 25 27 29 29 31 31 32 34 35 36 36 36 35 35 35 36 39 41 44 46 47 47 49 52 54 56 58 60 60 60 58 57 56 56 56 56 54 54 53 52 53 56 59
30 30 29 30 30 32 33 34 34 35 36 38 39 40 41 41 43 45 47 49 50 49 51 52 54 54 54 51 51 52 53 54 54 55 53 51 51 52 54 56 57 60 60 61
36 33 33 34 35 37 37 39 40 41 43 44 44 46 44 48 49 45 45 46 49 50 52 54 55 54 54 51 48 49 48 47 48 51 53 55 55 54 55 56 57 59 62 63

GFSNW_500_spd_027.txt.gz
Wind_Speed
81 79 73 65 58 52 47 44 38 44 49 47 41 35 30 25 22 20 18 15 14 15 17 18 18 17 18 18 19 18 18 18 17 18 17 15 11 11 9 9 9 9 10 9
80 75 68 64 59 54 50 45 44 50 52 47 41 35 30 26 22 19 14 13 13 14 15 17 17 18 18 18 17 18 17 16 16 16 15 14 13 14 12 13 13 14 15 17
75 71 64 60 58 57 54 49 53 56 53 46 41 37 31 26 25 19 14 9 9 9 11 13 16 17 16 16 16 16 16 15 15 16 17 18 16 17 17 17 16 19 18 21
72 65 60 57 55 57 55 55 59 57 53 47 42 38 32 28 23 16 10 6 6 9 10 11 13 16 17 17 17 16 17 16 17 19 20 20 19 19 18 19 22 23 23 25
68 62 58 54 53 55 55 59 62 58 50 46 42 40 35 27 22 16 9 5 4 6 10 10 11 12 13 16 17 17 18 18 20 22 22 22 22 21 20 23 26 28 31 28
60 56 52 50 52 53 55 61 62 56 51 47 44 39 35 27 22 16 11 6 5 5 10 10 10 10 11 12 15 17 18 19 21 23 25 26 27 20 25 29 30 34 35 36
55 55 50 50 50 50 52 61 60 55 52 48 42 39 34 28 22 18 13 7 6 7 7 10 10 10 11 12 14 16 18 20 24 25 27 31 26 27 30 35 37 39 40 42
54 50 47 46 46 48 52 58 59 55 52 47 43 39 35 30 25 21 16 12 9 8 7 7 10 11 11 12 14 16 19 22 25 27 30 32 33 34 35 39 41 43 45 48
48 45 44 42 44 46 50 57 58 54 50 47 43 38 34 31 28 23 18 16 14 11 10 10 7 7 10 14 16 18 21 23 26 28 32 34 33 35 38 42 43 43 46 47
43 41 39 43 41 44 46 55 56 52 48 46 43 39 34 30 28 25 22 20 19 16 15 14 13 13 12 13 14 17 21 25 27 29 33 35 36 37 39 41 46 47 47 47
39 37 39 39 38 42 46 50 52 51 48 45 41 38 35 32 30 28 25 24 22 22 21 20 20 19 19 19 19 21 24 27 28 31 34 38 39 40 42 44 46 47 46 46
40 39 38 34 37 42 42 48 49 52 49 45 41 38 35 33 33 30 29 29 26 25 26 27 27 27 26 25 27 28 29 31 35 35 35 37 42 44 45 45 44 44 45 46
36 35 37 34 36 37 40 42 44 48 47 46 42 40 37 36 34 32 31 29 29 30 31 31 31 32 32 33 34 35 35 38 38 38 35 39 42 44 43 44 43 44 44 45
34 33 31 31 32 32 30 41 44 42 45 44 42 41 39 37 35 34 33 32 32 33 33 34 35 36 38 38 40 41 36 37 36 37 37 40 40 39 40 41 42 43 44 45
29 29 27 30 37 37 42 33 38 38 41 42 40 40 39 38 37 37 36 35 35 35 35 37 38 39 41 42 43 37 28 35 39 39 38 38 38 39 40 41 42 44 46 47
28 27 27 34 43 38 35 37 39 38 36 36 38 39 37 36 37 37 37 37 37 37 39 40 42 40 41 43 39 29 31 33 36 39 41 40 41 41 42 44 46 47 48 49
26 29 26 27 34 36 36 32 28 29 30 30 32 34 35 35 35 35 35 37 37 39 39 40 38 36 37 37 36 31 31 35 38 40 41 41 43 45 45 47 48 49 49 49
32 29 28 27 28 30 31 32 33 32 29 30 30 31 30 31 30 32 33 34 35 35 35 34 32 35 36 37 35 35 35 36 38 40 42 44 46 47 46 46 47 47 49 50
26 26 25 24 23 23 24 25 26 28 28 28 26 25 24 27 25 27 28 30 31 33 34 34 35 36 37 35 34 36 38 39 40 40 40 41 42 44 46 47 48 51 54 55
27 26 26 26 25 23 22 23 24 24 25 24 23 22 23 24 24 26 28 30 32 33 32 33 35 37 37 37 38 38 39 40 41 41 43 45 47 48 49 51 53 54 56 58
24 23 22 23 24 25 24 26 26 26 27 25 23 22 23 23 25 27 31 33 34 37 38 38 39 39 38 39 39 40 40 39 40 42 45 46 48 51 54 57 58 59 60 58
28 26 26 26 26 25 29 30 29 29 29 27 26 27 28 29 30 32 33 34 37 39 38 40 42 40 39 39 39 39 40 43 46 48 50 53 55 56 58 59 61 60 58 53
35 27 25 29 31 34 36 34 31 30 30 30 30 31 32 32 31 32 33 38 41 39 40 41 38 36 37 40 42 44 47 50 53 56 60 63 63 62 59 56 54 51 48 50
35 32 31 33 35 33 30 30 32 33 34 35 37 36 34 33 33 35 35 37 37 39 37 37 39 42 46 49 51 53 56 59 61 62 61 60 58 57 57 56 56 55 53 53
32 32 34 34 29 27 28 27 25 26 26 26 26 28 29 30 33 33 34 35 38 38 40 43 46 48 51 53 54 55 57 58 59 59 59 58 56 55 53 51 49 49 51 53
24 27 28 25 24 24 23 24 26 27 27 28 28 28 30 32 33 35 36 37 40 42 45 47 48 49 51 53 54 53 51 50 51 52 51 50 49 51 51 53 50 48 49 54
28 28 28 28 28 27 26 27 28 29 30 32 33 34 35 38 39 39 40 41 43 45 46 46 44 41 40 41 42 44 46 47 48 49 53 56 51 49 48 48 47 52 56 61

GFSNW_500_spd_030.txt.gz
Wind_Speed
78 78 78 75 71 67 61 58 49 44 39 36 32 36 38 35 30 25 22 19 17 16 15 14 15 15 17 19 20 21 19 20 20 20 20 19 16 14 14 13 12 11 10 10
79 82 82 80 76 70 65 62 55 47 42 38 39 42 41 36 30 25 21 19 16 15 16 18 19 19 20 20 21 21 21 21 21 20 18 16 15 15 15 15 16 14 14 15
80 87 84 83 80 76 70 63 56 50 44 41 44 46 43 37 29 26 20 18 16 16 18 19 21 23 23 23 22 21 22 19 17 17 17 17 18 18 18 18 18 19 16 21
77 79 81 83 82 76 72 67 59 51 46 49 51 48 42 36 30 26 22 17 13 14 15 16 16 18 20 20 20 20 19 17 17 17 18 19 20 22 20 20 22 22 22 24
82 76 83 78 74 75 72 66 62 54 50 54 54 51 44 37 31 27 20 15 11 10 12 13 13 14 15 16 17 19 18 16 17 18 17 20 22 22 22 23 24 25 29 28
85 82 83 76 72 71 69 67 62 56 57 59 56 50 43 37 35 27 20 14 10 10 12 12 12 12 12 14 17 18 18 17 18 17 20 22 24 21 24 27 27 31 34 35
80 80 77 73 68 65 63 62 60 57 62 61 56 50 43 38 33 26 21 15 10 9 7 10 11 11 11 12 12 14 14 16 19 18 22 26 21 24 27 31 33 37 40 42
74 75 65 65 66 63 61 58 57 60 63 60 55 50 45 41 33 27 23 17 11 6 5 4 6 10 9 10 12 13 15 17 20 22 22 25 26 27 29 34 36 39 43 44
71 68 63 61 59 58 54 53 54 59 61 59 55 50 46 41 34 29 24 18 13 9 5 4 2 3 7 11 11 13 15 18 20 21 25 26 26 29 31 34 37 39 40 43
63 60 57 54 53 52 50 50 55 58 59 56 55 50 45 41 35 29 25 20 16 13 10 8 6 5 6 7 9 11 15 18 20 22 25 26 29 31 32 36 40 42 43 45
57 56 54 52 49 47 46 49 53 57 57 56 53 48 45 40 35 32 27 23 18 17 15 14 12 12 12 12 13 15 18 21 23 25 28 32 34 37 40 41 43 43 44 45
51 48 46 45 44 43 43 45 49 55 54 52 50 46 42 39 37 33 30 26 24 21 19 17 18 19 18 19 20 22 24 27 28 29 31 36 41 43 44 43 43 42 42 43
44 44 43 42 42 47 42 44 47 51 51 48 47 45 41 38 35 33 31 28 26 24 23 24 23 24 24 26 27 28 29 32 33 35 36 41 43 42 42 42 42 41 42 43
42 41 39 37 44 42 39 40 42 44 47 46 45 43 40 38 35 33 31 29 28 28 28 27 27 28 29 30 32 33 33 36 39 38 38 39 39 40 41 40 42 43 43 43
39 38 40 39 34 34 35 40 41 42 43 44 43 42 40 37 36 34 32 31 32 31 30 31 31 32 33 35 36 36 36 38 40 39 38 39 38 38 40 41 42 42 43 45
35 32 37 33 32 35 35 41 38 41 38 39 42 42 41 39 37 36 34 33 33 34 35 35 35 35 37 40 40 37 35 36 37 37 38 40 41 42 42 43 44 45 45 46
34 32 37 34 37 34 35 40 39 34 37 37 38 37 38 38 38 38 37 36 35 36 37 38 37 37 39 40 41 36 32 33 35 38 40 41 42 43 45 45 46 44 43 45
31 32 34 37 40 30 33 44 38 32 36 35 31 35 36 38 35 35 35 35 36 37 37 37 36 37 38 39 34 33 34 36 36 37 39 42 43 44 45 44 44 45 47 49
38 36 37 34 40 33 32 32 30 30 30 31 30 29 29 33 32 33 33 34 35 36 36 35 36 36 36 34 34 34 36 36 38 40 41 43 43 44 44 45 47 49 51 53
31 32 33 32 31 27 26 28 28 28 29 29 26 27 28 29 29 30 31 31 33 34 33 34 35 34 33 34 35 37 38 40 41 42 43 45 45 46 47 49 51 54 57 59
26 29 31 31 31 30 29 29 29 29 28 27 25 25 24 24 25 26 29 31 32 34 34 34 34 34 34 34 35 37 40 42 44 44 43 44 46 48 51 54 56 58 59 61
24 28 24 24 25 26 26 24 23 21 20 17 18 20 21 23 25 28 30 31 32 35 33 33 34 32 35 37 38 39 39 39 40 41 44 47 49 52 55 58 61 62 60 56
21 20 20 22 23 24 23 22 20 19 18 19 21 24 25 26 28 31 32 34 36 33 34 37 35 34 35 36 37 39 41 43 46 48 49 52 55 58 58 54 52 51 51 52
20 22 26 31 32 29 24 22 21 23 24 26 27 29 31 31 32 34 33 34 36 39 39 35 34 36 38 40 41 44 47 49 51 54 57 56 50 48 50 52 52 51 51 54
35 35 35 34 30 25 23 23 26 29 30 31 32 32 29 26 28 27 31 33 35 34 34 36 38 40 42 44 46 48 51 52 50 45 44 46 48 50 52 52 55 55 53 51
33 34 32 32 33 31 31 32 30 28 27 26 25 25 26 27 28 29 31 32 34 36 38 41 42 44 46 47 48 46 41 39 41 43 46 49 51 53 54 54 52 51 52 52
25 28 28 26 26 26 25 25 24 24 25 26 28 29 29 30 31 31 33 35 37 40 42 44 45 46 44 40 36 37 40 42 45 48 51 52 53 52 52 52 51 52 55 56

GFSNW_500_spd_036.txt.gz
Wind_Speed
91 85 77 72 67 63 62 55 51 55 55 54 48 48 36 29 32 28 28 24 19 19 19 15 14 13 14 18 20 23 19 21 26 13 20 14 14 13 13 16 15 18 14 19
93 90 84 77 70 67 61 58 58 55 57 52 48 47 37 34 35 29 30 26 24 22 21 21 19 19 22 17 19 22 24 21 19 14 15 12 15 17 18 20 18 16 16 15
94 91 88 83 76 70 65 64 66 65 54 53 53 47 40 39 35 33 33 28 27 24 23 22 22 24 22 16 21 19 21 19 20 19 10 17 15 19 20 21 20 15 18 17
90 92 89 87 84 78 74 70 65 64 58 55 55 50 43 41 38 38 37 33 30 26 25 24 22 23 20 21 21 22 23 21 22 22 18 25 25 20 19 21 19 21 18 21
96 88 94 88 89 87 83 65 64 64 61 58 51 50 45 43 40 40 39 35 31 26 26 25 24 24 21 22 24 26 26 25 26 23 22 24 24 21 21 21 21 22 23 26
102 103 93 94 94 94 84 67 69 68 67 62 55 49 49 44 40 40 36 31 30 28 28 28 24 19 14 22 20 22 23 23 24 22 23 22 22 19 20 20 23 24 27 28
92 107 104 98 98 96 79 71 71 69 65 65 53 48 47 45 42 35 42 36 31 35 28 23 22 21 23 20 20 20 21 22 23 22 23 23 19 18 19 21 22 27 31 34
78 103 110 105 97 94 86 83 72 61 67 58 55 53 49 45 43 31 42 42 41 31 26 23 20 20 20 20 19 19 20 21 22 23 23 20 19 21 19 21 26 29 30 31
67 97 109 103 95 94 88 83 70 53 54 56 51 52 54 48 53 37 49 43 37 31 25 20 19 18 18 22 18 18 18 18 20 19 20 21 23 20 21 23 28 28 28 32
59 95 102 97 91 88 83 76 59 46 40 51 56 51 56 53 52 43 47 43 38 31 23 21 17 15 16 17 17 17 17 17 18 18 19 18 22 17 21 23 26 29 32 35
65 93 97 83 91 84 77 68 55 56 45 46 52 54 57 56 60 34 50 47 40 32 26 21 18 15 14 12 13 14 14 14 14 14 15 18 19 22 23 26 30 33 36 39
75 97 83 78 85 79 69 50 50 46 37 53 61 60 59 61 64 58 50 43 36 32 30 26 21 18 16 15 14 14 14 14 15 16 20 21 24 26 29 31 33 37 40 42
92 101 76 78 70 69 69 50 43 28 51 59 64 58 57 61 61 53 51 47 41 35 33 27 25 23 19 19 18 18 19 18 20 20 25 29 29 31 33 34 39 41 43 45
80 68 74 74 75 56 64 68 62 28 30 44 61 57 55 55 56 49 47 44 38 36 35 32 29 25 24 22 23 23 24 23 26 26 29 32 36 38 38 41 42 44 46 46
63 64 64 76 79 43 60 62 56 61 52 41 48 48 51 56 55 53 50 45 41 38 36 35 31 28 28 29 29 29 29 30 31 33 34 35 40 41 43 45 45 45 46 46
65 69 58 68 74 58 57 43 40 49 50 49 50 47 49 53 54 52 51 46 42 42 38 36 33 32 33 34 33 34 34 35 37 40 40 42 42 43 42 46 46 46 46 45
55 55 56 56 54 45 40 37 42 43 40 43 44 44 49 50 52 50 50 48 46 42 39 37 37 37 37 37 38 38 37 40 39 41 44 45 46 45 45 46 45 45 46 47
53 56 56 51 45 40 38 36 37 36 35 37 41 44 46 49 47 46 45 45 44 40 39 40 40 40 39 41 41 41 41 42 43 43 44 47 48 47 46 45 46 47 48 49
49 50 51 45 41 35 29 29 34 36 34 35 41 42 44 45 44 42 42 42 41 41 42 42 42 42 44 43 43 43 44 44 45 45 45 46 45 45 46 46 48 50 50 48
47 47 49 46 38 35 34 30 34 35 40 34 36 38 40 41 41 41 42 42 43 45 45 44 45 45 44 44 43 43 43 43 44 45 45 46 46 46 47 49 49 48 49 51
47 46 48 39 38 34 32 41 38 37 47 35 32 34 36 37 37 39 41 42 44 45 44 44 44 44 43 42 41 41 42 42 45 46 47 46 47 49 49 48 49 50 53 55
41 41 44 40 35 31 36 45 35 30 37 33 31 31 32 33 35 38 39 40 42 45 46 47 48 44 40 39 39 40 43 45 46 47 46 47 49 48 48 49 51 53 56 58
35 35 32 33 31 28 32 41 27 31 30 31 27 26 28 32 35 37 37 40 42 43 45 46 44 39 37 38 40 43 45 46 45 45 47 47 47 48 50 52 54 56 52 50
30 29 28 31 32 26 32 33 26 27 28 28 28 27 28 30 32 35 37 40 41 42 43 41 36 38 40 42 43 43 44 45 46 46 45 46 48 51 53 55 53 49 49 52
25 26 26 28 24 24 24 25 25 22 21 22 23 26 28 27 30 30 32 35 37 39 38 38 39 42 44 44 43 42 42 42 42 45 47 50 53 54 54 50 48 49 53 55
23 21 19 24 22 17 19 22 22 24 25 25 24 25 26 27 31 33 36 37 39 39 42 43 40 38 38 39 38 39 42 45 48 51 52 54 54 49 46 48 51 54 57 60
25 28 27 26 26 25 24 23 24 25 27 28 28 32 33 34 35 36 39 41 40 40 37 36 36 37 39 41 43 45 48 51 53 54 54 49 45 47 50 53 56 59 60 62

GFSNW_500_spd_039.txt.gz
Wind_Speed
93 88 83 77 70 68 64 61 57 54 54 52 50 43 41 33 31 33 30 27 23 23 16 15 12 15 17 10 17 23 18 20 18 6 9 7 13 12 14 19 15 18 12 14
98 92 87 82 76 72 67 61 56 60 58 52 48 47 42 35 36 37 35 26 25 27 22 27 18 21 18 21 21 18 18 21 20 15 12 15 16 17 19 19 18 15 14 12
94 96 91 86 80 76 71 68 64 62 58 50 49 50 43 39 38 42 35 27 29 31 28 28 19 25 22 20 19 19 19 19 17 18 18 20 17 13 18 22 23 16 15 12
91 93 95 90 85 80 78 75 64 57 56 57 55 56 48 42 44 43 36 31 34 33 30 33 29 26 24 21 17 22 24 22 21 22 21 26 21 22 23 18 21 19 13 17
90 96 96 94 89 86 85 76 63 54 54 54 59 59 51 46 46 43 38 34 36 35 33 29 25 24 24 21 21 24 24 24 25 24 24 26 25 23 22 20 18 18 16 18
64 93 99 95 95 95 89 75 64 56 56 57 59 58 46 43 45 40 39 32 34 38 35 31 28 28 26 23 25 26 26 27 29 27 26 26 27 16 24 20 20 21 23 25
51 77 97 100 100 98 85 74 69 62 60 58 58 53 41 45 46 44 39 34 37 42 38 30 28 27 25 22 28 22 21 25 26 24 25 26 18 21 19 20 22 24 25 27
41 61 92 103 102 95 85 79 73 67 62 59 59 53 41 45 47 46 41 40 42 43 36 32 29 28 26 24 28 24 23 23 23 24 24 22 22 19 16 21 23 24 24 25
41 49 78 100 102 94 88 84 76 71 59 58 57 54 46 47 49 46 43 41 38 40 36 36 33 28 23 25 25 24 24 22 23 23 23 22 22 21 18 23 26 23 24 26
38 47 68 94 100 94 91 85 79 71 54 57 46 55 49 45 48 46 43 42 45 44 38 34 31 27 24 26 22 23 24 22 21 20 20 20 18 18 22 24 24 21 24 26
30 49 61 92 98 95 88 84 79 73 50 37 43 46 48 51 49 46 47 48 51 44 40 38 31 26 23 22 19 22 21 20 18 17 18 19 17 18 19 20 20 24 28 31
38 37 60 88 98 90 83 76 71 65 48 46 39 41 45 41 50 46 42 41 42 42 39 36 31 26 23 20 17 19 17 16 16 16 15 17 18 19 19 20 24 29 32 34
39 41 64 86 94 85 81 74 59 52 36 45 41 42 51 56 53 49 48 45 55 45 38 37 32 29 24 21 18 18 16 16 17 19 19 21 21 22 24 25 30 33 37 40
41 50 70 90 85 78 76 66 51 44 38 54 37 48 50 50 51 52 48 42 43 43 41 38 36 31 28 24 24 21 19 20 20 22 24 25 28 29 31 34 35 39 42 42
57 65 82 87 74 73 72 58 47 47 43 36 49 47 56 52 52 51 55 37 35 40 44 43 39 35 30 27 28 26 25 24 25 27 28 30 33 36 38 41 43 45 45 45
74 82 87 81 68 70 62 53 49 20 40 41 44 69 48 54 49 47 52 59 55 45 46 46 42 36 32 32 31 30 30 30 31 33 34 35 37 39 42 45 46 46 46 46
87 78 76 79 70 63 47 34 43 46 44 35 41 53 49 50 45 46 53 52 50 52 52 47 43 39 36 36 35 34 34 35 36 38 39 40 41 43 46 47 48 48 48 47
80 82 68 62 66 40 24 37 28 23 22 25 27 29 35 42 41 39 45 49 52 47 47 46 43 40 39 40 38 37 37 38 39 41 43 45 46 47 48 48 47 47 47 48
72 72 66 34 27 27 47 55 39 30 23 21 21 28 35 38 40 39 42 46 50 47 46 47 45 43 43 42 41 41 42 42 43 45 46 48 50 50 49 48 48 48 50 50
58 54 34 32 31 30 32 34 29 25 23 27 28 29 33 36 37 37 39 42 45 45 44 45 47 46 45 45 44 45 46 45 46 47 48 49 50 49 48 48 50 50 51 53
53 45 36 37 33 29 25 24 25 30 30 29 31 29 31 33 34 35 38 40 42 42 43 45 46 45 44 45 46 47 47 46 47 49 49 49 49 49 49 51 51 51 53 53
44 45 41 37 29 29 32 28 27 28 36 35 28 21 27 31 33 35 38 40 40 43 43 43 45 43 43 44 45 45 46 47 48 48 49 49 49 50 51 50 50 51 51 52
34 38 39 31 30 32 32 29 29 30 33 22 29 23 23 27 30 34 35 38 41 41 43 44 43 42 42 42 41 43 44 46 46 47 49 51 50 49 50 50 49 50 53 55
40 38 42 39 30 30 29 28 27 36 22 22 33 32 29 29 32 34 36 38 38 39 40 39 38 39 39 39 40 41 43 45 48 50 50 50 49 46 45 48 51 54 56 57
37 37 43 39 30 25 21 18 20 32 22 22 27 27 27 28 29 32 33 36 39 37 36 35 35 36 38 40 42 45 47 48 47 44 42 41 43 47 51 53 55 57 56 53
23 23 24 25 26 26 20 18 22 23 24 25 26 26 27 29 31 29 29 31 32 30 32 36 39 40 41 44 47 47 44 41 38 38 42 47 50 53 55 56 56 53 50 51
15 16 19 19 21 20 15 15 15 18 21 21 22 24 25 25 27 27 29 31 33 36 37 40 43 45 43 40 39 39 39 40 43 47 50 53 56 56 54 51 50 51 54 57

GFSNW_500_spd_042.txt.gz
Wind_Speed
93 90 85 80 77 73 70 67 64 61 60 60 50 44 42 42 32 35 34 33 28 24 18 20 20 22 16 16 20 26 25 24 21 16 14 20 29 17 16 17 18 21 18 16
89 94 90 87 82 79 75 70 66 68 64 61 52 47 45 41 37 39 37 34 31 24 21 23 20 26 17 20 17 16 13 16 18 17 18 16 16 20 16 21 18 19 21 13
83 90 97 92 88 84 80 77 75 71 66 59 53 50 44 41 38 41 40 37 32 26 24 26 24 27 21 23 20 19 16 19 18 15 19 22 21 19 18 23 25 22 21 17
50 90 98 97 93 89 86 83 77 69 61 63 58 56 51 47 46 44 43 41 35 29 29 29 24 27 26 26 25 26 23 20 18 16 19 22 23 21 23 22 21 22 20 22
37 58 99 101 96 93 92 86 77 66 58 57 58 56 52 51 47 47 47 40 34 32 33 30 29 29 25 26 26 24 20 22 23 22 24 26 28 25 23 27 27 22 19 22
39 42 78 102 101 101 95 88 79 69 61 58 59 55 54 51 46 49 47 40 37 34 31 32 31 30 29 28 28 25 24 26 26 27 27 29 34 27 25 26 31 27 26 25
34 36 54 96 100 103 96 88 80 72 65 58 52 57 57 50 48 47 46 40 37 31 35 36 33 34 33 32 29 28 27 30 31 31 31 36 29 29 31 27 26 28 26 25
33 36 42 66 90 99 96 88 82 73 67 59 56 58 62 50 46 49 46 42 36 37 37 41 39 39 37 34 31 26 25 30 27 29 29 30 27 27 26 25 26 25 23 23
37 35 39 48 72 95 94 88 82 75 70 59 59 60 57 50 53 51 49 45 42 44 38 40 40 41 39 35 31 27 25 29 31 27 25 26 22 25 24 25 26 22 21 22
38 37 36 40 59 86 94 89 84 77 66 64 61 60 57 48 52 53 53 50 47 44 42 40 42 42 39 35 30 28 29 28 29 26 26 24 19 23 24 25 20 20 22 25
39 40 33 34 53 81 94 90 83 77 67 63 64 63 51 54 48 54 52 48 47 45 44 42 43 40 34 35 30 26 28 28 26 24 25 21 19 20 20 18 20 20 23 26
38 40 37 37 55 75 91 90 85 78 70 43 48 56 53 52 47 51 51 44 44 43 40 41 42 41 32 32 29 28 28 24 24 23 22 19 17 15 14 15 19 24 26 29
31 33 34 43 61 73 89 90 83 77 67 29 34 34 38 52 50 51 47 40 43 42 43 41 42 40 34 33 28 27 26 22 20 21 18 16 15 16 17 20 24 27 29 32
25 36 37 48 64 79 88 85 82 76 73 39 25 31 34 44 50 49 45 44 42 45 44 45 43 41 37 33 31 29 25 23 22 21 19 20 20 22 24 26 28 31 34 37
30 39 43 58 70 84 87 71 51 39 58 45 32 30 34 41 40 42 44 44 45 48 46 45 43 40 37 35 35 32 29 25 24 24 25 25 27 28 30 33 36 38 40 42
28 43 59 67 77 84 88 78 65 46 57 39 28 30 34 37 35 34 41 41 41 44 47 33 46 45 42 40 38 33 32 30 27 27 29 30 32 34 36 38 40 43 45 46
49 64 68 71 78 77 64 45 41 47 50 37 28 39 36 42 42 35 45 46 45 42 43 44 48 49 46 42 39 35 35 33 31 32 33 34 36 39 40 42 45 46 47 48
72 72 71 77 78 68 54 46 39 43 47 51 27 28 40 41 44 41 42 35 50 42 40 39 41 42 42 44 42 39 36 34 35 35 37 39 40 43 44 46 47 48 49 51
77 75 77 65 60 57 52 47 43 23 28 31 42 34 27 41 46 43 42 40 35 47 48 50 49 47 49 49 46 41 39 39 39 40 41 43 45 46 48 48 49 51 52 52
80 74 73 62 55 37 42 35 39 40 22 19 24 32 52 48 52 43 38 43 40 38 43 48 48 46 42 43 45 44 42 42 43 45 46 47 48 49 50 50 53 53 52 53
72 74 69 44 33 35 34 28 32 40 34 13 11 20 25 33 34 34 35 38 41 41 39 43 46 48 44 42 43 43 44 45 45 46 47 49 49 50 53 54 52 52 53 54
43 34 31 30 27 25 16 19 18 23 20 21 22 23 26 27 30 34 37 39 38 37 36 39 41 40 39 41 42 43 45 46 47 47 48 49 51 52 52 51 52 53 54 53
41 32 36 35 24 20 18 17 17 18 17 15 17 20 21 25 28 30 31 36 38 38 40 40 39 39 37 40 41 42 43 44 46 47 49 50 50 49 50 52 54 53 50 48
22 24 23 22 23 19 17 16 12 11 12 13 16 19 24 21 21 26 29 32 34 36 38 36 34 35 37 39 40 40 41 43 45 47 47 48 49 51 53 52 49 47 48 51
28 23 23 24 19 12 9 10 13 14 17 17 19 25 21 26 26 30 29 31 34 35 34 34 37 37 37 36 37 38 40 42 44 46 48 50 52 51 47 45 47 50 54 59
29 25 23 23 22 22 15 13 16 14 17 22 22 21 22 25 32 30 31 31 32 33 33 33 34 33 34 36 38 41 43 45 47 51 50 46 44 41 45 50 53 57 60 63
27 26 26 23 25 28 24 22 16 13 13 15 19 19 21 27 31 32 32 31 29 27 27 29 30 35 38 40 42 45 48 47 45 43 43 45 47 49 53 55 59 63 61 56

GFSNW_500_spd_045.txt.gz
Wind_Speed
83 94 91 89 86 82 79 74 71 65 65 65 55 45 44 46 40 44 46 44 37 27 24 25 21 19 18 19 24 28 26 27 28 22 22 24 20 30 31 26 23 24 22 16
72 86 94 92 92 88 83 78 75 73 70 68 55 50 49 47 44 47 43 45 41 34 29 29 22 21 21 22 22 24 24 27 26 20 22 22 16 18 23 25 23 22 21 14
43 78 92 96 95 92 88 85 84 80 78 65 60 55 52 47 46 45 48 47 44 35 31 28 25 23 23 24 24 20 20 20 22 21 17 21 19 18 23 26 27 25 23 19
43 42 86 98 97 95 93 92 88 78 78 69 61 60 55 51 52 54 54 47 46 37 34 30 28 24 25 24 22 25 25 20 19 18 18 23 24 24 26 25 25 24 18 20
42 44 47 93 101 99 99 95 87 81 73 68 66 64 58 54 49 54 54 51 46 40 37 30 28 26 24 27 25 25 23 23 22 21 19 22 26 28 29 26 27 28 29 28
44 42 41 57 95 104 101 96 89 84 77 73 71 61 57 55 48 49 46 45 45 41 34 31 33 30 26 26 24 29 25 25 25 26 26 26 31 27 28 28 29 31 33 31
46 43 38 40 69 94 101 96 90 86 81 75 64 62 61 59 49 51 46 49 50 43 39 36 36 32 32 32 32 29 28 29 30 30 28 32 26 29 31 34 33 31 35 35
49 45 41 35 38 75 99 98 94 88 82 74 68 64 63 62 52 53 50 51 50 44 42 41 40 39 41 37 32 31 31 29 31 32 32 30 28 28 30 31 32 32 30 30
49 45 40 36 39 49 79 98 93 88 81 74 68 66 64 63 56 58 53 56 57 49 50 48 46 40 42 39 36 34 30 30 34 33 33 30 25 28 28 28 31 27 27 27
46 42 38 36 36 41 66 90 93 87 82 76 70 67 66 67 58 59 53 60 58 53 54 49 44 42 39 43 35 32 30 31 34 34 34 32 28 27 30 30 20 22 23 25
42 41 36 30 30 37 60 78 91 88 81 77 73 69 67 64 58 58 56 61 60 58 55 47 46 44 39 38 36 35 32 33 34 32 34 31 26 26 25 19 20 20 24 26
43 38 34 27 26 36 57 70 86 85 80 79 74 67 63 60 53 55 57 60 58 56 50 48 46 44 40 34 35 33 33 33 35 33 30 28 24 21 20 20 20 21 23 24
43 38 33 29 30 40 58 67 81 85 80 75 72 67 67 60 50 52 62 60 56 52 49 48 47 43 38 34 32 29 33 34 35 30 25 22 22 19 19 19 21 22 23 24
35 35 33 33 31 41 57 67 79 81 77 73 63 64 45 45 51 53 59 61 57 53 51 50 47 41 36 36 33 34 33 32 31 28 22 19 19 20 22 22 23 25 27 29
35 33 30 31 33 41 60 72 75 77 75 71 56 49 35 36 48 57 53 53 54 55 55 50 48 42 39 40 36 41 36 31 27 26 26 25 24 24 24 26 27 30 32 33
27 29 31 36 43 52 74 78 80 78 73 51 44 45 35 40 47 49 53 48 51 49 48 46 43 39 42 40 37 38 39 34 30 29 31 31 28 29 30 32 33 35 36 38
28 33 37 43 54 64 75 77 77 71 71 59 39 41 35 38 47 49 50 46 45 49 43 48 45 43 45 38 49 40 40 38 34 33 33 36 34 34 35 37 38 38 40 43
33 44 52 54 45 64 72 71 68 69 71 46 37 37 33 34 41 47 47 47 48 49 47 46 47 44 44 42 39 46 43 40 36 36 37 38 38 38 39 40 41 43 45 47
31 44 56 61 64 64 57 48 45 44 47 58 35 26 22 27 33 44 46 48 48 50 47 43 40 44 42 45 45 44 42 40 40 41 41 41 40 41 42 43 45 47 48 49
53 59 65 64 64 66 53 35 29 18 26 48 38 26 15 17 37 43 45 46 53 53 46 55 45 42 39 38 37 34 37 41 45 47 45 44 44 44 46 48 49 49 49 50
73 75 58 68 62 50 47 31 28 21 26 36 32 33 27 23 22 34 41 34 51 40 33 40 37 38 35 36 40 46 41 38 41 44 45 47 47 48 48 49 51 50 51 52
62 63 54 50 45 34 37 29 27 25 25 23 22 22 26 31 33 38 37 45 35 31 35 41 40 37 41 42 46 49 48 45 44 44 45 46 47 48 49 49 50 50 51 52
52 44 43 32 26 25 30 24 26 22 17 11 17 18 20 23 28 34 35 36 41 40 37 39 38 34 33 35 38 39 39 40 42 43 45 46 47 48 48 48 49 51 52 54
29 24 23 24 20 19 16 12 12 9 10 10 11 17 21 22 25 29 31 33 35 34 34 34 32 30 31 33 35 38 40 42 43 45 46 47 47 47 47 48 51 53 55 55
15 19 19 16 10 9 8 8 7 5 6 10 9 8 14 20 23 24 26 27 29 28 27 28 29 32 32 33 35 39 41 42 43 43 43 43 44 47 49 52 54 54 51 52
5 10 13 11 9 8 8 10 2 2 6 7 11 13 15 15 19 20 23 23 22 25 26 27 30 32 35 37 40 44 43 39 38 41 44 45 46 49 49 49 49 49 51 53
13 15 13 11 14 16 16 15 14 9 8 7 6 16 17 16 21 26 27 27 30 30 31 33 34 36 37 35 32 32 39 42 45 46 48 47 45 46 47 48 50 53 56 59

GFSNW_500_spd_048.txt.gz
Wind_Speed
50 58 84 90 91 89 86 81 78 71 67 69 62 51 49 46 41 42 41 41 40 37 36 34 31 25 19 19 17 17 18 24 27 23 24 27 27 27 27 26 26 25 27 20
54 47 67 88 94 92 89 85 80 78 75 74 61 55 51 47 43 45 44 43 44 40 41 41 32 25 21 22 22 20 20 22 25 26 28 27 30 27 21 22 30 30 28 11
60 54 48 76 92 94 91 90 89 85 83 68 64 59 54 49 43 48 48 45 45 42 39 38 32 26 25 24 24 24 23 24 25 26 22 24 28 28 29 24 22 21 19 17
60 57 51 52 82 95 95 96 94 86 85 75 64 63 58 54 47 48 48 47 46 44 41 41 34 28 23 26 28 27 26 23 21 22 26 29 30 30 28 28 23 23 17 23
60 57 50 43 57 85 96 97 93 88 78 72 71 69 60 55 52 52 51 50 45 44 41 39 34 29 25 26 28 28 29 24 23 24 24 25 26 28 27 30 27 25 27 24
59 57 52 45 46 65 97 97 93 89 81 81 77 65 62 58 54 53 51 46 40 47 39 37 36 34 32 29 32 28 28 25 25 26 26 25 26 23 24 26 26 28 30 25
56 57 51 46 43 43 77 96 94 91 89 83 72 69 66 62 55 53 47 47 47 44 39 43 41 38 35 32 30 33 29 28 27 28 27 29 21 21 25 29 30 32 32 31
55 54 48 44 40 38 45 71 92 91 89 81 77 75 71 68 61 56 51 46 50 49 49 45 44 43 41 39 36 31 32 29 31 31 28 27 23 20 26 28 27 29 31 31
52 52 45 42 39 36 37 49 83 91 89 86 80 77 73 69 63 60 53 49 47 46 46 52 50 47 48 44 38 32 34 33 35 31 29 28 24 24 27 30 29 25 27 27
52 49 42 39 37 33 29 44 68 86 89 85 83 78 74 72 63 60 55 50 50 51 52 53 52 50 49 47 40 35 33 33 34 29 30 30 29 29 30 33 22 27 26 26
49 45 40 38 38 34 28 35 61 77 87 84 84 81 77 72 66 59 58 56 58 58 56 56 59 56 52 47 41 38 34 33 31 30 31 30 28 31 31 28 29 27 27 27
46 41 38 40 37 32 28 30 58 70 81 87 84 81 77 71 67 62 60 56 58 59 58 57 58 57 52 44 43 35 35 32 33 34 28 30 29 29 30 29 27 25 24 24
42 40 42 39 33 25 25 34 49 62 78 83 81 80 77 73 68 62 61 57 60 61 57 55 54 48 48 43 44 38 29 31 35 31 29 29 28 29 28 28 27 25 23 21
35 38 37 33 28 22 27 43 52 53 69 80 80 77 73 69 66 61 59 57 59 60 59 52 53 44 46 47 44 39 33 31 33 32 27 25 25 26 27 26 24 22 22 22
32 33 33 30 25 17 26 52 33 52 61 73 74 72 67 62 56 54 53 55 55 59 56 50 50 52 50 51 49 40 35 31 32 29 25 29 27 27 24 24 26 25 25 26
30 32 30 26 23 20 30 59 57 57 52 67 68 64 55 39 36 45 49 52 53 57 58 48 49 49 51 51 49 40 36 35 32 34 30 30 31 30 29 27 28 30 31 32
25 27 25 24 24 23 34 50 49 40 59 59 65 60 52 42 26 31 49 49 49 51 56 51 47 46 52 43 45 42 41 38 37 40 37 34 33 33 35 33 33 34 36 38
25 25 26 25 27 30 36 44 45 51 47 47 57 56 47 30 33 30 39 46 46 49 45 52 51 51 54 51 45 41 40 41 37 38 38 37 38 40 38 38 37 38 41 42
29 30 30 31 30 29 42 38 41 51 49 54 54 49 39 34 36 26 38 37 41 46 49 44 47 50 50 43 39 42 44 42 38 41 36 42 42 42 42 42 43 44 46 47
28 32 33 29 33 42 52 48 45 45 51 50 47 45 43 38 40 26 32 42 40 43 47 47 48 45 46 43 44 46 42 41 45 42 41 41 41 42 44 46 47 49 51 51
30 34 36 53 55 41 31 22 33 50 52 46 47 43 34 34 24 26 32 41 45 45 47 47 48 46 48 50 46 42 38 38 39 42 40 39 41 43 43 45 49 51 51 50
40 49 58 46 39 38 33 25 23 24 43 43 25 23 25 17 10 13 21 42 46 45 47 47 40 30 52 45 55 42 42 40 38 39 41 43 45 44 45 48 50 51 51 52
60 54 56 47 39 32 18 16 23 20 20 23 21 19 19 18 18 20 29 29 43 38 35 50 55 53 40 37 34 36 39 39 42 43 45 46 44 43 44 47 51 53 55 55
43 41 33 27 17 13 11 10 10 16 20 25 25 21 20 20 26 31 27 25 32 43 36 26 29 24 27 32 32 33 32 35 37 39 40 42 44 46 49 50 53 53 50 50
26 23 12 13 14 12 13 17 15 13 14 16 17 18 18 16 17 17 22 23 25 24 27 26 25 25 27 31 32 32 33 35 37 37 39 42 44 46 47 46 46 48 51 53
23 24 22 18 17 14 12 13 14 11 9 8 9 11 13 16 19 20 23 24 23 20 21 20 19 22 24 26 29 32 34 35 37 40 43 44 41 39 41 45 50 53 53 52
9 11 11 9 6 5 7 6 5 2 1 3 9 14 18 19 20 18 20 24 23 22 24 26 25 25 27 29 32 33 35 36 36 35 34 37 42 45 51 56 57 53 53 54

GFSNW_500_spd_051.txt.gz
Wind_Speed
69 62 60 56 48 83 84 86 86 78 77 74 71 65 56 52 51 47 43 41 40 36 36 35 32 30 23 21 20 17 19 20 21 22 23 22 24 25 26 27 24 23 23 18
71 65 60 61 52 64 86 86 85 85 82 80 72 65 60 56 51 48 45 45 41 39 38 40 38 32 25 25 23 21 19 18 19 25 27 24 23 28 30 28 26 23 22 19
68 67 61 60 57 51 73 88 89 92 85 77 70 69 64 59 54 50 50 47 44 43 40 39 37 30 25 25 25 24 24 20 20 19 19 22 24 23 27 31 31 26 19 15
67 66 61 61 60 53 59 83 91 91 88 83 71 70 66 63 55 50 50 48 47 44 41 41 37 31 28 26 27 28 27 21 20 20 23 26 27 30 30 31 31 32 28 26
68 66 63 62 61 55 52 68 86 89 84 74 78 75 67 64 58 52 49 48 47 45 42 40 39 35 31 31 31 32 30 25 23 22 22 24 26 27 29 30 29 31 30 24
67 67 63 63 61 56 48 56 72 85 83 83 81 72 68 65 60 54 50 47 43 47 42 41 40 41 37 34 33 33 31 28 25 23 23 25 26 22 19 22 23 23 23 21
67 65 62 60 61 52 43 35 56 84 87 86 77 73 70 67 61 54 51 46 42 41 37 43 43 43 40 39 36 33 32 29 27 28 26 28 13 17 20 18 21 24 24 25
63 63 59 58 56 51 44 35 40 69 85 83 78 77 73 72 66 58 53 47 44 43 39 44 46 40 40 41 38 36 31 27 33 35 31 27 20 16 18 22 15 23 23 28
63 60 56 53 51 48 36 30 31 49 72 82 81 80 77 74 68 62 57 52 49 50 53 47 49 49 45 44 42 38 34 29 32 34 36 29 16 18 20 22 11 19 26 31
59 58 55 51 48 42 36 32 29 45 66 81 83 83 78 77 72 63 61 55 50 49 48 55 49 52 51 45 44 42 36 33 34 33 35 29 21 21 22 23 22 22 26 29
55 53 51 47 44 39 35 31 30 37 64 76 83 83 82 79 75 67 61 57 55 51 52 52 56 51 49 49 40 40 36 36 34 33 35 34 21 25 26 22 22 24 25 27
49 49 48 48 42 38 31 28 27 34 56 71 78 86 82 79 77 70 65 54 52 52 51 53 51 54 53 54 45 43 41 33 33 34 32 30 26 26 25 24 24 25 25 26
46 45 45 41 37 29 25 24 23 33 52 65 78 79 80 80 77 72 66 58 55 56 54 54 51 51 44 49 50 42 37 37 35 34 29 29 28 28 28 27 24 25 26 24
43 41 39 33 26 22 23 21 23 32 52 60 55 62 68 73 75 71 64 58 56 56 55 55 55 53 48 43 44 45 41 42 38 32 28 28 28 29 31 26 25 24 24 21
40 35 29 24 24 21 20 21 20 38 53 55 47 60 48 53 65 70 66 57 57 55 57 57 58 56 49 43 43 42 41 41 36 28 24 28 28 30 30 25 25 23 23 25
31 27 25 27 23 22 17 17 18 27 39 31 51 58 60 48 39 37 57 60 57 54 54 56 56 57 50 47 44 41 41 42 38 37 34 31 34 36 33 28 28 26 25 27
26 27 27 26 23 15 15 22 36 32 29 24 41 57 50 51 43 41 38 40 54 53 54 57 56 50 47 38 36 41 44 43 42 42 40 33 31 35 39 35 31 30 29 31
24 26 26 24 20 17 22 33 37 30 35 26 31 33 51 52 37 34 39 40 41 48 52 52 53 47 45 47 39 38 43 45 46 44 44 34 36 34 40 44 38 34 34 35
24 25 22 19 17 13 31 43 45 30 27 37 44 39 36 40 30 29 32 24 26 41 46 45 46 45 44 44 44 38 40 44 37 37 38 37 36 39 42 47 46 44 43 42
21 19 18 17 15 14 24 43 35 41 35 40 44 42 39 42 34 26 24 20 29 31 39 41 37 36 40 38 44 47 44 47 49 48 39 42 45 37 35 38 40 43 47 47
18 16 14 14 15 19 26 30 30 46 27 35 37 42 39 37 30 32 39 20 28 34 33 35 38 37 38 41 42 44 46 46 46 41 38 40 40 40 43 49 46 44 45 46
30 39 45 44 42 35 25 26 38 39 30 31 32 36 39 33 28 31 23 21 24 26 31 35 39 40 42 44 43 42 42 45 50 48 45 47 44 40 43 41 43 45 44 43
46 39 33 33 26 16 12 13 13 19 27 27 27 31 31 28 30 32 28 17 29 30 29 35 38 39 39 38 38 36 42 46 45 49 52 56 40 36 41 47 47 40 42 42
27 20 17 8 17 28 28 25 23 20 16 22 24 32 30 29 26 15 12 20 24 24 28 38 39 37 39 39 44 47 37 38 38 36 41 39 37 38 38 40 41 39 41 43
18 15 16 21 16 17 17 18 19 23 17 19 19 15 18 21 20 24 25 27 28 25 22 22 24 21 22 27 28 30 31 33 31 33 30 29 32 33 34 36 40 45 50 53
6 11 14 20 21 20 19 21 25 27 26 27 25 21 20 17 17 16 16 17 16 15 16 16 18 18 15 14 17 20 24 26 27 27 30 34 39 40 42 45 48 49 49 48
26 25 23 22 23 23 23 20 19 16 13 10 11 10 13 15 16 18 17 16 14 16 17 16 16 17 18 20 22 22 25 28 30 33 36 39 40 42 44 45 45 48 50 53

GFSNW_500_spd_054.txt.gz
Wind_Speed
70 68 68 63 60 55 60 61 54 75 83 82 82 76 60 63 61 57 49 49 49 45 43 44 39 35 27 27 27 25 21 24 23 21 21 26 25 24 26 26 23 26 22 18
80 75 75 67 65 62 60 63 56 69 85 87 82 69 69 69 66 59 50 49 49 48 44 47 44 35 32 31 29 26 23 27 24 24 24 26 26 22 24 27 29 25 24 21
72 74 75 69 66 66 65 64 66 62 80 84 78 75 75 71 67 60 53 51 47 48 43 46 45 36 34 33 31 29 30 30 24 24 19 20 25 23 23 26 32 28 27 23
64 73 73 68 63 68 70 68 73 57 58 87 84 79 74 73 70 63 56 53 53 48 45 47 43 37 36 36 32 30 34 33 26 23 23 26 28 28 28 30 28 29 25 26
57 71 71 69 68 73 73 69 67 56 47 69 82 82 82 77 70 61 55 53 50 51 48 45 40 38 38 38 36 32 35 33 28 25 23 26 28 28 31 31 29 27 30 28
51 58 61 59 70 70 74 63 63 58 45 64 82 84 78 75 71 63 56 51 49 50 46 45 40 44 41 42 40 36 36 36 29 25 24 26 28 26 28 23 22 23 24 20
55 60 58 60 68 62 62 56 58 54 49 60 75 79 79 78 71 65 62 58 53 48 46 48 43 37 44 44 41 37 36 35 31 30 27 34 19 20 23 22 21 21 20 18
57 60 59 57 62 56 59 56 55 48 34 49 71 81 83 79 77 69 64 56 52 45 40 47 48 48 45 46 42 40 35 37 35 34 29 28 25 21 21 20 19 20 21 22
57 54 56 59 57 57 57 53 48 39 31 42 65 79 83 79 77 70 61 57 52 46 45 52 52 53 45 45 43 42 39 35 36 34 34 32 18 22 22 25 14 18 22 20
51 54 54 60 56 56 54 49 42 34 30 41 63 77 81 79 79 70 63 58 53 49 48 46 48 46 49 44 46 40 44 41 39 32 33 29 20 22 25 31 12 24 23 23
49 52 54 51 55 54 50 44 37 29 28 39 59 58 77 80 80 74 66 62 56 51 49 48 49 47 45 51 50 39 38 40 38 35 35 31 16 21 26 24 27 27 27 25
53 52 50 51 51 46 42 38 32 28 24 28 50 67 46 79 81 75 69 58 57 54 54 54 53 54 50 48 51 47 45 44 40 40 36 29 24 23 26 29 31 30 29 25
52 49 49 48 43 38 37 32 24 21 21 26 39 56 67 63 77 77 72 62 57 53 50 49 49 48 46 49 48 44 47 45 43 39 31 28 22 21 23 28 31 35 30 28
47 50 48 43 40 36 30 25 24 22 24 27 35 38 60 71 69 74 65 65 57 53 53 53 53 50 47 45 41 41 44 44 42 37 31 29 24 22 27 29 33 32 31 30
46 45 43 40 35 30 28 26 25 23 24 41 37 35 42 59 71 71 63 61 59 55 53 57 54 51 47 45 42 38 36 40 48 40 31 31 29 28 34 32 31 32 32 31
40 40 37 32 30 26 25 24 21 22 24 53 34 37 33 27 38 67 53 57 57 56 52 47 50 51 49 48 45 37 33 35 36 40 41 40 35 31 33 35 33 33 32 34
36 33 29 26 23 22 17 16 16 20 26 51 47 39 33 38 32 31 40 44 54 54 54 50 44 45 48 50 47 36 34 34 35 39 44 41 39 40 39 35 36 33 36 40
30 27 23 20 25 20 13 9 8 27 41 58 52 46 44 33 32 32 30 36 44 49 52 51 51 50 47 50 44 38 33 33 35 39 43 44 44 43 39 37 36 38 33 38
22 20 23 23 17 13 15 18 30 31 36 52 43 37 45 47 41 27 24 20 29 42 45 45 46 48 51 48 38 34 33 35 40 38 39 44 42 43 43 37 35 36 38 37
25 21 17 15 13 13 15 27 33 32 31 43 48 46 51 35 32 30 28 30 26 22 28 33 40 44 41 41 38 34 34 34 38 43 37 41 41 44 38 44 39 40 44 41
20 17 14 13 11 13 23 35 35 30 31 49 46 39 37 34 32 28 25 22 22 22 20 22 29 35 37 35 32 32 36 39 41 43 46 48 46 46 47 46 41 40 40 42
14 15 9 9 15 20 23 34 30 29 44 47 41 31 43 39 35 32 32 28 26 21 30 23 28 28 32 35 38 42 41 40 42 41 41 45 49 49 49 45 43 42 39 42
40 38 28 24 20 27 24 32 33 40 48 35 30 36 42 46 36 27 29 30 21 19 16 16 25 29 28 32 33 31 31 33 38 41 41 40 41 40 44 51 47 46 44 42
26 23 20 14 16 30 38 31 27 37 47 36 33 37 40 35 27 29 28 26 22 21 25 24 25 27 30 27 28 31 31 32 34 36 34 36 40 47 48 47 45 48 51 35
14 10 0 9 13 24 28 30 30 30 33 34 30 29 27 24 23 23 24 23 27 24 20 19 20 24 26 28 30 30 31 33 37 39 43 41 38 34 38 36 33 35 38 42
16 17 12 14 19 18 23 25 22 21 21 20 20 15 17 23 24 19 22 24 24 22 24 24 26 26 23 19 25 29 33 34 34 35 36 37 41 33 29 34 39 41 41 45
30 30 29 29 27 24 22 22 27 23 19 24 22 24 23 20 18 24 22 22 21 20 19 21 19 17 15 16 18 18 19 23 25 24 24 23 27 33 38 41 45 49 50 51

GFSNW_500_spd_057.txt.gz
Wind_Speed
58 60 58 59 61 60 59 57 54 52 58 60 65 77 75 66 66 69 64 61 56 47 51 49 43 42 42 43 39 38 35 31 30 24 21 21 21 21 27 24 21 26 25 20
65 65 67 66 64 66 65 64 59 58 60 61 57 47 60 72 72 73 64 61 55 55 51 51 47 42 44 47 40 39 38 41 32 24 24 23 23 24 22 22 24 30 23 18
75 75 76 76 71 68 69 69 69 66 64 58 57 47 42 76 75 73 70 48 54 54 52 49 47 45 41 41 41 35 38 39 35 29 19 18 19 24 24 28 30 26 27 22
83 84 76 75 72 70 69 74 75 69 65 60 52 54 55 72 77 75 71 59 54 51 50 52 51 49 47 41 44 41 40 41 36 31 27 21 19 21 25 27 28 28 24 21
60 64 69 70 69 67 73 78 74 68 62 60 54 56 55 69 75 73 72 72 50 44 47 40 49 48 49 46 43 43 42 42 38 33 30 29 28 27 26 25 28 31 26 23
56 54 58 58 57 68 72 70 66 68 63 63 60 58 51 58 70 75 72 69 59 43 47 35 53 44 48 50 46 47 45 46 37 36 30 26 34 29 27 26 28 26 28 26
66 63 66 67 61 61 71 63 63 65 64 63 56 52 52 56 69 75 75 68 68 36 49 57 49 45 46 50 47 48 46 42 40 38 36 40 26 26 22 27 24 26 26 24
53 56 63 68 68 69 68 63 64 62 59 53 58 55 53 51 70 72 66 55 61 59 52 49 49 48 38 47 45 48 45 43 42 42 38 36 29 30 23 21 22 23 25 24
57 53 53 54 63 70 68 63 58 58 57 58 51 51 51 52 72 79 64 55 62 65 44 51 49 53 50 46 46 48 46 45 42 41 41 41 26 24 22 24 28 23 26 29
51 52 50 52 56 70 66 59 59 57 59 46 40 43 40 47 72 71 66 67 63 63 55 53 53 55 52 50 54 49 42 50 46 41 41 37 26 22 23 30 5 19 26 29
45 48 50 50 66 69 57 58 52 51 41 40 41 39 34 46 68 75 64 57 67 62 53 56 50 46 50 51 53 48 48 46 45 38 39 39 26 20 25 16 23 33 33 33
47 53 52 54 60 54 58 49 48 48 39 32 34 26 31 41 55 69 66 58 51 55 53 54 50 49 49 49 49 48 49 49 46 41 39 36 28 26 24 24 24 28 32 36
50 47 50 59 47 50 45 41 44 41 33 26 28 33 41 35 42 60 63 56 51 53 53 55 53 50 42 41 46 43 47 46 47 42 37 38 33 32 30 28 29 29 29 35
46 52 54 51 48 43 39 42 40 34 31 25 26 30 42 36 33 42 66 62 53 57 57 55 54 49 44 39 43 45 44 45 45 46 41 38 43 33 31 34 36 36 33 35
44 47 43 41 40 40 39 39 35 30 30 28 24 25 50 31 42 25 47 65 55 60 56 56 52 50 48 47 44 39 39 38 38 40 38 41 43 42 34 35 36 35 31 31
40 38 39 42 40 38 36 34 30 28 30 24 27 30 49 45 44 34 37 58 61 49 53 53 52 49 49 47 43 37 36 35 32 32 34 40 41 40 38 40 34 34 34 34
44 42 40 38 33 30 29 30 26 25 22 20 26 39 37 55 46 45 36 39 55 49 50 53 50 47 48 47 43 37 36 36 33 34 35 34 32 32 36 37 40 36 36 35
36 35 36 33 30 28 24 20 23 25 26 30 40 34 32 32 47 46 30 39 43 50 49 48 45 43 38 40 40 35 37 37 34 31 32 34 35 36 38 40 41 40 42 42
31 29 27 25 23 22 20 19 18 20 31 37 42 40 30 35 28 25 32 27 36 44 47 48 47 44 38 39 34 26 27 28 27 28 31 34 35 36 37 40 42 45 47 47
20 19 21 23 21 17 15 15 13 14 27 52 36 36 38 32 31 33 31 29 29 33 41 41 46 45 43 48 44 34 33 32 29 28 30 33 37 40 42 41 42 45 47 47
25 22 20 20 19 17 14 17 18 24 36 57 47 38 25 27 36 35 32 28 25 22 25 29 32 33 37 38 34 30 29 28 29 31 33 37 39 41 43 47 47 42 45 45
18 17 19 21 22 22 19 17 21 28 41 56 41 31 29 35 34 34 29 28 23 22 20 17 21 24 26 29 29 29 32 33 33 35 36 38 41 42 44 44 46 47 47 49
13 10 16 23 24 25 25 25 20 21 28 48 35 30 30 31 30 33 28 29 26 24 25 27 24 22 25 26 25 26 30 34 36 37 35 36 39 42 45 44 41 41 44 43
19 16 11 20 17 22 20 21 20 16 21 38 32 18 33 35 29 35 32 28 27 25 26 17 15 14 18 23 27 28 29 29 30 32 34 36 37 38 39 40 42 42 45 48
19 19 18 14 15 22 23 24 21 22 49 55 30 17 29 30 29 29 25 26 28 29 28 23 21 23 25 22 20 23 28 30 34 35 38 38 38 37 36 39 39 40 38 39
13 20 22 22 24 27 27 24 24 24 20 19 19 14 28 36 33 29 27 27 28 26 27 26 24 22 21 23 25 24 23 28 34 39 41 43 41 39 38 38 40 42 44 42
26 24 28 28 30 32 31 26 26 23 24 25 28 31 30 27 21 21 18 21 22 21 21 24 25 25 25 24 24 25 26 28 29 31 31 30 28 29 30 31 29 35 38 41

GFSNW_500_spd_060.txt.gz
Wind_Speed
47 45 46 46 45 47 50 51 48 45 50 54 54 42 27 27 35 59 59 59 61 54 43 29 38 44 45 38 36 40 39 36 31 34 29 26 25 19 26 28 26 23 23 23
49 50 48 49 49 49 51 53 52 53 56 55 47 41 36 35 32 45 63 65 65 55 47 44 31 30 40 36 40 40 41 46 33 34 33 33 27 29 24 25 28 30 26 22
53 55 55 55 55 55 57 59 59 58 60 54 49 45 39 41 42 46 60 63 59 61 51 49 44 31 36 47 43 38 39 46 48 45 29 23 24 28 28 19 25 29 30 24
58 59 60 60 60 59 60 64 66 59 58 54 52 55 50 46 47 45 51 62 62 54 52 46 50 33 34 47 46 45 48 49 49 44 36 28 24 21 27 29 31 34 26 29
64 66 67 69 68 68 66 68 69 67 63 57 61 56 53 46 45 49 49 56 66 62 44 44 48 46 40 41 44 50 50 51 49 47 42 35 34 26 24 22 28 31 24 21
70 72 73 75 74 74 71 74 68 69 69 67 67 64 54 50 48 49 48 47 61 60 54 49 45 44 44 50 36 43 48 50 44 50 44 40 44 32 31 26 24 23 26 27
71 72 68 70 72 71 74 74 63 66 64 61 63 58 54 53 55 49 44 50 63 61 47 45 46 38 47 39 50 47 42 52 49 43 41 49 42 39 40 41 36 34 34 33
56 57 56 56 57 60 66 69 65 65 60 55 57 58 57 54 54 53 47 46 55 60 63 58 51 51 37 33 48 51 48 56 54 50 48 45 44 35 39 32 30 25 28 27
52 50 51 57 66 60 61 70 66 57 51 52 43 52 59 58 56 53 47 42 51 53 62 63 58 54 40 35 41 41 44 49 48 42 48 46 38 36 34 32 34 22 24 24
48 46 43 54 53 65 64 66 56 56 55 46 44 47 46 52 50 47 41 43 53 52 59 66 68 48 59 51 34 46 48 47 51 51 46 37 36 34 33 35 18 19 26 26
47 42 45 52 52 61 68 74 70 66 59 48 48 44 36 40 43 44 41 40 53 47 48 51 66 68 51 53 47 36 49 40 46 47 48 46 37 29 39 28 16 22 25 26
37 39 46 45 52 53 66 68 61 54 51 53 43 42 32 37 40 36 40 41 50 66 40 47 53 59 56 57 54 41 48 46 43 47 47 42 38 32 31 28 32 31 25 21
38 39 47 45 45 48 60 68 61 58 49 45 45 42 29 29 33 36 36 46 49 39 56 50 50 58 52 52 52 42 47 43 46 38 43 41 34 37 34 38 34 26 32 37
39 44 43 43 44 47 51 57 54 52 41 43 37 37 37 35 31 33 35 44 63 66 51 51 46 44 49 51 44 42 39 37 43 45 43 45 37 42 26 36 35 39 37 38
38 41 44 46 48 55 54 56 48 42 43 38 30 30 30 31 30 32 30 41 50 52 39 51 49 49 49 47 46 39 40 40 43 43 38 40 38 36 42 39 42 40 40 40
49 54 53 51 49 51 43 41 35 39 39 32 27 21 25 31 41 34 28 34 44 57 33 36 48 46 47 47 44 38 30 31 35 34 36 40 42 41 40 43 42 43 44 40
41 45 45 44 42 39 38 40 37 37 34 30 25 23 18 33 41 40 28 45 42 44 48 34 42 48 46 45 45 36 35 33 35 37 33 30 23 25 30 32 34 37 39 41
37 36 38 37 37 36 37 37 36 31 27 26 26 26 24 37 39 41 27 43 53 51 55 47 38 36 40 46 44 38 36 37 38 37 36 31 28 30 33 34 31 29 29 36
38 37 35 34 30 31 31 31 29 28 28 26 20 19 22 26 36 45 30 37 46 47 46 41 34 31 40 45 40 39 38 38 36 36 33 34 30 31 33 33 37 39 40 40
35 34 32 30 27 25 24 24 26 27 24 21 23 23 20 17 38 37 34 25 33 36 41 37 34 31 35 42 38 32 30 29 31 31 31 29 29 32 36 38 41 42 42 41
22 22 22 22 20 18 18 18 18 19 19 24 32 26 18 18 44 40 37 26 26 27 32 34 32 33 38 38 36 28 25 28 30 30 30 30 30 33 37 40 42 45 47 47
18 19 21 21 20 19 16 15 14 13 18 33 32 27 17 22 36 44 41 29 27 25 31 32 32 30 31 35 37 34 31 28 29 31 31 32 35 37 41 43 46 47 48 46
20 21 21 22 20 17 14 10 9 17 17 40 38 15 11 17 34 41 39 36 39 28 28 28 21 21 22 24 26 28 27 30 35 38 38 39 41 42 45 46 45 44 47 47
8 9 19 19 16 13 13 16 13 16 16 39 27 9 14 28 41 24 32 20 32 27 26 22 20 21 22 24 25 22 25 27 29 30 32 36 39 41 43 43 44 45 45 46
20 19 18 12 12 14 14 15 14 13 27 31 13 8 20 26 15 20 33 22 30 27 27 27 25 23 22 21 20 21 26 29 30 32 34 35 36 38 40 42 44 46 46 46
15 13 7 10 19 23 21 20 22 33 28 20 11 11 15 10 11 18 23 25 28 27 27 27 22 19 19 21 24 25 26 26 26 27 28 30 32 35 39 42 42 42 43 43
23 22 19 23 26 25 24 34 38 34 26 19 14 13 14 21 23 25 24 22 20 16 14 17 21 24 26 28 29 29 28 28 28 29 30 32 34 35 36 35 36 35 36 37

GFSNW_500_spd_063.txt.gz
Wind_Speed
40 39 40 40 39 38 41 43 41 38 43 46 41 30 24 26 29 36 46 51 57 61 54 40 38 34 45 36 38 38 33 36 35 34 37 32 32 25 28 33 26 27 27 26
38 39 41 42 42 42 44 46 44 43 44 39 30 24 24 29 34 39 37 46 55 51 57 54 48 41 34 40 27 39 34 38 40 38 41 39 35 32 29 32 32 35 33 25
40 42 43 45 46 46 49 51 49 47 46 39 34 31 32 30 33 36 35 36 49 56 56 57 55 49 40 38 35 30 32 36 41 43 42 38 41 32 34 30 32 28 30 24
43 44 45 45 47 48 51 56 53 50 44 37 38 37 34 32 33 33 35 38 35 51 62 51 53 56 43 44 41 35 38 44 41 41 44 41 35 33 27 30 35 35 22 19
46 47 47 46 47 47 52 56 54 52 49 48 46 42 35 33 31 35 37 36 32 40 59 65 54 46 47 38 44 45 42 46 44 44 47 45 43 32 31 29 29 36 35 23
51 51 51 52 53 54 54 55 52 54 53 55 51 45 37 36 40 40 41 35 34 33 40 68 68 59 51 54 38 48 48 47 47 47 46 52 52 49 37 34 29 28 27 27
58 58 58 57 59 61 57 59 56 59 60 61 53 48 45 47 47 41 44 43 44 29 40 49 54 56 63 46 53 34 52 52 56 51 47 52 48 49 46 38 38 33 27 29
69 69 69 70 67 65 60 56 61 62 62 60 55 55 54 50 50 50 48 48 43 31 41 47 56 51 60 60 47 29 41 40 52 51 52 49 47 46 48 41 37 37 34 34
67 68 69 67 67 66 64 64 58 58 58 60 51 51 49 52 54 56 57 51 45 42 37 51 56 58 53 59 41 46 22 48 45 48 47 46 45 42 42 45 49 42 40 39
54 53 53 54 57 62 63 65 60 64 69 56 52 48 42 44 51 58 54 48 42 43 38 45 50 58 51 54 53 47 25 43 47 49 44 39 41 38 39 50 39 25 36 32
49 50 50 51 54 52 54 50 47 68 63 54 58 47 38 40 41 43 50 46 47 45 41 43 49 56 56 48 43 34 25 37 34 36 43 47 34 40 47 36 33 33 32 32
50 47 48 43 46 54 55 56 47 51 54 52 48 40 34 39 34 28 42 42 39 43 44 41 41 57 65 66 61 50 38 33 39 38 45 45 45 41 36 36 40 38 39 43
44 39 44 45 42 42 45 49 52 53 55 51 47 46 33 33 33 31 33 42 41 40 34 34 38 50 55 55 60 59 56 39 41 38 46 43 49 48 42 41 33 40 35 42
26 32 40 43 41 42 42 52 57 46 26 41 46 39 39 38 27 27 31 32 38 38 34 36 41 42 47 47 50 54 54 57 51 42 36 38 42 46 46 44 45 39 45 48
30 30 34 42 38 40 38 44 62 41 30 37 38 41 34 30 27 34 36 35 34 37 34 41 47 29 33 35 38 46 41 44 50 40 16 27 36 38 42 47 26 37 45 45
33 34 36 38 39 39 41 51 67 52 39 35 37 35 29 28 36 37 31 30 40 37 29 45 41 50 43 39 37 36 40 41 39 38 45 38 35 36 36 39 50 34 35 40
39 41 41 38 35 40 42 48 52 54 37 29 35 31 29 32 34 34 32 30 37 44 37 31 35 37 38 36 37 36 39 39 37 42 46 45 41 42 37 35 36 40 42 41
44 50 52 42 36 35 44 46 42 43 38 29 28 30 28 30 30 31 36 28 33 39 50 39 42 35 38 41 35 33 34 33 35 37 38 33 32 31 30 28 28 28 29 30
47 48 44 41 37 38 45 42 38 38 34 34 33 28 23 18 17 19 33 33 32 37 42 42 47 32 48 47 41 37 35 28 28 31 33 28 27 25 21 22 27 30 32 34
34 36 35 37 37 39 35 35 30 35 34 30 26 20 17 19 21 22 30 25 32 41 46 40 46 22 33 33 34 31 31 29 30 33 32 33 34 32 28 29 33 38 40 41
31 31 30 32 32 31 30 29 29 27 24 22 18 16 15 11 11 23 31 24 23 44 44 34 45 48 40 33 26 26 27 27 26 30 34 32 32 32 29 32 36 39 41 44
23 22 23 24 24 24 23 23 22 20 20 21 19 17 20 16 16 26 30 22 24 34 42 39 37 39 38 33 23 22 22 24 27 25 23 24 30 33 34 36 38 41 44 46
15 15 14 13 13 13 11 12 16 18 11 11 20 20 16 9 24 33 34 24 22 22 27 28 29 29 28 29 24 23 24 25 29 32 33 33 36 38 39 41 43 47 50 52
8 11 11 13 14 13 12 12 14 17 18 19 17 14 14 11 15 34 29 32 26 24 25 30 29 31 31 31 29 26 26 27 28 31 34 39 42 44 45 47 49 51 53 53
11 14 14 14 13 13 13 14 17 16 26 27 12 12 13 13 15 24 34 29 20 22 21 25 30 33 31 26 23 20 21 25 28 33 35 37 37 37 39 41 42 43 46 48
12 12 13 20 19 18 16 16 16 23 28 13 12 15 14 6 11 12 23 22 20 24 15 21 21 24 24 21 21 29 29 27 28 29 32 33 35 36 37 39 40 41 41 42
21 18 14 16 20 17 18 22 27 25 20 19 14 10 9 8 10 18 16 15 16 9 3 6 11 14 18 19 20 21 23 25 26 28 30 31 33 35 36 37 38 39 41 43

GFSNW_500_spd_066.txt.gz
Wind_Speed
41 37 35 34 34 35 38 41 38 37 45 47 45 43 37 40 42 44 47 48 41 53 49 49 48 46 40 47 46 46 40 33 37 35 35 36 35 39 34 35 36 33 30 26
38 36 36 35 36 38 41 46 39 39 40 40 33 29 34 38 40 42 41 35 30 45 57 51 48 46 43 45 49 48 39 42 41 39 39 40 43 40 41 36 37 39 36 29
38 38 38 38 39 39 41 46 45 41 37 33 34 34 34 35 34 36 39 36 32 29 52 56 52 46 46 43 44 48 41 48 47 44 38 39 41 36 39 40 44 38 36 31
39 40 41 42 40 40 43 49 47 42 36 33 33 33 31 29 27 31 31 31 27 30 30 55 65 53 50 45 48 45 39 43 45 46 41 39 42 39 42 44 44 42 32 31
41 42 42 44 43 42 44 50 49 46 41 39 36 36 31 29 30 30 26 24 23 28 26 38 58 61 59 54 49 44 45 42 44 46 42 39 45 48 43 42 42 43 38 37
41 41 42 44 46 49 48 48 48 49 44 41 38 30 30 35 34 32 31 28 28 26 25 26 43 55 55 56 61 47 37 40 43 46 43 40 50 49 47 44 43 44 45 36
41 42 43 45 48 50 51 52 50 51 46 44 36 39 40 36 36 36 35 35 32 25 28 28 33 51 54 56 60 64 55 35 50 46 42 49 43 44 47 49 44 38 38 33
44 46 47 47 48 49 52 55 56 53 51 44 46 41 44 46 43 42 39 39 34 30 31 33 35 34 36 35 52 59 62 58 33 49 51 49 49 46 45 47 49 40 40 37
50 52 53 54 54 55 56 55 52 54 55 51 42 47 45 47 45 45 42 38 39 36 38 37 37 36 36 39 47 54 68 56 48 31 39 58 47 53 44 47 51 49 45 44
56 58 62 64 64 63 59 57 55 58 59 51 52 51 49 47 48 47 44 44 43 43 42 41 38 41 40 40 40 48 60 60 61 44 40 47 47 50 50 49 42 48 50 52
46 49 50 49 50 54 57 57 58 65 68 54 55 52 51 50 50 49 46 48 50 49 49 46 41 46 46 41 42 46 52 50 55 56 35 50 51 43 43 42 47 45 46 52
48 51 51 49 46 45 47 60 60 61 65 61 60 54 44 39 36 35 41 45 48 49 51 51 47 50 49 40 43 50 53 46 36 47 23 26 46 42 39 36 35 39 38 49
44 46 41 38 40 45 45 38 47 55 65 59 45 52 48 47 39 33 34 37 41 45 50 50 50 49 44 40 41 43 49 49 32 48 23 14 23 37 31 36 33 34 40 43
37 41 38 41 38 42 51 44 36 37 37 42 45 45 40 35 41 37 36 39 36 35 39 42 49 45 41 37 39 39 42 53 49 41 35 31 35 28 35 41 43 46 38 38
28 31 42 41 37 37 39 43 41 38 33 29 30 33 37 35 35 31 32 35 29 31 37 36 34 37 36 40 35 29 36 39 37 43 45 44 43 33 29 40 43 40 43 42
32 41 42 37 39 38 42 48 48 41 34 18 29 29 30 36 39 33 30 35 37 39 37 34 35 31 35 34 29 27 36 34 33 39 45 44 41 37 30 33 41 43 47 48
39 40 42 39 33 39 34 47 46 49 31 28 29 31 35 34 28 28 26 26 31 33 34 37 39 38 30 33 24 32 31 32 34 35 37 41 36 37 36 39 32 40 39 38
39 38 37 38 37 34 31 39 51 54 19 22 25 23 31 30 29 25 31 31 28 27 33 36 40 31 31 40 39 39 35 33 30 34 35 32 31 34 33 35 35 35 35 37
41 34 35 36 35 33 38 46 43 42 25 21 22 27 24 23 22 24 28 31 32 32 32 35 35 32 35 34 39 37 37 37 34 33 31 30 26 25 31 32 30 34 39 35
35 33 35 40 32 39 52 49 45 44 34 20 18 20 21 21 19 19 24 28 32 36 32 34 38 36 38 39 37 36 33 30 27 23 29 30 25 24 29 30 31 33 31 32
34 34 31 36 38 40 41 42 40 34 35 28 21 20 19 17 17 21 25 21 19 27 26 31 45 39 39 35 36 37 32 36 35 30 34 32 28 27 29 30 31 30 32 34
26 27 30 34 33 31 31 31 29 28 25 22 19 17 14 14 16 13 19 12 17 19 18 27 43 41 27 37 24 27 28 29 31 34 35 33 31 31 32 35 34 33 34 37
23 25 27 27 26 27 27 25 23 21 17 16 17 17 12 14 11 12 21 23 17 17 18 30 44 39 22 42 30 27 31 31 31 33 33 31 30 32 31 31 36 40 42 46
18 18 18 18 20 18 18 19 19 14 12 13 17 17 14 4 1 11 17 24 16 16 15 18 31 27 29 25 23 26 34 29 30 34 36 36 33 34 37 42 47 47 47 48
15 16 17 17 16 15 16 16 16 22 22 19 12 6 8 7 11 20 19 18 17 15 9 12 29 27 28 25 27 32 31 31 32 30 27 28 31 33 35 38 40 41 43 43
21 19 18 16 15 12 11 13 23 26 21 18 15 15 11 9 9 16 22 15 11 13 9 11 12 15 21 27 30 30 33 32 30 28 33 32 32 33 35 37 37 38 39 41
25 26 24 20 15 13 12 24 28 23 16 18 15 11 10 8 5 6 9 7 2 6 9 10 19 13 21 28 28 30 32 36 40 36 31 27 28 28 30 33 35 36 37 38

GFSNW_500_spd_069.txt.gz
Wind_Speed
51 53 48 47 46 42 38 36 46 46 45 50 53 51 53 55 51 52 51 51 46 46 49 50 51 46 44 47 49 50 49 47 47 37 36 38 38 38 37 39 41 39 38 26
50 49 48 46 42 35 33 38 36 36 36 47 47 47 48 47 47 48 48 41 41 45 52 52 54 50 46 46 50 50 51 50 48 44 43 45 45 44 42 41 39 40 40 29
47 46 47 43 38 34 38 44 44 43 34 33 34 37 38 39 39 40 44 40 36 40 47 57 54 51 47 44 47 50 53 52 51 52 46 45 45 44 43 41 40 41 38 32
42 42 43 42 39 40 50 49 45 38 33 29 30 30 30 32 35 35 36 35 35 38 38 44 62 55 48 49 45 45 43 49 51 53 50 44 46 44 43 42 40 44 39 37
38 40 42 41 42 45 53 51 45 42 38 35 35 32 30 32 31 30 29 28 31 35 36 35 34 58 59 50 52 44 47 45 48 51 48 41 43 49 46 44 45 44 45 43
33 37 40 43 45 46 50 46 45 46 43 39 35 31 31 30 29 29 27 29 29 29 32 35 36 34 48 63 54 53 49 50 43 44 45 45 46 45 50 50 47 45 47 45
33 36 39 43 46 49 50 48 45 47 45 39 36 36 35 32 29 28 29 32 27 29 31 29 27 29 29 47 63 55 62 51 45 43 48 43 44 42 41 47 48 47 47 46
37 40 43 45 47 50 51 50 47 49 47 43 40 37 36 36 33 31 29 30 28 30 32 31 27 27 27 26 28 43 59 59 55 58 45 32 46 49 42 42 40 46 47 44
41 41 42 45 47 49 51 49 49 51 50 39 41 39 40 37 36 37 34 30 32 32 33 34 30 28 26 26 25 29 31 41 58 63 62 50 28 40 38 43 46 38 45 51
45 46 47 47 48 49 50 50 52 53 50 49 45 40 39 39 39 40 38 34 36 36 37 37 34 32 30 30 30 27 27 36 42 48 53 58 39 24 28 47 42 41 44 46
50 49 49 49 49 49 51 51 51 50 49 51 50 48 45 43 41 42 39 41 42 44 41 40 38 38 35 34 34 32 31 32 37 43 50 56 53 48 26 35 45 47 46 47
53 51 51 52 53 54 56 56 54 52 53 52 51 48 48 47 41 39 41 39 38 40 43 44 42 42 41 40 39 37 36 36 37 40 41 43 53 53 33 38 33 39 42 45
43 41 42 43 42 42 42 42 44 52 58 56 54 49 49 47 42 41 43 42 43 42 45 46 47 49 47 46 45 45 41 40 40 40 35 37 42 54 48 28 30 35 30 30
46 45 43 42 43 44 44 41 38 38 45 51 50 54 52 47 42 43 40 38 38 41 44 47 49 50 50 50 50 49 45 43 41 39 37 38 26 31 49 24 18 25 30 39
39 41 41 40 40 38 36 33 28 37 49 56 59 52 55 53 49 44 41 37 36 38 39 36 40 41 44 47 49 50 45 41 38 37 33 34 36 30 46 24 23 19 33 41
26 32 36 37 39 37 37 33 35 29 29 37 47 50 51 47 42 39 43 43 42 35 35 35 31 30 33 38 44 46 43 39 29 28 24 25 36 41 42 34 31 24 26 31
27 35 41 42 36 31 40 38 36 29 30 28 20 44 52 50 43 43 38 40 41 35 37 34 32 36 31 29 32 41 42 38 29 25 26 28 31 34 40 34 32 28 31 32
37 43 42 38 31 32 42 41 36 34 34 19 18 29 30 31 37 34 35 34 30 25 35 39 38 36 33 36 33 31 30 31 27 27 29 27 29 31 29 33 34 30 32 30
39 40 38 36 36 37 45 39 37 31 29 14 17 25 23 28 26 29 23 30 29 28 30 32 35 38 42 34 32 34 37 34 32 30 30 27 29 34 34 33 29 26 33 35
37 34 35 38 42 46 39 35 29 26 23 17 24 22 22 25 22 22 25 25 26 32 30 31 31 35 38 40 40 30 32 36 32 32 29 32 32 32 36 35 31 29 28 31
36 37 29 33 35 37 37 35 34 25 23 20 15 17 20 20 19 19 21 20 24 28 29 31 31 29 31 36 38 42 37 29 28 30 28 31 34 32 40 40 35 34 32 33
32 31 41 48 45 43 43 47 38 26 20 19 10 8 12 15 19 18 19 19 20 22 22 27 31 29 30 38 43 38 33 34 33 31 32 37 34 32 36 41 37 35 35 33
24 26 32 35 39 39 35 35 29 19 19 16 12 11 14 13 13 12 15 21 15 17 17 15 18 26 32 36 38 30 31 24 27 33 35 36 36 36 38 41 41 37 39 38
23 25 28 29 27 23 20 19 19 16 15 15 14 13 10 11 9 13 20 24 15 11 14 12 14 19 25 33 39 22 29 25 27 30 34 34 33 36 40 45 47 47 44 44
20 20 18 18 17 19 18 17 16 14 12 10 10 13 15 14 8 5 15 20 20 14 12 10 4 10 13 22 22 19 24 31 34 35 31 30 33 36 41 45 47 46 42 42
19 18 19 17 15 15 18 22 25 22 19 15 12 8 8 7 4 5 10 11 10 11 14 17 21 13 17 24 25 26 30 31 30 31 34 33 33 31 31 33 36 39 42 38
27 23 19 18 19 21 26 28 25 22 18 16 13 10 8 6 2 4 14 10 9 7 7 15 12 12 11 14 19 21 24 27 29 32 31 34 35 35 39 37 37 34 32 33

GFSNW_500_spd_072.txt.gz
Wind_Speed
62 55 51 48 45 45 47 48 51 49 46 51 53 49 48 48 46 47 46 45 48 46 47 43 39 44 46 47 45 45 44 43 42 39 39 40 41 43 41 45 44 40 38 34
50 50 49 48 44 44 44 47 45 46 41 49 50 51 48 48 47 45 47 47 48 49 48 46 44 43 48 46 47 47 47 48 48 46 43 44 46 44 43 44 45 42 40 38
49 48 47 46 44 42 43 43 40 40 42 40 41 43 44 46 41 41 44 44 43 46 49 49 50 44 49 48 48 45 47 48 49 48 47 45 47 46 46 46 46 46 43 38
45 47 45 43 42 42 45 44 47 45 40 31 25 30 35 37 35 33 37 39 39 41 46 49 53 50 49 50 50 48 46 48 49 52 50 47 51 49 49 49 48 48 42 39
36 39 46 46 44 44 50 53 49 48 36 31 31 29 26 25 25 25 26 30 28 34 40 42 45 53 53 50 49 48 50 51 50 51 53 51 47 50 51 48 50 50 47 43
37 36 35 39 43 47 56 49 47 47 36 34 30 24 24 25 27 25 24 25 26 28 34 39 40 45 48 50 51 50 51 44 47 47 45 45 48 46 48 53 50 49 49 47
28 31 35 39 43 51 56 51 52 52 46 41 31 29 28 28 29 28 29 26 21 25 33 35 36 36 38 38 36 45 55 50 52 52 49 47 45 39 43 46 47 47 48 48
27 26 28 34 42 50 53 52 50 49 45 42 39 34 29 29 33 31 29 24 22 26 28 32 34 35 35 36 34 30 35 59 58 57 55 47 42 37 34 37 44 44 45 46
30 31 32 35 40 45 48 48 46 45 43 40 37 35 32 28 30 33 26 23 25 29 30 31 32 33 32 31 30 27 26 31 49 55 57 58 51 48 43 27 43 39 47 42
35 34 34 36 39 45 44 44 44 44 43 41 39 37 34 30 28 30 31 26 26 30 31 32 31 30 29 27 25 22 19 19 22 27 38 50 55 55 55 46 42 34 38 44
40 40 40 41 43 45 46 46 47 48 46 42 42 40 36 32 29 27 29 31 32 32 32 32 31 30 30 29 26 24 23 22 21 23 24 23 25 33 48 55 54 39 33 36
47 45 44 45 45 46 48 48 47 46 45 46 45 42 39 36 29 27 30 31 34 34 36 34 32 32 32 31 31 29 28 26 26 25 21 24 28 32 31 32 49 51 35 35
53 51 49 48 48 47 48 48 47 46 47 46 44 41 38 38 34 30 31 32 36 39 39 38 38 37 37 38 38 37 36 35 34 31 25 26 31 34 34 34 31 55 52 33
43 49 52 51 49 49 48 47 46 47 46 46 45 44 39 38 35 33 30 28 35 38 40 41 42 40 41 41 42 42 42 42 40 37 36 34 32 36 38 32 29 37 45 48
36 40 46 48 48 48 45 44 42 42 40 44 49 44 42 41 38 36 32 30 32 37 37 42 43 44 44 45 46 46 47 47 47 43 42 40 34 36 41 31 32 28 34 30
33 36 38 43 39 34 35 35 33 33 34 39 43 47 49 48 42 38 35 33 33 37 39 41 43 41 39 43 45 45 45 46 48 47 45 42 39 38 37 32 39 35 33 27
33 35 36 34 33 29 25 23 26 29 30 32 35 38 39 40 25 23 18 26 31 34 35 33 29 31 35 36 38 38 36 38 44 47 45 37 37 34 34 25 28 35 29 28
34 34 33 31 27 25 23 25 30 26 23 19 26 31 38 41 38 37 32 40 37 37 37 36 36 34 36 39 35 35 32 27 27 34 39 36 33 34 35 33 31 32 33 29
35 39 35 40 34 33 30 31 28 26 19 23 19 19 34 34 42 37 38 31 26 28 30 30 35 38 38 34 33 28 28 33 32 31 35 37 35 34 33 31 32 33 36 32
46 46 36 34 36 37 34 30 22 18 23 27 11 3 22 31 32 33 36 34 30 31 29 29 28 29 32 35 37 38 32 30 29 29 36 31 27 29 32 33 33 36 37 40
38 36 35 31 31 31 26 23 21 19 14 15 23 18 16 24 18 18 24 25 20 23 26 29 29 29 31 30 31 34 37 36 32 24 41 35 31 31 33 35 35 34 34 37
27 30 29 35 39 33 18 28 24 25 23 23 19 16 16 21 23 21 21 24 26 25 25 27 30 30 29 31 29 30 31 34 38 38 35 33 35 35 35 32 32 33 36 38
33 35 38 37 25 26 30 27 26 24 21 17 12 8 15 16 15 17 19 21 23 23 25 25 16 17 21 26 28 31 32 34 35 35 34 35 35 34 35 35 33 38 39 37
31 32 34 30 31 31 28 24 18 14 7 4 4 5 9 12 14 14 16 18 19 17 15 14 15 11 14 16 20 23 26 28 32 28 30 28 29 32 35 35 36 35 38 41
27 29 30 28 22 22 19 16 13 11 7 7 8 9 10 10 11 13 11 15 19 16 13 13 14 15 13 9 11 17 18 26 21 24 31 30 30 31 34 34 35 37 37 39
20 19 19 19 16 15 14 14 12 11 9 9 6 9 12 11 13 11 10 20 19 17 19 19 17 18 19 17 13 15 23 24 22 23 27 28 29 32 34 33 39 38 38 37
15 14 15 16 15 14 14 16 17 17 13 9 8 5 6 8 8 7 7 11 13 13 13 20 24 24 19 16 16 21 23 24 25 25 28 30 32 33 34 33 33 32 33 35

GFSNW_500_spd_075.txt.gz
Wind_Speed
60 61 60 59 59 61 62 60 60 55 50 54 57 57 53 49 44 45 43 36 36 36 33 32 34 37 36 37 36 34 35 35 38 38 37 38 39 38 38 41 41 43 42 41
58 59 60 60 59 60 59 57 53 51 46 55 55 54 51 45 44 43 42 40 36 37 37 37 38 39 40 40 40 39 38 40 38 35 34 35 38 39 40 41 42 41 43 44
57 55 52 48 47 49 51 50 50 46 47 48 49 50 45 42 38 41 41 39 37 37 39 40 41 42 43 44 44 43 45 45 44 43 40 38 38 40 43 43 43 43 42 43
45 45 48 49 48 48 50 49 47 44 45 43 42 45 39 35 32 34 35 35 34 34 38 39 43 44 45 45 46 47 47 46 47 48 46 45 46 45 44 46 46 45 44 44
36 34 33 36 46 51 53 49 44 45 45 37 39 38 32 25 23 25 24 27 25 31 35 38 41 44 47 47 49 48 49 47 47 47 47 44 45 44 46 47 46 46 49 48
38 38 38 36 35 45 51 45 41 42 42 41 39 35 28 23 22 20 22 21 21 23 26 35 40 43 44 46 47 48 49 50 46 47 44 46 46 40 43 45 47 51 52 51
36 35 37 39 41 37 43 45 41 43 43 45 39 33 28 23 20 20 23 22 22 23 25 28 30 35 38 42 42 46 47 45 45 45 46 48 46 38 40 41 44 46 51 54
35 33 33 35 39 41 36 42 43 43 41 43 43 32 26 24 22 20 23 24 24 25 26 22 24 29 31 33 35 36 39 43 42 47 47 47 47 40 39 32 34 37 45 51
35 33 31 32 32 38 40 36 40 45 45 39 37 34 30 26 21 21 21 26 25 25 24 23 25 28 29 33 34 36 37 35 32 33 39 38 35 45 44 43 41 39 40 39
36 33 30 28 28 29 35 34 40 48 47 38 35 29 26 26 24 20 21 26 25 26 26 27 26 26 28 29 28 30 31 30 26 24 19 16 21 34 44 48 49 46 42 39
35 36 32 30 27 26 29 31 38 46 41 36 30 25 25 24 23 21 21 23 28 28 28 30 28 25 23 25 23 24 23 22 19 15 11 10 13 18 20 23 29 47 42 51
32 40 36 34 31 30 27 33 37 43 42 35 29 27 24 23 24 25 23 22 28 31 31 31 27 26 24 25 26 26 23 20 18 17 14 16 19 20 21 20 19 21 29 29
28 42 41 39 37 36 37 38 38 39 36 32 30 28 27 27 27 27 25 23 28 33 31 30 30 30 28 28 29 29 28 26 23 21 20 20 22 24 23 22 23 22 24 26
26 38 45 43 42 41 40 37 36 37 35 36 34 32 30 29 29 26 25 23 26 31 32 31 32 32 31 30 31 31 32 31 30 30 28 26 27 29 29 28 27 27 25 28
25 31 44 44 43 45 43 40 40 39 37 39 37 33 32 29 28 24 23 23 24 28 30 32 32 33 34 34 34 34 35 35 36 37 36 34 32 34 36 36 33 30 29 29
26 27 35 39 41 41 41 42 41 38 37 38 33 33 32 30 28 26 23 20 22 25 28 29 31 29 33 35 36 35 36 37 39 40 40 40 40 41 40 41 41 37 36 32
31 29 26 32 36 35 36 38 33 35 36 36 35 33 31 28 31 30 28 27 26 28 30 30 29 31 33 34 34 32 33 35 39 41 40 41 43 45 46 45 44 41 33 33
34 31 25 22 29 34 34 31 29 25 22 19 16 17 19 21 21 22 26 26 22 19 20 25 30 31 33 34 32 31 29 32 35 38 42 42 40 42 45 45 43 36 31 30
34 35 28 31 27 25 25 24 19 15 16 16 18 19 18 21 21 21 18 19 25 22 26 23 26 26 27 28 30 31 33 36 36 37 37 33 27 28 34 39 38 38 39 42
33 34 32 32 30 30 27 23 21 18 18 18 16 15 19 17 16 28 33 28 30 26 27 29 25 29 32 31 28 27 32 32 32 35 32 28 29 30 34 34 37 35 38 35
40 32 36 35 31 31 30 25 21 18 21 19 23 12 10 16 14 27 36 32 29 29 30 33 32 25 22 23 26 26 29 31 32 33 35 32 28 27 32 31 34 30 33 34
29 32 35 29 23 22 24 21 17 16 13 20 23 18 15 18 28 25 32 33 33 24 19 22 20 18 24 29 30 29 30 30 30 30 32 32 32 33 31 32 32 27 29 31
26 26 30 31 26 26 26 23 20 22 22 19 14 12 13 20 19 17 20 21 22 22 24 25 24 24 25 25 28 32 33 35 38 35 33 32 33 35 36 31 32 31 32 35
34 36 29 25 30 24 20 21 23 21 19 16 12 10 11 14 16 17 16 16 20 23 24 25 24 20 21 21 21 23 23 25 28 32 32 30 32 31 31 31 31 35 35 39
34 29 22 27 25 25 26 23 19 9 9 6 4 6 9 13 13 14 15 17 23 24 17 13 14 15 16 18 20 21 22 21 25 28 30 28 30 30 32 33 35 32 33 35
29 25 18 18 21 18 14 10 6 5 2 0 3 5 9 10 11 12 14 16 11 9 13 16 18 22 20 19 22 24 23 22 22 27 28 28 29 31 32 34 32 32 34 35
16 14 15 12 11 10 9 9 6 4 5 5 3 2 2 5 10 10 8 8 12 16 17 20 24 24 25 28 32 30 26 22 20 19 26 27 29 31 33 33 35 38 39 40

GFSNW_500_spd_078.txt.gz
Wind_Speed
54 54 53 52 52 53 53 52 53 50 53 55 55 55 52 48 39 45 43 41 37 34 32 31 30 31 31 29 29 24 24 22 26 30 30 30 34 36 36 40 38 39 39 36
47 49 52 52 51 52 54 54 53 52 55 57 55 55 53 51 43 44 45 42 40 37 36 37 35 35 35 33 32 30 25 24 23 25 28 29 28 30 33 34 36 40 38 34
45 47 49 51 52 53 54 56 56 55 58 58 55 54 54 52 42 44 46 42 41 37 38 40 39 40 38 39 37 35 33 34 30 25 30 31 31 31 30 30 32 34 36 36
41 43 45 47 49 51 55 56 54 52 53 50 47 48 48 45 41 42 42 42 41 37 38 40 41 41 42 42 40 41 40 39 38 38 36 34 33 32 33 35 36 38 36 38
37 39 41 44 45 46 50 50 47 45 40 37 38 37 40 36 35 37 37 35 34 36 36 40 41 42 42 42 41 42 41 39 39 39 40 41 41 40 40 39 39 40 40 41
33 34 36 37 39 38 33 31 41 44 38 37 36 29 32 31 31 33 29 25 27 29 30 37 38 40 39 41 40 40 41 41 39 37 37 38 42 41 40 40 40 40 43 49
33 35 37 40 41 39 38 35 30 38 36 39 34 40 35 33 35 30 27 24 24 25 28 30 33 37 39 40 39 41 42 41 42 40 38 41 40 39 35 38 36 39 42 46
20 27 34 36 37 38 38 36 31 29 36 35 35 37 35 34 38 30 25 21 23 24 25 25 25 26 30 33 34 37 38 41 41 41 41 39 41 39 37 39 38 39 39 42
27 23 26 32 36 35 35 35 34 30 33 35 34 38 34 34 33 27 21 17 22 23 25 25 23 20 22 24 27 29 32 36 37 36 35 34 35 35 37 36 37 42 41 40
28 30 26 27 34 33 32 30 31 33 30 34 36 36 36 35 30 25 20 17 20 25 24 24 22 22 22 23 23 25 27 29 28 26 25 23 27 27 28 33 37 43 42 46
27 27 28 26 32 31 29 26 27 30 28 32 34 37 37 32 26 22 20 17 20 25 25 24 23 26 21 19 17 19 22 23 25 24 23 23 21 22 23 23 23 28 35 39
32 30 29 27 32 29 27 22 23 28 30 31 36 37 32 25 22 21 18 18 19 25 26 25 27 25 23 21 21 21 19 18 19 20 19 18 18 16 11 11 12 13 16 20
34 32 29 30 33 28 23 17 24 26 26 34 37 30 24 21 17 16 17 19 22 24 28 30 30 26 25 24 21 21 21 21 23 22 22 21 20 20 18 15 14 15 15 16
28 29 30 34 34 28 20 23 26 30 34 33 30 26 21 16 17 17 19 20 22 25 28 33 30 26 25 26 25 24 24 24 24 24 22 21 24 23 23 23 23 23 25 24
26 30 28 37 37 33 28 25 32 32 31 29 25 21 19 19 17 18 20 20 23 26 27 31 30 27 26 26 26 24 25 26 26 27 27 28 30 30 30 31 31 31 31 31
30 30 28 39 39 37 34 32 32 29 28 26 25 22 22 20 20 19 18 18 23 27 26 24 25 27 26 28 28 28 27 28 29 29 30 32 33 34 35 37 38 37 37 37
29 28 29 38 39 37 33 32 27 28 28 28 26 23 20 22 22 21 19 22 25 26 27 26 24 27 29 30 29 25 26 28 30 31 33 34 36 37 38 39 40 40 42 44
28 27 30 33 35 35 34 31 29 27 28 29 26 24 24 22 19 18 19 23 26 27 27 24 23 24 25 29 26 22 24 29 31 32 34 35 36 39 40 43 45 47 48 49
31 29 34 36 34 31 27 24 24 24 27 29 26 24 23 22 20 16 14 14 19 25 29 28 27 24 30 27 23 25 25 27 30 33 35 37 39 40 41 40 40 37 39 41
28 30 36 35 29 27 26 25 24 23 24 23 21 20 19 16 16 17 18 18 21 27 28 27 27 29 27 25 22 22 24 29 32 35 38 41 39 38 33 33 39 37 34 38
29 35 35 33 31 30 29 27 24 22 19 17 14 14 17 14 18 22 27 21 22 27 29 29 31 29 28 26 27 27 28 30 32 33 34 34 36 36 37 35 33 32 28 30
30 29 31 33 33 28 25 23 22 21 18 18 17 14 17 16 15 28 31 23 26 28 26 23 24 21 23 24 24 26 28 31 35 37 37 38 37 35 35 34 35 32 27 25
28 28 29 28 26 24 23 22 21 19 22 23 16 12 11 16 16 11 29 30 29 21 23 27 21 20 22 24 27 30 32 35 37 38 40 38 38 37 35 36 38 38 36 33
24 20 21 27 29 26 23 21 22 24 21 17 13 11 11 16 17 20 15 16 18 20 20 22 23 23 26 27 30 31 31 31 29 29 30 31 35 39 37 36 37 37 33 33
27 26 24 30 27 25 28 27 22 18 15 12 11 11 13 14 15 16 16 18 18 17 17 22 24 26 22 21 23 25 25 28 29 30 32 32 31 32 35 35 35 36 35 36
22 23 24 25 24 23 21 16 9 10 10 10 9 8 10 11 12 12 13 14 13 14 15 13 16 19 20 22 27 27 28 30 30 31 32 30 31 29 31 34 34 36 37 38
20 19 22 23 20 13 7 5 5 7 11 9 7 5 4 2 4 7 10 12 12 12 14 17 20 25 27 29 30 32 34 35 37 36 32 28 26 23 28 34 38 37 40 42

GFSNW_500_spd_081.txt.gz
Wind_Speed
50 52 53 51 50 50 48 46 44 43 44 46 47 44 40 42 37 38 36 36 37 33 35 35 33 31 30 29 25 23 17 10 21 20 20 22 27 35 38 36 30 27 33 26
42 46 47 46 46 47 48 46 45 45 46 48 45 43 41 41 40 40 39 38 37 36 34 36 36 34 33 30 30 26 22 13 9 8 18 22 27 31 30 28 24 25 24 26
33 38 40 41 42 43 45 47 46 45 46 45 43 41 41 41 40 41 43 42 40 38 36 39 38 37 34 34 32 31 26 21 16 19 18 15 15 17 19 23 30 31 33 30
26 32 36 39 42 43 45 45 43 44 45 42 41 42 45 44 45 45 43 44 42 39 38 40 41 40 39 35 36 34 32 30 28 23 24 20 25 21 23 23 24 26 24 25
20 26 30 33 36 38 39 39 37 41 42 42 44 44 44 42 39 43 39 41 38 39 40 42 43 43 44 43 40 36 37 34 33 30 30 29 25 25 26 27 26 28 29 30
20 24 28 32 35 36 35 36 38 40 40 41 41 34 31 32 27 25 28 29 33 35 38 42 46 46 46 43 42 38 35 31 32 34 32 31 34 31 32 30 32 32 31 30
18 24 26 30 32 34 33 30 30 30 25 28 34 31 27 27 31 33 28 28 29 31 36 40 43 44 44 44 42 43 44 43 38 34 34 36 31 31 32 30 29 26 26 33
14 14 16 26 32 31 32 33 33 32 29 26 29 31 26 26 29 28 30 29 30 29 31 35 38 39 42 42 39 40 41 41 41 41 38 35 31 34 34 31 25 37 36 36
19 21 21 19 20 30 33 30 30 30 28 22 27 35 35 38 31 29 29 29 27 26 28 29 30 28 31 31 36 33 35 37 38 38 37 37 31 35 37 31 28 40 41 45
21 20 24 25 23 21 25 29 28 28 26 25 25 35 37 42 32 27 32 28 23 23 24 25 24 21 24 23 20 24 27 30 31 29 30 30 32 29 23 25 30 36 40 41
25 26 26 28 29 24 23 21 26 24 20 24 24 34 31 36 31 23 28 27 21 22 24 23 23 24 23 23 21 19 22 25 25 26 28 29 26 23 23 26 27 30 32 33
27 27 28 29 30 27 26 25 24 23 23 22 28 35 34 37 33 28 26 21 19 23 25 24 24 19 23 20 20 20 14 17 18 19 19 23 22 24 23 19 20 22 23 24
28 28 28 31 29 29 27 24 23 24 22 25 31 34 35 38 31 23 21 17 21 24 27 21 22 21 19 20 20 21 24 18 20 16 18 17 23 16 21 20 18 17 17 16
28 28 27 30 29 26 26 22 20 23 21 28 28 34 36 38 29 21 17 19 25 24 18 19 20 19 21 18 20 22 24 24 24 25 21 25 31 28 24 24 21 20 20 20
26 26 30 32 29 25 26 21 23 22 24 26 29 33 37 29 18 14 19 19 25 23 24 20 18 16 16 19 18 21 24 26 24 28 26 28 26 26 22 25 23 24 25 26
22 24 34 32 26 28 28 29 29 30 27 25 33 30 24 20 17 16 15 19 22 24 24 21 19 15 15 16 17 22 22 20 25 26 28 28 28 29 28 30 32 32 33 33
25 31 35 32 31 30 26 29 30 34 36 34 30 24 20 17 15 16 17 19 22 23 25 23 16 15 18 17 16 21 24 25 25 26 28 29 29 30 33 34 35 37 38 39
35 32 30 31 34 33 31 30 32 30 27 25 22 18 16 15 17 17 19 22 22 24 24 22 21 19 16 23 28 25 24 24 24 26 29 30 31 32 33 36 38 40 41 42
30 26 31 34 35 34 31 29 29 27 24 21 18 16 17 15 16 16 18 22 25 27 26 23 22 22 25 26 21 18 20 24 26 30 32 33 34 35 36 38 40 43 45 47
24 27 34 37 34 32 30 25 22 23 24 21 20 20 20 18 16 17 18 23 28 26 25 25 27 26 26 26 24 23 24 25 26 29 33 35 37 38 38 40 42 44 44 41
32 37 39 37 32 30 27 27 24 21 20 19 18 17 17 16 17 17 20 22 24 26 27 32 33 31 29 25 26 21 19 22 27 31 34 36 38 41 42 40 38 37 38 40
26 28 33 32 30 28 26 24 22 20 19 18 17 17 18 20 19 21 23 21 20 18 22 26 31 28 25 22 25 28 32 35 33 35 40 41 41 41 41 41 42 43 41 38
30 32 30 29 28 27 25 23 20 19 19 18 16 14 16 16 14 15 19 23 25 24 19 21 20 17 20 22 24 28 32 34 37 38 38 39 39 40 41 44 47 45 41 37
30 30 30 28 27 25 22 20 19 17 18 18 11 10 9 13 14 12 21 29 27 24 25 19 21 24 24 24 28 31 33 35 36 37 38 37 37 37 34 34 35 37 44 45
23 23 24 25 26 25 22 21 19 18 18 15 12 12 13 12 12 11 12 12 16 16 14 17 21 24 28 32 35 35 36 34 34 34 34 35 38 40 41 40 36 35 34 37
22 26 26 26 28 28 25 21 17 14 13 10 9 9 11 13 13 12 14 16 15 17 19 21 23 24 24 26 28 28 31 33 37 40 40 42 41 43 40 40 39 33 32 34
24 25 25 28 26 21 16 14 12 10 8 7 7 7 8 9 9 9 10 12 14 15 17 17 18 20 23 27 30 34 33 26 23 24 27 32 36 37 34 32 29 30 30 31

GFSNW_500_spd_084.txt.gz
Wind_Speed
33 34 36 42 45 47 47 47 45 43 42 43 43 40 34 31 29 30 27 26 25 23 26 24 26 24 32 30 26 23 22 18 10 7 19 25 28 31 40 38 42 47 21 31
28 30 31 36 41 43 45 46 45 43 43 43 41 37 36 32 31 31 29 28 26 24 27 28 26 30 33 30 27 28 23 21 14 12 10 19 33 25 22 35 35 23 31 31
19 21 21 29 36 39 41 43 44 42 42 42 41 38 36 33 32 32 31 30 29 28 28 29 30 31 33 31 30 28 26 23 18 12 2 12 13 28 23 26 30 29 26 23
8 7 13 25 32 35 38 38 37 39 41 40 37 37 36 34 34 33 32 32 31 31 31 31 33 32 34 33 31 29 32 23 24 19 13 16 13 16 19 27 29 29 32 29
6 4 9 20 27 32 34 33 32 37 39 40 39 38 36 36 34 32 33 34 34 35 36 35 37 36 38 38 36 33 34 29 27 26 24 21 20 22 16 19 13 23 21 24
9 9 10 14 20 28 29 30 33 36 36 37 39 37 36 34 33 31 31 28 32 34 31 41 41 40 39 39 37 36 37 34 29 28 31 30 27 20 19 25 27 24 24 21
6 11 14 17 20 22 24 26 29 32 31 33 32 32 33 29 26 30 26 22 24 28 34 38 41 41 40 40 37 35 39 38 37 30 30 33 27 23 20 16 21 23 14 19
8 8 8 16 21 24 25 26 29 29 28 28 25 23 20 28 21 21 24 21 20 27 30 31 30 32 39 38 38 37 38 42 41 38 32 31 26 21 25 26 22 20 24 25
10 11 12 13 12 15 23 26 27 27 27 26 27 26 22 28 25 28 30 33 36 32 29 26 23 19 19 25 34 36 38 38 46 46 44 43 37 34 36 32 26 31 29 27
17 15 15 14 17 17 14 12 23 29 29 26 26 27 22 32 31 23 26 31 24 24 23 25 24 20 18 18 17 21 29 33 36 38 39 39 34 38 37 33 32 34 37 40
21 20 18 18 18 19 21 14 15 17 24 23 25 26 23 37 39 29 27 21 22 27 22 17 21 20 21 21 18 12 17 22 29 30 32 33 29 28 25 25 25 29 31 33
25 25 23 21 20 22 25 24 16 13 21 20 25 29 26 35 40 37 25 21 24 25 19 24 22 23 21 20 23 22 16 14 17 20 17 19 23 26 30 28 29 28 26 29
32 30 25 27 25 25 27 26 21 23 20 23 25 24 25 37 42 40 25 17 19 18 19 25 24 24 20 19 20 17 18 15 9 14 11 11 12 22 25 25 29 27 25 25
35 30 26 27 28 25 29 29 25 26 21 20 18 24 28 37 42 36 25 24 22 22 21 23 22 22 19 19 18 22 16 16 21 21 20 10 15 20 17 21 22 25 24 23
36 32 27 28 23 25 28 28 23 19 21 15 23 25 32 34 42 31 24 24 22 25 23 20 20 21 20 20 18 25 26 29 26 28 29 22 23 25 27 29 25 26 25 25
37 35 29 27 27 28 31 31 26 23 20 13 19 22 31 32 40 29 23 21 25 26 30 27 20 20 18 16 16 21 23 26 27 29 32 38 32 34 29 29 33 31 29 29
29 32 28 29 31 29 29 24 19 25 24 24 15 16 25 31 35 22 24 23 21 24 26 24 22 17 18 16 19 18 21 27 27 30 33 33 34 34 35 35 34 34 34 35
27 29 30 32 31 28 24 26 29 33 31 27 23 17 26 30 24 23 22 22 23 26 27 23 22 20 21 23 24 22 20 24 26 30 32 29 31 33 35 35 35 35 36 38
30 34 35 34 30 25 27 32 34 34 31 30 28 20 16 15 18 20 19 19 22 22 21 21 19 21 26 26 24 27 30 28 26 28 29 29 30 32 34 35 35 37 39 41
27 28 32 31 27 31 31 32 35 32 29 27 23 19 17 17 17 17 19 18 20 23 25 22 24 25 26 27 25 20 22 25 27 29 30 30 33 34 35 36 37 38 40 41
25 30 31 34 36 34 32 31 28 27 24 20 19 15 17 17 16 16 17 20 21 23 22 22 23 24 25 26 25 23 24 26 27 32 35 35 36 36 37 38 38 38 40 42
23 28 36 38 35 32 30 27 25 21 18 17 16 16 15 16 16 17 17 19 20 22 22 24 29 26 24 24 23 20 22 25 28 32 35 38 40 41 42 41 42 43 43 44
34 33 34 32 30 27 25 22 21 19 18 18 17 17 16 17 14 11 15 20 22 22 23 23 19 19 19 22 26 30 29 27 29 31 33 36 39 40 42 44 43 44 42 42
25 29 31 30 26 21 17 16 17 19 19 17 14 12 12 12 14 14 11 13 18 21 21 19 19 19 19 22 24 26 30 31 32 34 37 40 42 43 43 44 43 42 42 40
20 24 24 23 23 24 22 20 18 17 17 13 10 10 11 12 11 9 6 7 11 16 19 24 27 22 22 24 28 30 33 36 38 38 42 41 38 39 41 42 44 44 44 47
22 23 24 23 21 20 18 17 18 20 15 11 9 9 10 9 10 8 9 10 10 14 17 18 21 24 27 30 32 33 32 33 35 37 39 42 43 38 40 44 47 48 50 49
23 24 24 24 24 21 20 18 15 13 10 9 8 6 5 5 7 9 11 12 15 16 18 20 22 24 25 27 30 32 33 33 32 30 29 33 35 35 35 34 31 30 31 32

GFSNW_500_spd_087.txt.gz
Wind_Speed
33 33 29 26 30 30 32 39 38 37 37 39 39 37 31 31 29 26 24 24 25 25 23 25 23 25 23 23 20 21 20 16 17 15 15 25 44 38 32 35 37 36 32 26
30 29 28 23 23 26 29 37 35 35 35 38 38 36 31 31 27 27 27 23 24 24 24 29 24 27 24 20 19 21 20 18 16 13 7 6 25 37 43 37 33 38 38 36
27 24 22 18 19 23 27 33 32 33 33 34 35 34 31 30 28 29 29 28 28 26 27 29 28 26 28 20 19 20 19 19 17 16 15 9 12 25 26 28 31 33 30 36
22 19 12 8 12 18 26 32 33 34 36 30 31 32 32 32 31 30 29 27 28 28 29 29 28 28 27 25 21 22 21 20 19 17 21 18 9 14 23 24 23 33 32 29
16 14 10 4 7 16 24 29 31 35 36 37 37 33 30 29 29 30 30 29 30 30 30 30 30 31 30 27 26 22 23 23 24 24 21 24 15 8 25 28 23 23 30 27
15 11 9 3 5 9 15 21 26 30 32 35 36 35 34 32 31 30 29 30 29 28 30 32 30 30 31 28 27 25 23 25 29 24 24 24 19 19 25 21 25 31 22 21
12 10 8 8 6 9 13 18 23 28 28 33 34 33 33 34 32 29 30 30 29 26 30 27 31 33 33 32 31 30 27 25 28 26 26 26 18 20 19 18 13 16 19 24
10 8 8 6 8 9 13 19 20 23 23 25 26 28 29 29 30 28 26 26 23 20 18 15 19 26 31 31 32 31 32 31 33 35 32 29 21 23 23 20 20 17 17 17
12 9 8 7 7 6 14 15 18 21 23 23 26 27 28 28 26 25 20 22 23 22 18 25 17 19 20 22 26 29 34 34 35 37 40 37 23 25 21 20 28 25 21 19
16 13 11 11 10 10 8 12 15 20 19 20 26 26 26 25 23 25 23 29 24 17 27 27 23 26 20 13 6 11 17 28 33 33 38 40 34 35 29 29 33 35 31 29
20 19 16 13 13 12 11 13 13 12 13 22 23 25 29 29 24 29 26 34 29 23 19 17 24 20 19 18 12 11 11 16 22 29 34 36 34 39 41 42 42 35 29 33
22 21 19 17 15 15 16 15 15 12 7 12 23 26 30 30 27 31 27 31 27 21 26 18 17 14 19 19 19 9 7 8 12 17 20 20 19 21 22 27 28 28 30 29
26 25 24 22 21 21 21 16 16 18 10 9 14 17 22 27 27 36 28 29 19 13 18 19 22 22 17 16 19 18 15 11 10 11 14 15 18 17 23 27 24 28 26 31
33 32 30 29 25 25 24 21 25 24 17 12 12 22 23 25 30 41 35 22 25 15 16 19 21 20 20 15 14 21 19 12 13 16 17 16 18 19 20 24 26 32 33 35
41 39 35 29 27 29 30 23 24 27 20 17 20 23 25 27 28 36 42 29 22 21 22 23 21 20 20 10 19 20 25 23 17 20 25 21 28 23 30 26 20 24 28 28
43 44 39 33 30 31 32 26 26 25 22 18 18 18 21 21 27 34 37 32 25 26 24 22 22 19 11 20 18 20 22 30 20 21 26 21 24 28 26 29 30 27 28 27
30 31 35 33 34 30 24 23 22 22 23 20 18 17 13 21 27 29 34 30 28 25 24 26 23 17 17 18 22 15 18 25 30 28 30 30 26 35 40 35 30 29 31 32
19 32 32 32 31 30 26 22 25 24 24 22 19 15 10 19 25 36 31 24 22 22 22 25 27 22 20 22 21 24 21 19 18 28 30 33 34 35 37 38 40 39 38 37
25 31 34 33 31 28 25 25 25 23 25 25 23 23 14 18 32 34 26 24 25 22 20 24 28 26 24 24 26 26 26 28 27 21 26 30 33 34 36 37 40 40 40 40
27 31 31 32 30 28 25 26 29 29 32 30 24 24 9 19 30 29 24 25 25 22 19 22 25 24 26 28 26 26 27 29 30 32 32 32 34 34 34 36 39 39 40 40
29 32 33 31 27 27 28 31 32 30 29 29 24 22 17 19 21 22 23 21 17 16 17 17 21 19 21 26 28 29 30 28 27 28 30 34 36 36 36 37 38 39 40 41
26 27 28 29 29 29 28 29 30 30 29 27 26 21 19 19 17 16 18 17 16 15 15 19 23 19 20 21 23 26 26 28 30 31 31 32 33 33 34 35 36 38 41 42
30 30 31 33 31 28 31 31 30 26 24 22 21 19 19 17 16 16 15 17 17 18 20 19 14 16 15 17 20 24 23 24 28 30 33 34 34 34 35 38 41 43 44 45
29 34 35 33 30 29 26 21 17 18 19 20 17 14 13 13 14 13 7 8 11 15 17 15 15 20 19 18 21 21 22 25 28 29 34 38 39 40 41 44 44 45 43 43
31 30 29 26 20 19 23 20 18 17 17 16 13 12 13 13 11 10 7 5 6 5 8 15 17 22 25 28 28 28 28 30 33 36 38 40 41 42 42 41 42 44 46 45
23 23 22 21 18 19 19 18 19 18 15 14 13 10 8 9 9 6 4 5 7 10 12 15 18 21 24 26 28 31 33 35 36 37 38 39 41 41 41 40 38 37 41 43
21 22 22 19 18 18 17 18 21 17 12 9 8 7 7 7 6 6 7 8 10 13 16 18 20 22 25 27 29 30 31 31 31 32 34 37 40 42 43 43 43 44 44 44

GFSNW_500_spd_090.txt.gz
Wind_Speed
37 37 34 34 32 26 23 24 21 22 30 32 33 36 35 35 39 38 34 35 28 28 29 31 29 27 27 28 28 20 18 17 13 12 16 12 17 27 27 32 38 39 32 23
36 34 32 32 28 20 18 18 17 22 30 32 33 35 35 35 32 35 33 30 31 31 30 30 28 27 27 26 23 19 19 18 15 12 11 5 5 21 36 28 31 34 38 31
32 31 29 29 24 15 13 14 15 23 27 30 34 34 34 34 35 33 33 30 27 26 30 31 30 29 31 32 26 21 20 19 17 16 11 14 12 12 25 37 32 31 26 30
28 28 25 25 21 14 9 12 19 28 25 25 28 31 31 32 34 34 33 30 28 27 24 26 26 29 29 28 26 23 22 20 19 18 16 18 20 16 19 20 34 43 32 33
25 24 22 20 18 11 0 13 20 25 27 26 17 24 30 29 32 31 30 30 30 32 33 33 29 27 28 28 25 23 23 21 20 20 19 24 20 12 16 27 22 28 29 32
22 20 20 15 13 4 6 8 15 22 31 32 30 26 27 25 30 30 31 28 29 29 29 28 30 28 28 25 25 25 23 21 22 20 22 25 23 19 11 9 25 25 26 24
19 15 14 12 6 4 6 11 18 24 26 33 34 30 30 31 32 32 32 30 28 26 29 28 29 29 29 28 27 27 24 24 23 22 27 30 20 17 12 4 14 28 23 28
17 12 9 9 7 4 7 9 12 18 23 28 31 35 35 32 30 29 27 27 27 28 28 27 26 26 26 27 27 27 28 28 27 25 28 29 20 15 16 18 18 13 14 15
17 14 9 7 6 4 7 11 12 15 20 20 26 30 30 28 28 25 26 27 28 25 25 22 22 18 16 18 24 28 29 31 32 29 32 32 25 27 21 22 20 16 16 22
17 16 13 10 7 6 5 6 14 16 16 20 23 24 26 26 26 24 24 24 24 23 23 24 20 20 20 15 13 13 11 18 28 29 34 35 30 34 27 27 23 17 22 18
19 19 17 14 11 8 7 10 6 11 18 22 21 23 23 24 24 23 23 22 23 24 23 20 19 21 22 20 14 16 12 12 14 20 32 36 29 34 34 33 33 24 25 27
20 19 19 17 16 13 10 12 10 9 9 14 16 19 21 23 25 24 20 23 24 30 9 15 18 17 19 17 22 11 10 14 18 18 22 26 23 29 31 35 36 35 34 36
22 21 21 19 19 16 12 14 18 16 11 9 10 21 24 26 24 23 21 26 16 23 14 18 19 17 16 20 25 6 5 10 12 9 9 14 16 18 19 26 27 31 33 33
25 26 25 23 23 21 18 15 19 18 17 12 8 12 16 21 24 22 26 20 23 26 19 15 20 14 18 17 17 5 16 17 9 12 12 15 21 22 24 24 28 29 20 30
29 30 30 29 27 25 24 19 21 23 20 15 13 15 13 20 20 20 34 26 18 32 20 17 17 13 17 12 16 11 8 22 13 11 19 17 19 20 22 23 29 25 34 32
36 37 36 36 33 31 29 25 25 22 25 25 18 14 15 17 19 22 38 36 23 24 24 19 14 15 13 7 20 14 16 20 23 21 12 26 31 29 31 37 32 22 31 34
34 34 33 34 37 34 29 22 19 25 24 25 19 20 15 15 21 25 32 42 28 20 21 19 17 21 16 6 13 18 16 17 14 12 19 26 20 19 24 29 29 29 29 29
25 29 29 28 33 36 31 26 26 20 21 23 20 14 14 15 19 24 31 37 38 26 22 19 20 24 19 15 14 17 20 21 20 18 14 22 28 26 27 29 29 32 35 37
16 24 29 33 36 33 28 24 26 23 22 17 13 14 14 13 17 22 26 32 28 23 19 20 21 24 25 19 19 22 24 28 28 24 23 24 26 26 28 32 34 36 37 37
29 35 36 35 31 29 29 23 25 24 21 18 23 18 13 10 9 20 28 25 20 19 20 19 22 25 28 27 25 28 29 31 33 33 33 32 32 32 32 33 36 39 39 40
31 33 31 30 31 30 25 25 24 23 26 30 25 18 19 10 3 18 25 22 18 17 20 20 21 20 23 27 27 30 31 29 31 33 34 37 41 43 44 44 43 42 40 41
26 28 33 35 32 29 29 27 24 28 33 30 24 24 23 19 13 16 19 18 22 20 17 20 20 16 19 21 22 25 27 31 34 35 36 36 37 37 38 37 36 36 36 37
32 34 32 29 29 29 27 27 33 37 29 26 21 18 19 22 20 21 23 20 21 19 16 15 13 15 14 16 19 21 22 24 26 28 30 30 30 33 35 36 37 40 42 44
27 28 27 26 26 22 23 26 29 29 28 24 21 17 17 20 18 18 17 14 11 10 8 13 18 17 17 18 20 23 24 24 26 27 28 31 34 36 39 42 44 47 48 49
23 22 22 21 21 25 27 26 26 24 23 22 19 19 17 18 16 10 6 4 3 4 6 9 11 14 17 20 23 25 28 30 32 33 35 38 40 42 43 44 44 44 45 45
20 22 22 20 19 21 19 19 21 20 19 19 17 13 12 11 8 8 7 5 7 7 9 12 15 18 20 23 26 29 31 33 34 36 37 38 40 40 41 42 43 44 45 46
19 18 17 15 18 21 18 19 19 17 15 13 12 11 11 11 9 7 5 5 7 10 11 12 13 15 17 19 22 24 27 30 33 36 39 41 43 45 46 47 48 49 49 50

GFSNW_500_spd_093.txt.gz
Wind_Speed
47 40 37 41 39 38 33 17 18 17 17 20 27 31 30 35 35 40 28 37 37 33 33 31 27 26 27 31 29 30 31 28 24 23 20 14 15 17 21 28 30 33 34 25
42 35 37 39 35 34 25 10 14 13 16 21 28 30 30 41 36 41 20 35 34 32 33 32 33 34 30 29 33 33 29 27 22 19 18 13 14 11 17 33 31 18 23 35
36 33 35 36 31 29 18 7 6 10 18 23 28 28 30 42 41 30 22 28 38 33 32 30 28 31 30 30 30 30 27 26 24 22 21 18 17 13 11 20 31 31 24 23
32 31 33 31 26 26 14 4 6 15 19 17 23 25 34 38 47 31 29 26 25 27 29 33 34 32 34 30 31 29 23 24 23 21 21 22 20 19 17 19 20 32 33 29
30 27 27 26 22 21 11 2 11 18 19 19 21 23 28 33 35 35 29 36 31 30 30 32 34 34 33 31 29 28 30 26 23 21 21 21 24 19 16 15 25 28 32 31
27 24 23 20 19 15 11 5 14 19 19 20 20 24 20 23 34 32 30 33 31 31 28 29 29 28 27 26 24 23 24 25 25 22 23 22 22 25 19 11 12 21 20 26
25 22 19 15 14 12 9 4 11 19 22 25 21 27 25 24 21 26 27 28 29 31 34 31 28 29 26 26 24 23 23 22 24 24 23 24 21 23 16 11 3 10 17 18
23 20 17 13 10 9 8 3 7 18 24 28 27 25 27 27 25 25 27 28 28 29 29 30 28 24 25 25 25 24 24 24 25 25 24 25 19 27 22 20 10 9 9 17
23 18 16 14 10 6 5 5 6 12 21 28 32 28 29 28 30 27 26 25 27 27 28 25 24 23 22 23 25 25 25 25 26 27 27 28 22 28 22 20 20 13 13 18
21 17 16 15 11 7 5 4 8 11 16 22 25 27 33 32 31 29 26 24 21 20 21 23 22 21 24 21 18 19 21 24 26 30 32 30 26 28 28 27 22 17 18 16
21 18 17 17 15 10 7 5 4 10 16 19 21 22 23 25 26 25 24 24 22 21 21 22 21 22 23 22 19 12 14 17 19 26 33 38 27 32 33 35 30 20 20 22
23 20 18 17 17 14 9 10 6 7 12 17 19 20 20 22 22 22 23 22 21 18 17 15 21 19 20 18 17 17 16 17 17 19 16 18 24 33 33 36 38 31 27 25
24 23 20 19 18 16 13 14 10 10 10 10 12 18 20 20 22 22 19 18 17 15 17 11 17 20 20 19 19 19 20 8 11 17 13 13 17 25 30 30 32 31 29 37
24 24 22 22 20 19 18 15 13 13 16 12 11 9 11 17 17 19 23 23 21 19 23 20 15 21 19 19 22 22 19 9 11 17 13 9 11 18 18 17 19 27 31 24
27 27 25 24 24 22 21 19 17 15 20 17 17 11 10 10 18 21 26 26 28 29 22 21 18 18 16 15 18 20 16 10 18 17 22 14 10 14 18 24 20 24 33 30
26 26 26 26 27 26 25 25 21 17 17 21 20 18 12 11 16 19 26 26 24 28 27 27 16 18 14 16 11 12 19 15 11 14 18 14 26 23 20 22 22 23 24 29
29 31 32 32 33 34 33 28 21 21 22 25 25 25 19 14 17 18 25 24 26 22 24 24 16 16 13 17 13 5 11 11 11 7 12 15 19 16 24 23 27 32 30 25
31 34 35 34 31 31 32 29 26 26 26 26 24 22 19 16 15 18 23 21 35 25 18 19 19 18 16 21 15 10 8 14 13 12 13 15 16 17 19 24 26 25 27 27
27 26 28 30 34 34 30 30 22 26 25 23 19 18 16 15 16 20 25 23 28 29 23 16 18 18 16 18 20 17 17 18 19 23 24 25 25 25 23 22 23 25 27 28
25 29 32 32 31 28 29 30 31 27 17 19 17 15 12 9 9 11 18 22 30 29 23 19 19 18 20 20 23 24 24 24 23 24 27 30 32 32 32 33 33 33 33 34
32 32 34 31 29 30 30 31 30 30 25 18 18 18 14 13 10 11 15 21 28 23 22 21 20 17 16 21 24 25 28 29 31 35 35 34 36 38 39 38 39 41 42 43
36 35 33 31 34 36 35 34 32 26 24 23 25 18 18 10 5 7 17 20 19 15 14 17 16 16 20 22 26 28 30 32 34 34 35 38 40 41 42 44 45 45 46 46
33 34 31 29 29 35 33 33 29 22 26 30 21 23 22 17 14 11 13 18 19 16 17 15 15 19 18 18 20 22 24 25 27 28 31 33 35 37 39 40 42 44 45 47
30 40 29 31 30 24 23 23 18 23 29 24 25 25 22 22 21 15 14 15 15 14 14 16 18 18 19 20 20 20 22 24 26 29 31 33 36 37 38 40 42 44 45 47
30 30 27 24 21 20 18 26 34 33 29 24 20 16 15 17 16 13 11 10 9 8 9 9 10 11 14 16 18 21 23 26 29 32 34 36 38 40 42 43 45 46 47 48
23 21 18 17 19 24 31 38 36 32 27 23 18 14 11 11 12 10 10 9 7 6 7 9 11 14 17 20 22 25 28 30 31 32 34 36 39 41 43 46 47 49 51 52
20 20 20 19 25 26 27 27 24 19 17 17 15 13 14 12 11 10 7 6 6 7 9 9 11 14 17 20 23 26 28 30 31 34 38 43 46 49 50 52 54 55 55 55

GFSNW_500_spd_096.txt.gz
Wind_Speed
48 50 48 48 42 45 48 49 43 18 10 11 13 15 21 26 34 21 21 20 36 21 28 30 31 33 32 33 33 33 32 32 33 32 30 26 25 23 22 22 22 25 29 26
46 48 46 45 40 43 45 43 31 10 10 10 9 19 23 30 35 21 18 14 34 31 35 32 23 25 30 31 32 31 29 30 30 29 28 25 23 21 18 19 25 24 30 27
44 45 43 41 38 39 40 36 19 4 5 8 11 18 21 33 37 21 17 9 30 27 28 30 26 22 19 21 20 28 27 27 27 27 27 24 23 20 17 17 20 25 32 28
43 42 40 36 35 33 34 28 14 4 4 9 9 15 20 25 30 16 15 1 10 23 26 31 31 37 30 20 20 22 24 26 25 26 26 26 23 22 21 20 20 22 22 32
40 39 37 32 31 28 28 21 10 0 5 7 9 14 19 25 16 11 15 10 10 24 38 27 23 26 22 24 26 23 22 24 25 19 25 27 22 24 23 16 16 25 19 18
38 35 35 28 26 22 23 15 7 2 7 9 12 15 18 19 17 10 28 12 11 10 12 22 27 26 28 27 26 26 25 26 28 24 24 23 21 19 20 20 15 22 19 19
36 32 32 26 21 18 19 13 5 7 10 11 15 16 15 18 24 26 22 26 16 21 18 15 18 21 25 27 25 25 22 23 26 27 25 23 20 19 18 17 17 15 11 11
32 30 29 23 18 16 15 11 7 8 14 16 17 19 17 14 13 16 19 18 18 21 19 21 20 23 22 22 23 23 20 19 22 25 23 23 20 19 16 17 17 11 7 5
29 28 26 21 16 14 13 12 7 7 14 21 19 22 21 21 21 16 17 18 19 19 22 23 27 29 26 26 28 27 27 27 23 24 23 24 17 20 21 18 19 23 14 13
27 26 24 19 16 14 12 11 8 8 10 16 23 24 23 23 21 22 17 17 18 19 22 22 22 23 23 23 19 18 19 20 21 24 25 24 21 22 24 21 20 21 23 17
25 25 23 18 16 14 14 9 8 9 10 10 16 22 24 22 25 24 24 22 23 21 20 20 20 18 17 17 19 20 16 15 15 19 21 21 23 24 28 26 25 25 25 25
25 24 22 19 17 15 16 13 9 9 8 10 11 16 20 24 28 28 26 24 22 20 20 19 18 19 17 18 19 21 20 17 14 16 17 18 16 21 28 30 29 30 31 27
24 24 21 20 19 17 16 17 10 8 9 6 9 13 15 19 23 23 24 24 22 22 20 16 15 16 20 19 20 19 18 17 14 10 11 16 16 18 26 28 28 31 33 36
24 23 22 21 19 19 20 15 16 11 11 9 8 5 8 14 18 18 22 21 19 17 17 17 15 17 20 22 20 18 18 17 15 16 16 14 13 15 19 19 20 26 30 31
25 24 23 22 20 20 21 16 19 15 13 12 12 9 7 8 13 16 21 23 20 17 15 16 21 11 16 19 19 21 22 20 16 12 10 19 18 13 12 12 15 16 18 19
26 24 24 22 21 22 24 21 20 18 12 13 17 15 13 8 8 14 20 23 24 25 19 17 19 16 14 16 16 13 16 20 21 11 8 13 13 22 21 18 19 20 19 19
25 24 23 22 24 25 24 20 18 20 18 17 20 20 16 13 9 11 18 22 25 26 30 25 24 18 13 15 16 15 9 13 15 13 11 13 11 13 12 19 21 19 16 21
24 25 26 26 27 29 28 26 23 23 17 23 21 20 19 16 14 14 16 18 23 21 21 25 26 23 17 13 18 14 8 9 11 13 17 16 15 13 12 13 15 16 18 22
25 26 26 27 31 29 24 26 28 28 25 28 22 20 17 16 14 15 17 17 21 25 22 22 22 20 14 14 14 15 15 11 11 14 18 20 23 24 24 25 25 24 24 24
27 31 33 35 30 29 26 25 27 28 29 27 24 20 17 15 14 15 17 20 23 21 31 22 18 13 13 13 16 15 20 19 19 19 19 22 24 26 28 30 32 33 33 33
29 29 27 24 27 27 32 31 29 29 25 23 20 17 15 13 11 10 9 13 22 18 26 26 19 12 15 18 18 19 21 22 24 25 28 31 32 32 33 36 37 36 37 38
21 23 29 31 28 29 33 34 28 29 25 20 19 16 19 13 8 4 8 10 11 19 19 17 14 14 18 19 20 20 23 28 31 30 30 32 33 34 34 35 37 38 40 41
31 30 30 33 32 38 37 31 33 23 17 21 21 21 18 12 8 6 10 15 18 17 14 11 12 14 14 15 16 18 20 23 26 27 30 33 34 35 36 37 38 40 41 42
27 32 33 35 32 22 28 22 18 18 20 22 26 22 13 13 13 13 8 9 11 13 13 9 12 14 17 19 18 19 22 24 25 27 28 30 33 35 37 39 40 42 44 46
29 26 27 26 28 22 23 24 25 21 21 26 26 19 22 21 17 9 6 7 9 8 9 8 7 8 8 10 13 17 20 23 27 30 32 34 36 37 39 41 43 44 46 48
25 31 27 17 21 21 25 28 23 26 28 26 22 20 18 15 14 12 10 8 7 5 6 8 10 10 11 13 16 19 22 25 28 32 34 37 39 41 43 46 48 51 53 55
24 22 18 17 19 20 23 24 27 32 27 21 18 15 12 9 9 9 8 8 6 7 8 7 10 12 14 17 20 24 27 30 34 37 40 43 45 47 50 52 54 56 56 57

GFSNW_500_spd_099.txt.gz
Wind_Speed
42 41 42 44 47 50 50 47 49 52 43 15 10 9 8 18 22 18 10 8 18 30 28 25 27 27 31 30 29 28 27 25 24 24 25 25 25 27 26 24 23 24 25 20
41 39 40 42 46 47 46 44 46 45 32 11 9 6 11 18 24 17 17 7 18 21 31 27 22 24 26 26 26 22 23 24 24 26 26 25 24 25 25 24 23 24 25 21
38 37 38 40 43 43 41 39 41 34 24 12 8 2 12 19 28 19 18 14 12 18 20 21 22 20 22 22 21 16 22 22 22 24 24 24 24 24 24 24 22 20 19 13
35 36 36 37 40 39 36 35 33 25 16 9 3 7 12 13 21 8 16 13 10 19 27 29 23 23 23 23 24 28 22 21 23 26 25 25 23 24 24 21 20 18 19 16
34 33 33 35 36 36 31 30 28 18 10 4 2 9 10 9 14 6 3 13 11 4 21 29 27 25 19 20 14 10 13 20 20 19 25 27 23 24 23 20 20 18 19 14
32 32 31 31 32 33 28 26 24 15 11 4 4 12 12 16 4 7 8 7 11 6 11 24 26 11 9 10 11 15 15 13 16 22 24 24 21 20 21 19 17 22 20 17
31 29 28 29 28 30 24 21 21 15 9 7 6 12 13 10 13 17 17 9 2 4 3 7 4 5 8 9 12 13 13 15 15 20 21 22 20 17 17 13 14 15 14 12
29 27 26 26 25 26 21 17 18 14 11 7 8 12 12 10 15 17 18 19 13 7 5 3 6 4 11 11 12 14 15 13 13 14 17 17 18 15 14 11 13 13 11 9
27 26 24 24 23 22 19 15 15 13 10 9 9 14 14 10 11 11 10 12 9 10 8 9 11 11 13 13 16 19 17 16 14 15 13 12 14 17 16 14 13 15 14 15
26 25 23 22 21 18 16 13 14 12 10 8 11 14 18 17 15 13 11 10 10 10 10 10 11 13 15 18 22 23 22 19 19 21 19 17 14 16 17 16 16 16 16 17
25 24 22 21 19 16 15 13 14 10 9 8 10 15 19 19 18 16 16 15 12 12 11 12 13 13 14 17 20 20 18 15 14 16 17 16 18 20 21 21 19 18 19 20
25 24 22 20 18 14 15 14 14 11 8 6 10 11 14 19 21 20 19 19 17 15 15 15 15 14 14 16 18 16 17 16 11 11 14 13 15 17 20 21 22 22 24 23
26 25 22 19 17 14 14 16 12 13 9 5 7 10 12 13 16 18 20 21 20 20 18 16 15 15 15 18 17 16 15 16 16 13 14 9 11 12 16 20 22 24 25 27
28 25 22 20 17 15 15 14 16 14 10 6 3 3 5 11 14 15 17 18 18 18 18 19 18 16 16 17 16 16 18 16 14 13 14 13 12 15 13 15 16 18 21 25
29 25 22 21 17 17 17 16 18 15 11 8 6 4 3 4 6 12 16 16 16 15 15 16 15 12 11 14 14 17 16 16 15 15 12 13 13 14 12 11 10 10 13 14
30 25 23 21 18 19 19 15 17 15 13 11 10 7 7 5 5 5 10 13 16 15 15 16 17 17 10 6 11 13 14 14 16 17 10 12 12 15 19 20 20 22 14 14
29 26 24 21 20 19 17 14 16 16 16 15 12 11 9 8 8 9 8 12 15 18 20 17 16 18 15 9 12 13 12 8 11 14 17 14 13 12 13 15 14 18 23 18
28 26 22 21 20 21 19 17 19 17 17 18 17 11 12 13 12 12 12 12 15 20 25 25 26 21 20 10 11 13 12 9 10 14 16 17 14 14 13 10 13 15 15 19
27 23 22 23 25 25 18 21 22 22 22 24 19 16 14 14 15 15 16 15 13 14 15 19 24 23 24 15 11 10 11 15 10 16 15 14 19 21 20 23 23 24 26 28
24 26 29 29 26 22 22 25 25 26 28 30 24 18 16 16 16 16 17 17 15 13 15 19 14 13 16 11 10 12 12 13 18 16 19 21 23 25 27 28 29 31 33 35
29 32 31 27 26 26 25 26 27 28 27 23 24 22 19 17 15 16 16 14 15 16 16 19 17 15 12 11 13 15 17 16 21 21 23 24 26 26 28 29 31 35 38 40
29 27 26 27 29 29 30 30 28 24 21 20 19 15 12 12 13 10 6 5 4 10 13 17 19 14 15 15 17 17 18 21 22 28 29 28 29 28 28 30 33 36 38 39
29 29 27 26 28 29 34 29 27 20 17 15 13 13 11 14 10 3 5 9 9 8 9 8 8 11 15 16 16 16 17 17 19 22 24 26 29 32 34 37 39 40 41 42
25 26 37 37 34 36 26 22 19 16 18 17 19 15 17 13 8 6 5 7 6 7 5 9 14 14 15 17 17 17 17 18 20 21 23 26 29 33 36 39 41 42 43 44
41 30 31 35 26 16 15 19 19 19 19 19 16 18 18 14 9 9 6 6 5 7 8 7 6 6 7 8 10 12 15 18 20 23 26 30 33 36 38 41 43 46 47 49
29 35 24 22 23 19 23 24 22 18 19 18 22 24 19 17 13 8 5 3 4 3 3 5 7 7 8 11 12 14 17 20 23 27 32 36 40 44 46 49 51 53 54 55
29 27 21 20 22 18 18 20 20 19 21 23 25 20 18 14 10 9 8 7 7 4 6 5 7 9 11 15 18 21 23 27 30 33 36 40 43 47 50 53 56 57 57 57

GFSNW_500_spd_102.txt.gz
Wind_Speed
37 36 36 36 37 39 42 46 46 46 48 48 29 12 4 9 16 14 16 16 10 23 23 22 22 25 25 27 24 25 24 22 20 24 23 22 22 23 22 22 22 21 19 19
37 34 34 33 34 36 39 43 42 41 42 37 19 8 6 15 16 21 22 19 10 14 16 25 18 20 20 20 23 23 23 24 21 22 24 24 23 22 20 20 19 19 17 19
35 34 31 30 32 33 35 38 38 36 33 27 11 5 13 17 15 20 17 16 15 17 16 23 20 19 20 17 17 17 21 22 23 21 20 19 18 17 19 20 19 18 17 13
35 29 27 28 29 31 32 33 34 30 27 20 8 12 15 15 5 13 10 14 11 25 22 22 29 16 16 24 19 16 17 21 22 21 19 19 18 21 20 20 20 16 15 13
29 26 25 26 27 28 29 29 30 26 22 15 5 17 15 12 4 2 6 15 11 12 32 33 28 32 28 27 27 20 29 17 16 18 22 21 20 20 20 20 18 18 15 14
25 25 24 24 25 24 26 27 26 22 20 10 4 14 18 8 13 2 9 13 15 10 18 23 27 26 30 31 25 22 15 16 16 15 15 19 20 21 19 19 19 18 16 17
25 24 23 23 22 22 23 23 23 19 17 8 4 9 19 14 14 8 8 2 9 10 6 14 16 19 13 18 14 10 9 8 7 8 13 17 17 17 16 17 17 15 14 11
25 24 22 22 20 20 20 20 18 16 14 8 6 8 15 15 17 15 15 17 14 9 7 6 8 9 8 6 4 3 6 6 7 8 10 13 15 16 15 17 16 14 13 10
25 24 22 20 18 18 18 17 16 14 12 8 8 9 12 13 14 12 11 8 5 4 2 3 3 2 2 3 3 2 2 6 10 10 7 8 14 15 15 15 16 15 14 14
26 24 21 19 18 17 17 15 14 11 9 9 6 11 12 13 13 9 7 5 5 4 3 2 1 3 5 5 6 8 9 9 10 13 14 13 12 12 14 15 17 16 15 17
24 23 21 19 18 17 16 13 13 10 8 9 8 9 14 16 17 16 12 11 9 7 7 6 4 5 5 8 10 10 12 12 11 12 17 19 17 16 13 14 14 16 17 17
24 23 22 21 19 16 15 13 11 10 8 8 8 8 11 15 18 18 17 14 14 12 10 8 7 6 7 9 12 11 13 14 12 11 12 15 18 20 20 20 19 19 21 22
27 25 23 22 20 17 15 13 11 11 8 7 7 7 9 11 14 17 18 16 16 16 14 13 11 10 10 11 13 13 16 14 15 15 13 12 14 15 19 20 21 22 23 24
29 26 25 24 20 18 16 15 13 11 9 7 6 5 4 6 9 10 13 15 16 15 15 14 13 12 12 13 15 16 16 15 14 14 14 13 14 15 17 16 16 16 19 21
29 27 26 25 21 20 17 18 15 12 10 8 4 4 1 1 1 5 9 11 13 14 14 13 13 13 12 13 14 16 16 14 14 14 13 13 14 16 17 16 15 13 14 14
30 29 28 25 23 21 18 17 15 13 12 11 8 6 5 3 1 2 2 6 11 13 14 13 12 12 13 9 11 12 13 14 14 14 14 15 9 17 14 15 18 17 16 16
33 32 29 26 24 21 19 15 16 16 15 13 11 7 6 7 6 4 4 3 7 10 15 15 13 16 15 12 9 10 11 10 8 12 14 18 15 13 16 17 18 21 21 17
38 34 30 28 24 22 21 18 19 19 16 16 15 12 10 7 7 7 6 6 6 10 13 16 17 14 14 16 11 10 12 13 12 14 16 16 16 15 15 16 17 19 20 19
41 36 32 28 26 24 20 21 21 20 20 17 15 16 14 9 9 10 11 11 11 11 14 19 23 22 19 18 15 11 11 14 16 14 16 20 20 20 21 22 21 22 23 25
40 37 33 30 27 25 22 22 23 23 23 19 15 14 14 13 12 12 13 15 15 13 15 17 15 15 15 22 18 13 11 11 13 15 16 18 23 22 22 25 28 30 32 33
37 34 30 29 27 24 24 23 25 25 24 20 17 18 18 18 15 15 15 16 17 13 14 13 9 10 13 16 15 12 14 15 14 16 19 22 22 24 27 31 32 34 35 36
32 31 32 29 29 28 28 27 27 23 20 15 15 18 19 16 14 13 12 10 7 8 13 10 13 15 14 11 11 13 15 17 18 19 20 23 28 31 31 30 31 34 37 39
33 33 32 33 32 33 30 27 23 19 15 12 15 16 14 13 10 8 5 5 6 5 8 8 12 16 15 17 18 19 17 17 19 21 22 24 27 31 33 35 37 38 40 41
33 33 35 35 33 29 23 17 15 14 13 10 16 17 14 13 14 9 6 9 6 9 9 10 10 12 15 17 17 17 17 16 16 17 19 22 24 27 29 32 35 39 42 45
35 32 31 31 30 20 17 17 15 15 18 17 18 16 16 19 13 12 12 8 5 5 6 7 6 4 4 5 7 8 10 12 14 16 20 23 27 31 35 39 43 47 51 54
36 32 24 27 25 19 20 20 18 16 17 21 18 18 21 17 15 13 9 7 2 2 3 2 3 2 3 4 6 9 12 16 20 24 28 31 34 37 40 43 49 53 56 58
23 22 15 25 25 19 19 24 18 18 19 18 20 23 21 16 13 7 4 4 6 4 4 3 2 4 6 9 14 18 22 25 28 30 33 36 38 40 44 48 52 53 55 55

GFSNW_500_spd_105.txt.gz
Wind_Speed
32 32 31 32 29 28 28 30 35 39 39 39 41 26 15 16 22 23 23 20 10 16 6 8 18 18 13 26 29 39 24 19 19 16 22 22 21 21 24 24 24 23 20 19
31 30 31 29 27 24 25 28 32 34 34 34 34 8 13 10 15 15 17 17 17 11 11 11 16 17 13 18 23 22 24 19 15 16 22 23 21 24 25 21 18 19 18 15
31 32 29 27 24 21 22 25 29 29 29 28 26 3 13 8 12 12 16 11 12 5 18 5 16 12 17 14 16 24 20 17 17 18 14 19 20 19 21 21 19 19 15 24
33 31 27 22 19 19 20 23 25 24 25 23 19 6 17 2 4 8 13 8 10 17 14 21 18 15 15 13 17 19 22 19 22 17 20 19 19 19 19 19 17 14 18 21
31 29 25 20 16 17 19 21 22 21 20 20 15 10 20 8 3 7 11 14 12 17 20 21 19 20 15 17 10 13 18 20 24 16 19 19 17 17 16 15 15 17 17 19
32 21 19 16 16 17 17 18 20 18 17 17 13 9 27 15 8 5 3 13 17 9 17 18 22 18 16 18 16 25 18 12 18 17 16 16 17 19 15 15 19 16 16 17
22 18 17 17 18 16 16 17 17 15 16 15 12 8 26 28 20 11 9 5 12 14 10 23 20 24 23 25 22 23 17 32 22 22 19 18 18 17 15 19 13 15 15 16
20 18 18 19 18 17 15 16 15 13 14 13 12 9 14 27 28 25 20 17 18 12 10 10 15 17 21 15 14 13 10 10 10 7 7 8 13 14 15 16 13 14 15 16
21 19 20 20 19 17 16 15 14 12 13 12 12 10 12 17 23 18 24 25 17 13 6 8 9 10 13 13 11 8 7 4 5 5 6 11 14 12 15 13 15 16 16 17
21 21 23 22 20 18 16 15 13 12 12 12 10 10 11 14 18 16 17 20 16 10 3 1 3 5 6 7 6 6 4 4 5 10 12 11 9 11 13 15 18 17 17 17
26 26 24 22 19 19 18 14 13 12 12 11 10 9 10 13 17 19 15 17 16 10 7 6 3 2 1 1 2 3 1 1 3 5 14 15 16 14 12 14 16 18 18 18
26 25 24 22 20 20 19 15 13 13 12 12 10 9 10 9 15 18 19 17 15 14 12 11 9 7 5 3 5 5 5 4 5 7 11 16 19 20 21 19 18 17 18 18
26 25 24 22 21 21 20 15 15 14 12 13 10 8 8 9 10 15 17 18 18 18 18 16 13 12 10 10 11 11 10 9 8 9 13 13 15 17 19 23 24 24 25 25
28 27 26 25 23 23 20 17 17 15 12 12 10 7 6 6 7 9 13 16 17 16 16 17 15 14 15 14 13 12 13 12 11 11 15 17 16 16 16 17 19 20 21 23
30 29 28 26 25 23 22 19 17 16 14 12 9 6 5 4 3 4 9 11 14 15 15 15 13 14 14 14 14 12 12 12 13 15 17 16 17 18 19 18 18 18 18 18
32 31 29 28 26 25 21 20 17 16 15 15 11 10 8 7 4 2 1 6 11 13 15 16 16 14 13 13 11 12 13 13 16 16 18 18 17 17 19 18 19 21 20 19
34 32 31 29 27 25 22 19 19 19 18 16 14 11 9 8 8 6 3 1 4 9 12 13 15 15 16 14 11 11 13 14 14 15 17 18 19 21 16 17 21 20 20 23
35 33 30 29 28 26 24 20 20 20 19 18 16 13 10 8 7 7 4 3 4 5 8 12 15 14 14 15 16 12 11 12 14 14 13 14 16 15 19 18 18 20 21 22
39 36 33 32 30 28 23 21 23 24 21 18 15 15 13 11 9 8 8 7 7 7 10 13 16 18 18 16 19 17 12 13 14 17 18 16 17 22 21 22 24 24 25 25
44 42 38 34 32 28 25 24 24 26 25 19 15 15 13 11 10 10 10 11 13 11 13 16 16 16 18 22 22 21 16 13 13 14 17 19 17 18 25 24 23 27 29 31
47 45 41 39 34 30 28 27 28 28 23 17 15 14 14 13 13 14 14 15 16 16 12 11 9 9 13 15 19 20 15 14 15 16 17 18 19 22 24 26 29 30 32 35
40 41 40 38 35 33 30 30 29 25 20 14 14 17 16 15 13 12 12 14 15 11 9 7 9 12 9 8 11 13 13 15 17 19 19 19 21 24 27 30 34 37 39 39
40 39 39 38 37 33 31 29 24 15 8 9 14 18 17 16 13 12 11 9 8 5 4 8 12 15 12 10 10 12 15 18 19 20 21 22 24 27 29 30 31 34 36 38
40 40 39 37 34 31 27 18 15 12 12 16 19 19 16 15 14 12 8 7 5 5 7 7 10 14 12 14 16 18 18 16 16 16 16 18 20 23 26 28 31 35 38 42
40 39 37 36 28 25 21 16 15 17 20 23 16 17 17 17 15 15 12 8 6 5 6 7 7 10 11 9 8 8 9 10 12 15 18 22 26 29 32 35 37 40 44 48
37 34 32 29 27 23 18 16 20 20 20 23 19 20 19 18 17 16 15 10 8 4 6 7 6 5 3 2 4 6 9 13 17 21 24 26 29 32 34 38 41 46 49 54
36 27 25 22 21 21 22 21 20 20 16 18 20 19 17 18 17 16 11 8 6 7 5 3 3 2 2 3 8 12 15 17 21 23 26 28 31 33 35 39 43 48 52 53

GFSNW_500_spd_108.txt.gz
Wind_Speed
28 29 28 27 25 24 25 22 20 21 26 28 28 28 16 13 10 13 14 20 15 14 12 5 12 13 13 12 17 8 5 9 16 10 14 24 18 24 24 29 25 23 24 23
30 29 28 26 24 23 23 18 16 19 22 24 24 22 13 9 9 13 13 19 23 17 15 3 12 10 11 22 23 17 10 0 18 16 16 23 19 26 33 19 24 31 17 14
31 29 27 26 25 22 19 15 15 16 19 20 21 20 10 9 12 14 12 14 16 15 16 10 20 8 9 11 16 21 21 9 16 16 15 18 19 24 23 27 18 26 21 15
31 30 27 25 24 19 15 14 13 14 16 17 17 16 7 10 11 13 14 16 16 8 8 6 5 2 5 7 14 15 23 12 12 9 12 17 19 19 19 17 18 19 21 25
33 31 27 25 24 17 15 15 11 13 14 15 14 12 8 16 12 11 13 18 14 6 11 8 4 5 2 6 11 16 12 14 13 16 22 21 17 21 21 20 20 20 21 21
30 28 26 26 19 16 16 14 12 13 13 14 12 11 10 18 19 18 14 10 6 10 4 6 6 7 4 9 6 13 17 13 21 9 15 20 17 15 17 15 17 22 23 18
29 27 26 21 19 16 16 14 14 13 13 12 11 10 11 13 25 21 17 10 4 12 6 9 12 11 9 9 13 9 12 7 12 12 8 10 13 15 16 15 16 15 16 17
29 26 23 22 19 19 17 16 15 13 13 12 11 11 11 13 16 23 22 15 10 7 9 7 7 17 14 14 16 17 21 23 11 12 16 16 13 14 13 14 13 12 15 16
26 24 23 22 21 19 18 17 16 15 14 11 11 12 12 12 13 16 23 23 17 6 10 5 6 9 18 15 5 11 13 13 14 12 8 7 7 7 11 11 13 14 15 16
27 27 26 23 21 22 18 18 17 15 14 11 11 13 13 12 13 15 15 20 25 20 13 7 5 3 7 10 9 8 8 6 4 5 5 7 7 7 9 12 15 14 15 17
29 29 25 23 23 22 20 19 18 16 14 11 12 13 13 13 12 13 12 14 19 26 20 13 7 3 3 3 2 4 6 7 4 5 7 10 10 10 10 11 11 13 14 17
30 26 25 25 25 22 21 20 18 17 14 13 13 13 13 12 11 12 14 15 17 19 18 14 13 8 6 5 2 3 5 4 4 4 6 8 10 13 15 16 14 14 15 15
26 26 26 26 24 23 22 20 20 17 13 15 13 13 12 12 10 9 13 15 18 19 19 17 15 14 10 11 10 6 7 7 8 7 8 10 11 13 16 17 20 21 21 22
29 28 27 25 24 23 23 22 20 17 14 14 14 12 13 12 8 9 10 12 15 18 19 21 19 19 17 16 14 12 10 9 10 10 11 12 14 16 17 17 18 19 19 20
29 28 27 26 25 25 24 23 20 16 14 13 13 13 12 9 7 7 8 9 11 14 18 19 20 15 18 18 17 18 16 14 13 13 14 15 15 17 19 20 19 19 19 19
30 30 29 28 27 26 25 22 20 17 15 14 13 9 9 10 7 6 6 7 9 10 14 17 18 19 19 18 13 15 14 14 14 14 14 16 16 19 19 19 20 20 21 21
33 32 30 29 28 26 22 22 21 18 16 15 16 14 12 10 9 8 6 6 5 7 10 13 16 15 16 19 14 14 15 13 14 14 15 16 15 19 20 21 21 21 22 22
35 33 32 31 29 27 25 23 21 19 18 18 16 15 12 10 7 6 6 5 6 5 7 11 13 14 17 18 19 16 13 12 12 12 14 14 15 16 18 20 22 24 22 22
35 35 34 32 30 27 24 23 21 21 19 18 15 16 13 12 9 6 6 6 7 7 7 9 10 13 16 14 19 17 15 11 11 14 16 16 18 16 16 19 23 24 24 26
37 35 34 32 28 27 25 24 23 23 22 18 14 15 12 12 9 10 9 9 9 9 11 13 12 13 16 19 19 17 18 15 11 13 15 14 16 19 21 19 20 25 31 28
39 37 35 33 30 28 26 26 26 24 20 15 15 14 14 12 10 11 12 13 14 14 15 15 9 10 11 12 17 22 21 18 15 15 15 17 19 20 22 23 24 26 29 32
40 39 38 36 33 32 31 30 28 24 18 13 15 15 14 14 13 11 11 13 12 12 10 9 6 5 4 3 1 7 13 14 13 15 18 21 21 21 23 25 28 32 36 38
40 38 39 39 38 38 35 29 26 19 8 9 16 19 19 17 13 11 13 13 11 9 10 4 5 5 7 4 4 4 5 10 15 19 20 20 20 20 21 23 26 29 32 36
37 38 38 38 38 38 34 28 18 12 14 17 20 21 17 14 14 13 12 9 6 5 3 6 6 9 7 6 8 12 15 16 12 11 13 15 18 21 24 27 30 33 36 39
37 39 36 35 33 32 29 22 17 17 19 20 20 20 18 18 15 14 11 8 5 4 4 4 5 6 8 10 9 7 7 8 10 12 14 18 22 26 28 31 33 36 39 42
36 39 40 32 34 28 27 22 19 17 19 20 21 21 19 19 18 15 12 12 9 3 5 6 6 5 5 4 3 5 7 9 13 16 19 22 25 29 32 34 36 38 40 45
38 40 40 34 33 29 22 20 18 20 21 20 21 19 16 16 16 14 15 16 8 7 6 6 5 5 4 2 3 6 10 14 17 19 22 28 32 34 36 38 40 42 45 48

GFSNW_500_spd_111.txt.gz
Wind_Speed
46 41 34 23 19 18 15 14 12 12 12 13 13 18 21 21 21 19 19 23 28 29 25 25 5 5 18 5 12 2 12 14 15 9 10 12 16 18 31 26 26 11 19 21
44 37 28 22 20 18 15 12 12 12 11 11 11 14 17 15 17 18 16 21 23 25 20 16 11 3 6 6 10 12 3 13 10 11 12 11 14 20 27 26 26 12 14 13
41 33 26 23 21 18 14 12 10 11 9 9 10 12 14 13 13 17 14 18 20 25 24 15 3 7 4 10 12 11 2 5 9 11 9 11 13 14 28 18 17 19 14 12
37 31 27 23 21 18 15 11 10 11 9 9 9 10 11 10 11 14 15 16 18 21 18 13 3 11 5 8 13 11 11 7 3 6 8 15 11 16 14 24 20 18 6 18
36 32 27 26 23 19 15 12 12 11 9 8 9 9 8 9 12 13 12 11 14 19 14 13 13 2 6 2 7 4 5 7 9 12 14 19 13 28 11 18 23 16 24 11
35 32 30 26 25 18 16 14 14 13 10 9 9 9 8 9 11 13 17 11 9 14 10 7 14 13 8 5 3 9 9 6 6 23 24 18 15 19 18 16 20 17 14 14
34 33 31 26 23 18 18 17 16 15 12 10 10 10 10 10 11 12 17 17 9 9 10 6 12 10 8 5 6 5 10 9 3 7 8 16 13 6 7 14 12 14 16 17
37 33 29 26 21 21 20 19 19 17 13 11 12 12 11 10 11 13 14 16 13 11 9 4 6 11 8 10 9 8 10 12 2 7 15 19 8 6 7 9 12 14 17 17
32 33 29 25 23 23 21 22 19 17 14 11 14 11 11 11 11 13 13 12 16 11 5 4 2 5 9 6 5 5 7 10 10 9 18 11 5 2 6 8 11 14 13 14
36 32 29 27 26 24 23 22 20 18 15 14 15 12 11 11 11 11 13 9 12 18 10 1 2 5 6 3 5 11 11 9 7 8 7 10 5 3 6 6 8 9 12 14
35 31 30 29 27 26 24 21 20 18 18 15 15 12 12 11 11 12 13 11 10 16 19 13 7 3 7 3 5 5 7 7 4 4 3 5 5 6 7 6 6 8 10 12
35 34 32 30 28 26 25 22 19 20 17 16 14 12 12 11 12 13 12 12 10 12 17 18 17 12 4 4 6 4 6 3 5 5 4 3 5 9 11 12 12 11 12 13
35 34 33 31 28 28 24 21 21 19 17 16 14 14 13 12 11 12 11 12 11 12 17 19 19 19 15 12 8 3 4 6 8 7 7 5 4 6 9 12 14 15 18 20
32 34 34 32 28 27 23 20 21 19 17 16 14 14 13 12 11 10 10 11 10 11 18 20 22 23 21 18 15 12 10 7 8 9 9 9 9 9 11 13 14 15 17 19
38 36 33 29 28 24 23 23 20 18 16 14 12 12 10 10 9 8 7 8 9 10 14 18 20 22 22 22 21 17 15 14 14 15 13 13 13 13 14 16 17 18 18 20
37 33 31 28 27 25 23 21 20 18 17 15 14 13 11 8 7 7 6 8 7 8 9 14 16 17 20 20 21 21 20 19 19 19 18 18 17 17 18 18 19 20 20 20
32 32 30 28 27 24 21 21 19 18 16 16 14 12 12 9 7 7 6 7 8 7 5 9 13 15 17 17 19 20 19 19 18 18 18 18 18 18 18 19 19 20 20 21
33 31 30 28 26 24 23 21 20 19 18 17 13 11 11 8 6 6 6 6 5 5 5 6 10 12 16 16 17 20 16 12 11 12 12 12 12 14 14 15 16 18 18 20
33 32 31 29 28 24 23 22 20 21 19 15 12 12 12 9 9 8 7 7 6 6 6 5 6 10 13 14 16 18 17 14 11 10 10 11 12 13 14 16 15 17 19 22
35 33 32 29 26 26 23 23 23 22 19 14 12 11 11 10 9 9 11 11 9 8 9 10 10 12 12 14 16 18 17 15 12 10 9 10 13 14 15 16 18 21 22 24
36 35 33 30 27 25 26 25 24 22 16 12 11 11 12 10 10 10 10 12 12 12 12 11 10 9 5 8 13 18 17 13 14 14 13 14 16 18 20 22 22 23 25 28
37 35 33 30 29 29 29 27 26 20 16 10 11 11 13 13 11 10 9 10 10 9 11 8 6 1 1 2 2 5 11 12 11 11 12 15 19 21 22 22 22 23 25 27
39 37 36 34 33 33 31 28 20 13 7 11 16 15 16 15 14 12 12 11 12 11 10 8 3 3 7 5 6 6 5 2 5 10 15 16 15 15 17 20 22 25 28 31
39 39 38 38 35 33 30 23 17 10 15 19 20 20 18 15 14 12 11 11 10 7 4 5 4 6 7 3 1 4 7 8 7 6 8 10 12 16 20 23 26 28 31 34
37 38 38 37 35 32 30 24 16 17 20 23 22 20 15 13 12 12 11 10 6 3 3 2 4 6 4 3 5 3 2 3 5 6 8 12 17 19 22 25 28 31 34 37
34 32 33 32 33 32 27 22 19 18 23 23 21 17 14 13 14 12 12 9 8 6 4 4 4 4 4 2 2 0 2 3 5 8 12 15 20 24 28 31 34 37 38 40
28 28 28 29 30 29 25 25 24 21 22 22 19 15 15 14 12 10 10 11 16 8 8 5 6 5 5 4 4 4 3 6 10 14 18 23 27 30 33 37 40 42 42 43

GFSNW_500_spd_114.txt.gz
Wind_Speed
39 41 33 36 37 32 26 20 18 16 13 10 8 7 9 14 17 18 20 15 13 14 15 18 17 17 16 13 8 13 22 19 5 2 9 0 9 16 19 25 24 23 12 19
33 33 39 39 36 32 25 22 20 17 14 11 8 7 6 10 14 14 15 15 11 13 8 18 12 7 13 12 11 14 23 16 7 4 8 3 8 13 15 21 17 10 7 12
34 41 42 40 38 30 25 21 19 17 14 11 9 8 7 8 11 12 13 16 14 14 10 11 6 11 10 14 13 12 15 8 4 2 3 3 10 8 13 21 19 10 10 16
43 47 44 40 36 28 24 22 19 17 14 12 10 9 7 8 10 10 12 13 14 9 9 4 9 7 10 12 11 13 14 7 2 4 4 6 8 5 8 19 17 16 11 2
49 50 43 41 32 27 24 22 20 18 15 13 11 10 10 9 10 10 11 14 14 11 8 7 8 10 11 9 7 5 3 24 12 11 13 11 12 6 18 18 18 14 7 0
53 48 44 39 31 27 23 22 22 20 18 16 11 12 10 11 10 9 10 13 13 12 9 10 12 10 6 3 4 9 8 9 15 16 20 26 24 20 17 15 15 11 8 9
53 45 43 35 30 27 27 24 22 20 20 15 11 12 11 10 10 10 11 11 13 10 9 11 11 7 7 5 7 3 12 7 4 5 12 16 14 9 4 3 6 10 9 11
53 44 43 32 32 31 27 25 25 22 20 15 13 11 12 10 12 9 11 12 10 11 9 10 10 11 9 8 8 6 4 8 6 10 14 14 10 5 3 2 5 7 9 9
46 48 40 36 34 30 27 26 25 23 20 16 14 12 12 11 12 11 13 12 9 13 9 5 3 6 4 6 6 4 3 5 5 14 19 10 3 1 3 4 5 7 11 10
51 43 41 38 33 30 29 27 24 22 20 19 13 12 12 13 13 12 12 11 9 13 14 9 5 9 6 3 3 7 18 15 14 12 20 10 6 5 2 3 4 6 7 9
48 43 40 36 32 31 29 25 24 23 21 17 14 13 14 13 14 11 11 10 9 7 19 14 8 9 3 5 7 9 8 10 11 10 9 10 7 5 5 2 2 3 5 7
46 42 41 35 34 30 27 24 25 23 19 17 15 15 14 13 13 10 9 10 10 7 15 22 17 13 8 4 4 3 2 4 5 6 3 5 5 5 5 7 7 9 10 10
36 40 37 35 33 29 26 26 24 20 20 18 16 13 13 12 11 10 10 10 11 9 9 20 23 20 16 14 8 6 5 5 5 5 4 4 4 3 4 5 8 10 11 13
35 38 39 35 33 30 27 24 22 21 20 16 14 15 13 10 10 9 9 10 10 10 10 14 22 23 23 21 18 12 9 4 3 3 4 5 6 5 5 6 9 10 12 14
40 40 37 37 34 30 26 25 22 20 19 15 15 15 10 8 8 6 7 9 9 9 8 13 18 22 24 24 23 22 19 13 10 9 9 9 9 10 12 13 13 14 14 15
39 40 39 33 32 29 26 24 22 19 17 16 16 13 9 8 5 6 6 6 4 5 6 9 14 18 21 23 23 21 21 21 19 17 15 15 15 14 16 19 20 19 19 20
37 36 34 37 31 28 25 22 20 19 18 16 13 10 9 7 7 7 6 6 4 4 5 6 9 14 16 16 20 23 21 21 20 19 19 19 19 18 17 18 20 20 21 22
39 37 38 34 29 27 25 21 21 21 18 15 12 10 8 8 7 7 6 5 4 5 4 5 6 9 12 15 16 16 19 19 18 17 16 14 13 14 14 16 18 19 20 20
41 38 33 29 28 27 24 22 21 20 16 12 12 10 9 9 10 9 7 5 6 6 6 6 5 6 8 13 17 16 16 19 14 11 8 8 8 9 11 13 15 18 19 19
37 30 30 29 29 26 24 23 22 19 13 11 12 10 11 11 11 10 10 9 8 10 11 12 12 13 11 13 15 17 14 16 13 11 7 7 8 8 11 15 17 19 20 22
31 31 29 28 26 25 26 26 24 17 12 12 12 13 12 12 12 10 8 8 9 10 12 13 12 11 8 9 12 15 11 12 14 12 12 11 11 14 17 20 22 21 20 20
32 30 30 29 28 28 28 27 25 16 13 14 16 14 13 13 13 10 9 8 7 7 9 10 7 4 2 2 4 9 12 14 13 11 12 11 14 17 19 17 17 19 20 22
34 33 32 31 32 33 31 28 19 11 14 18 17 14 15 15 14 11 9 8 8 9 11 11 4 6 8 8 9 10 11 11 11 8 8 11 11 11 14 15 18 20 23 25
35 34 34 34 33 31 26 21 16 17 20 19 17 16 15 15 13 11 11 9 9 10 10 3 7 11 10 7 5 3 1 2 4 5 4 6 8 11 14 18 21 24 27 29
36 34 35 33 31 27 26 20 18 17 18 18 18 17 14 13 12 12 10 8 7 7 3 4 5 12 10 6 3 3 4 4 2 3 4 6 10 15 19 23 26 29 33 35
35 35 33 31 30 28 27 23 20 20 19 18 19 17 13 11 11 11 10 8 7 9 6 6 7 9 7 6 6 5 4 3 3 3 6 10 15 20 25 28 30 33 36 39
34 32 31 29 29 28 28 25 22 18 21 24 24 20 16 13 13 11 12 13 16 13 10 7 7 8 8 7 7 6 5 4 3 6 11 15 20 25 29 33 35 38 42 45

GFSNW_500_spd_117.txt.gz
Wind_Speed
52 44 38 35 37 43 43 37 32 35 31 26 26 22 16 13 11 10 12 16 15 11 12 18 17 12 12 11 13 18 23 26 10 6 5 6 5 11 16 17 14 13 17 4
31 30 33 30 34 41 37 35 38 34 29 28 25 19 17 13 9 8 12 15 14 8 9 13 11 9 13 11 10 17 19 22 7 8 6 6 10 6 15 17 16 15 16 17
34 33 31 27 37 39 38 38 36 32 28 27 23 20 16 12 9 10 12 14 14 9 8 10 6 10 12 12 12 14 20 17 13 13 6 4 3 9 9 8 8 17 10 14
34 33 29 39 39 40 39 41 35 30 27 27 24 19 16 12 11 11 12 13 14 11 9 4 7 9 11 11 10 11 14 8 10 10 12 3 6 7 11 5 4 17 20 13
29 30 37 40 42 41 41 38 31 28 29 28 23 20 19 14 12 11 12 13 15 11 8 7 5 5 8 12 4 5 7 10 10 19 19 8 0 10 15 18 16 17 13 8
32 38 41 45 45 42 41 35 30 29 29 26 23 22 18 14 11 12 15 15 14 13 11 10 9 4 6 4 1 5 6 5 5 7 21 21 18 25 20 21 21 10 1 2
37 40 50 48 43 41 42 34 32 29 29 25 24 21 18 15 14 13 16 15 14 15 13 14 12 7 4 6 5 5 13 11 11 5 7 8 13 12 10 7 9 5 5 5
36 48 48 44 42 44 39 35 29 28 26 25 23 21 18 16 13 15 17 13 12 13 14 15 14 10 5 6 5 6 7 11 10 6 10 7 11 7 5 5 3 1 2 2
37 51 48 44 44 46 35 32 29 26 26 26 24 19 16 16 14 15 14 11 12 10 14 15 12 9 9 8 5 5 8 13 10 9 11 8 4 3 2 2 2 1 1 2
38 47 45 45 46 42 35 34 26 25 25 27 21 18 17 16 15 15 12 12 12 11 14 17 11 9 10 9 5 7 13 13 13 13 14 9 3 2 1 1 1 1 1 2
42 45 48 46 46 39 32 31 24 25 27 22 21 18 16 14 14 13 14 13 11 11 12 20 15 12 9 10 8 10 16 15 15 16 17 16 7 6 3 2 2 4 4 4
41 45 48 46 43 39 33 29 25 26 23 23 20 18 15 13 13 14 14 13 12 12 11 16 21 16 13 9 6 12 7 10 13 11 10 10 10 8 6 5 6 7 8 9
43 48 43 45 42 36 35 29 26 25 23 21 20 18 14 13 13 14 13 12 14 13 12 13 21 24 18 13 10 6 7 6 7 7 6 5 6 6 5 4 4 5 7 8
42 45 47 42 38 36 35 29 26 24 21 20 20 16 14 13 12 12 12 12 13 14 12 13 16 23 28 22 19 14 11 8 6 8 8 7 5 4 4 3 4 6 8 10
43 47 45 44 38 38 32 27 26 23 22 20 17 16 14 12 12 11 11 12 13 13 13 13 16 17 21 28 25 22 19 15 12 9 7 7 7 7 6 6 7 10 13 14
34 41 45 40 39 36 31 28 26 22 20 16 14 14 12 11 9 10 10 11 11 10 9 10 12 16 16 18 23 24 24 22 19 16 15 13 12 10 10 13 16 17 18 18
34 31 34 38 38 36 30 25 23 21 19 17 14 13 12 9 9 11 11 10 9 7 6 6 8 10 13 13 16 19 21 22 20 20 19 18 18 17 17 18 19 21 22 22
35 36 35 36 35 34 29 28 25 22 19 17 14 13 12 11 11 10 10 9 8 9 7 7 6 7 9 12 15 16 16 17 19 16 17 15 14 15 16 18 20 22 22 24
32 33 38 37 35 32 28 26 22 20 17 15 13 13 10 12 12 11 10 10 9 8 7 7 6 6 7 9 14 16 16 14 15 13 10 9 8 9 10 11 13 15 15 17
36 32 35 36 35 31 28 26 23 21 18 16 15 13 11 12 11 11 11 12 12 11 10 10 11 12 13 16 16 15 16 15 16 14 11 9 8 8 9 10 10 13 16 17
37 36 36 35 32 29 27 26 23 20 17 17 16 13 13 11 11 12 11 11 11 11 12 11 12 14 15 14 15 14 13 14 15 16 14 12 10 10 9 10 13 11 14 16
39 35 35 32 31 30 30 27 24 18 17 17 14 15 13 12 12 13 11 11 10 9 10 11 11 11 8 8 7 8 12 15 15 14 11 10 10 8 11 10 12 13 15 18
39 37 35 34 34 33 29 21 16 14 15 16 17 16 14 14 14 12 12 10 8 9 10 11 11 7 5 3 5 2 11 15 14 12 10 8 8 8 9 10 13 17 19 23
38 37 36 34 32 29 19 20 21 21 23 21 18 16 16 15 13 13 14 11 10 10 11 9 7 10 11 8 6 5 7 10 11 10 9 7 6 6 9 12 16 19 22 25
36 34 33 31 28 22 20 17 19 22 22 19 17 17 16 14 13 13 12 10 9 10 8 5 7 12 12 9 6 4 5 8 9 8 6 4 4 7 11 16 21 24 27 29
30 30 29 26 23 22 19 19 21 22 22 19 17 16 15 14 13 12 12 10 13 11 8 7 7 13 12 8 6 7 7 6 5 4 4 4 7 11 16 21 25 28 31 34
30 28 26 25 24 22 22 22 22 24 24 20 20 19 16 13 11 11 13 16 15 12 10 7 8 10 10 9 9 8 6 5 5 6 6 9 12 16 21 25 29 32 36 39

GFSNW_500_spd_120.txt.gz
Wind_Speed
43 46 36 41 43 41 38 39 41 41 47 37 41 39 35 31 26 24 20 18 17 17 20 24 20 19 17 14 14 12 18 23 18 17 14 3 5 9 8 11 10 15 15 9
55 59 43 44 41 35 32 39 37 37 41 39 41 37 32 28 27 22 20 18 15 16 18 18 16 15 16 14 12 10 15 21 12 14 17 5 9 6 5 8 12 15 13 11
37 41 34 39 31 29 30 37 35 41 40 42 39 35 29 29 24 22 20 17 15 14 13 15 13 11 12 13 12 8 13 21 15 14 12 8 4 8 4 4 6 10 13 7
27 33 29 30 29 28 28 32 33 37 42 42 37 31 30 27 24 22 18 17 16 14 11 13 13 11 10 11 9 4 5 7 11 13 9 3 6 6 6 3 11 2 14 14
31 34 33 31 29 28 29 36 35 41 41 40 35 31 29 27 23 19 19 17 16 14 11 14 15 14 13 16 7 6 4 2 5 14 3 6 3 7 6 2 17 17 11 7
28 27 30 28 30 32 34 36 39 43 39 36 31 29 28 25 21 20 19 16 15 15 13 11 15 15 12 12 8 11 14 5 1 3 12 10 12 16 12 13 12 8 6 7
25 29 30 33 33 36 37 39 40 43 37 31 28 28 26 24 22 20 17 16 15 15 15 11 11 15 10 13 12 11 13 10 12 13 12 5 21 14 12 10 7 3 2 3
31 30 34 36 40 39 39 38 43 43 32 27 29 28 26 24 22 19 16 14 15 16 15 14 13 13 12 10 12 11 11 9 12 12 11 7 11 6 6 5 4 1 2 2
34 37 38 41 40 38 38 41 45 35 30 29 30 25 25 20 20 17 16 14 15 16 14 13 14 13 12 11 10 11 13 11 12 11 9 11 7 4 4 4 4 4 3 2
40 38 40 40 39 39 40 43 41 34 31 30 27 25 23 19 18 17 15 14 15 14 14 13 14 13 13 11 9 11 11 10 11 13 12 11 9 3 1 2 3 4 2 2
38 37 37 39 41 39 40 42 40 33 31 28 26 24 21 19 17 16 14 14 14 14 13 13 13 15 15 13 10 10 15 16 14 16 18 16 10 7 7 5 5 4 3 3
35 34 36 36 40 40 40 42 40 34 30 27 25 23 21 18 17 15 14 14 13 13 14 13 13 16 17 17 12 12 12 12 16 13 15 19 16 13 10 9 8 6 6 4
36 30 33 37 41 40 41 40 37 33 28 26 24 22 20 17 17 14 12 13 13 13 14 14 14 15 21 20 15 10 10 7 8 8 10 8 8 10 10 9 7 5 3 2
36 35 33 38 42 41 41 35 34 31 25 22 22 20 18 18 15 12 12 12 13 13 14 14 14 16 17 26 21 17 13 10 7 9 8 8 8 8 7 6 5 2 0 4
37 35 34 37 41 40 35 33 33 30 27 23 21 20 18 15 12 11 11 12 11 12 13 13 15 16 17 19 27 26 23 17 13 11 9 9 8 6 6 5 3 3 6 8
39 37 37 37 36 36 33 32 30 30 24 20 19 21 16 13 11 10 11 11 11 12 11 13 13 13 15 15 16 21 27 25 22 18 14 11 8 7 7 7 8 10 11 14
38 36 36 36 36 34 31 28 28 27 24 22 21 18 14 12 11 9 11 11 11 11 11 9 8 9 9 11 12 13 17 20 21 23 20 17 13 12 13 13 13 14 16 18
35 34 35 38 38 36 32 32 31 28 24 23 20 15 13 12 9 9 11 11 11 11 12 12 11 9 8 8 9 10 11 14 17 17 18 16 16 15 13 12 12 13 14 18
33 31 35 38 39 37 35 33 29 26 24 19 18 15 13 12 9 10 10 11 12 11 12 11 11 10 8 8 9 10 13 14 13 15 14 12 11 11 11 11 10 12 15 18
31 33 37 36 34 35 35 32 28 24 23 23 20 17 13 11 10 9 10 12 13 13 14 13 13 13 14 16 16 15 14 16 16 13 14 15 14 12 11 11 10 9 12 11
33 34 32 29 32 35 33 31 29 27 25 23 18 15 11 11 10 9 11 13 13 12 13 13 13 14 15 16 15 13 13 14 15 15 17 16 13 9 8 7 7 9 8 11
30 28 30 33 35 35 33 30 28 27 25 20 17 14 11 11 10 10 11 12 12 12 12 12 13 14 14 10 10 9 9 12 15 16 17 15 12 9 6 3 4 6 9 13
33 31 33 35 36 36 34 28 25 23 20 17 15 14 12 10 10 11 11 12 11 10 11 13 15 15 8 2 3 4 9 13 13 14 14 12 9 6 3 2 5 9 12 15
34 35 35 36 36 32 27 25 25 24 21 18 14 12 12 11 11 10 11 11 11 11 12 14 14 8 7 5 1 5 3 12 13 12 10 10 8 3 2 5 8 12 16 20
36 34 35 33 29 28 27 28 26 23 19 16 15 14 12 12 12 11 12 11 11 12 12 13 9 7 9 7 5 4 2 7 11 11 9 7 5 5 7 9 12 17 21 25
37 35 34 29 28 28 26 26 23 20 18 15 13 13 13 13 11 11 12 12 16 14 11 10 7 8 10 10 8 6 5 7 8 8 7 7 8 9 10 13 17 21 25 29
35 32 29 27 27 26 25 23 21 20 19 17 17 16 15 12 11 12 13 15 15 12 10 9 10 9 11 11 9 7 8 7 7 7 9 10 11 13 16 19 23 27 30 34